[[{"header":{"parameterUnit":"m.s-1","parameterCategory":1,"la1":30.6,"la2":28.766,"lo1":-90.7593,"lo2":-88.6598,"dy":0.0162,"dx":0.0183,"nx":116,"ny":114,"refTime":"2024-06-21T06:00:00:Z","depth":0,"parameterNumber":2,"parameterNumberName":"U-component_of_WINDS"},"data":[0.0,0.0,0.0,0.0,0.0,0.0,0.0,0.0,0.0,0.0,0.0,0.0,0.0,0.0,0.0,0.0,0.0,0.0,0.0,0.0,0.0,0.0,0.0,0.0,0.0,0.0,0.0,0.0,0.0,0.0,0.0,0.0,0.0,0.0,0.0,0.0,0.0,0.0,0.0,0.0,0.0,0.0,0.0,0.0,0.0,0.0,0.0,0.0,0.0,0.0,0.0,0.0,0.0,0.0,0.0,0.0,0.0,0.0,0.0,0.0,0.0,0.0,0.0,0.0,0.0,0.0,0.0,0.0,0.0,0.0,0.0,0.0,0.0,0.0,0.0,0.0,0.0,0.0,0.0,0.0,0.0,0.0,0.0,0.0,0.0,0.0,0.0,0.0,0.0,0.0,0.0,0.0,0.0,0.0,0.0,0.0,0.0,0.0,0.0,0.0,0.0,0.0,0.0,0.0,0.0,0.0,0.0,0.0,0.0,0.0,0.0,0.0,0.0,0.0,0.0,0.0,0.0,0.0,0.0,0.0,0.0,0.0,0.0,0.0,0.0,0.0,0.0,0.0,0.0,0.0,0.0,0.0,0.0,0.0,0.0,0.0,0.0,0.0,0.0,0.0,0.0,0.0,0.0,0.0,0.0,0.0,0.0,0.0,0.0,0.0,0.0,0.0,0.0,0.0,0.0,0.0,0.0,0.0,0.0,0.0,0.0,0.0,0.0,0.0,0.0,0.0,0.0,0.0,0.0,0.0,0.0,0.0,0.0,0.0,0.0,0.0,0.0,0.0,0.0,0.0,0.0,0.0,0.0,0.0,0.0,0.0,0.0,0.0,0.0,0.0,0.0,0.0,0.0,0.0,0.0,0.0,0.0,0.0,0.0,0.0,0.0,0.0,0.0,0.0,0.0,0.0,0.0,0.0,0.0,0.0,0.0,0.0,0.0,0.0,0.0,0.0,0.0,0.0,0.0,0.0,0.0,0.0,0.0,0.0,0.0,0.0,0.0,0.0,0.0,0.0,0.0,0.0,0.0,0.0,0.0,0.0,0.0,0.0,0.0,0.0,0.0,0.0,0.0,0.0,0.0,0.0,0.0,0.0,0.0,0.0,0.0,0.0,0.0,0.0,0.0,0.0,0.0,0.0,0.0,0.0,0.0,0.0,0.0,0.0,0.0,0.0,0.0,0.0,0.0,0.0,0.0,0.0,0.0,0.0,0.0,0.0,0.0,0.0,0.0,0.0,0.0,0.0,0.0,0.0,0.0,0.0,0.0,0.0,0.0,0.0,0.0,0.0,0.0,0.0,0.0,0.0,0.0,0.0,0.0,0.0,0.0,0.0,0.0,0.0,0.0,0.0,0.0,0.0,0.0,0.0,0.0,0.0,0.0,0.0,0.0,0.0,0.0,0.0,0.0,0.0,0.0,0.0,0.0,0.0,0.0,0.0,0.0,0.0,0.0,0.0,0.0,0.0,0.0,0.0,0.0,0.0,0.0,0.0,0.0,0.0,0.0,0.0,0.0,0.0,0.0,0.0,0.0,0.0,0.0,0.0,0.0,0.0,0.0,0.0,0.0,0.0,0.0,0.0,0.0,0.0,0.0,0.0,0.0,0.0,0.0,0.0,0.0,0.0,0.0,0.0,0.0,0.0,0.0,0.0,0.0,0.0,0.0,0.0,0.0,0.0,0.0,0.0,0.0,0.0,0.0,0.0,0.0,0.0,0.0,0.0,0.0,0.0,0.0,0.0,0.0,0.0,0.0,0.0,0.0,0.0,0.0,0.0,0.0,0.0,0.0,0.0,0.0,0.0,0.0,0.0,0.0,0.0,0.0,0.0,0.0,0.0,0.0,0.0,0.0,0.0,0.0,0.0,0.0,0.0,0.0,0.0,0.0,0.0,0.0,0.0,0.0,0.0,0.0,0.0,0.0,0.0,0.0,0.0,0.0,0.0,0.0,0.0,0.0,0.0,0.0,0.0,0.0,0.0,0.0,0.0,0.0,0.0,0.0,0.0,0.0,0.0,0.0,0.0,0.0,0.0,0.0,0.0,0.0,0.0,0.0,0.0,0.0,0.0,0.0,0.0,0.0,0.0,0.0,0.0,0.0,0.0,0.0,0.0,0.0,0.0,0.0,0.0,0.0,0.0,0.0,0.0,0.0,0.0,0.0,0.0,0.0,0.0,0.0,0.0,0.0,0.0,0.0,0.0,0.0,0.0,0.0,0.0,0.0,0.0,0.0,0.0,0.0,0.0,0.0,0.0,0.0,0.0,0.0,0.0,0.0,0.0,0.0,0.0,0.0,0.0,0.0,0.0,0.0,0.0,0.0,0.0,0.0,0.0,0.0,0.0,0.0,0.0,0.0,0.0,0.0,0.0,0.0,0.0,0.0,0.0,0.0,0.0,0.0,0.0,0.0,0.0,0.0,0.0,0.0,0.0,0.0,0.0,0.0,0.0,0.0,0.0,0.0,0.0,0.0,0.0,0.0,0.0,0.0,0.0,0.0,0.0,0.0,0.0,0.0,0.0,0.0,0.0,0.0,0.0,0.0,0.0,0.0,0.0,0.0,0.0,0.0,0.0,0.0,0.0,0.0,0.0,0.0,0.0,0.0,0.0,0.0,0.0,0.0,0.0,0.0,0.0,0.0,0.0,0.0,0.0,0.0,0.0,0.0,0.0,0.0,0.0,0.0,0.0,0.0,0.0,0.0,0.0,0.0,0.0,0.0,0.0,0.0,0.0,0.0,0.0,0.0,0.0,0.0,0.0,0.0,0.0,0.0,0.0,0.0,0.0,0.0,0.0,0.0,0.0,0.0,0.0,0.0,0.0,0.0,0.0,0.0,0.0,0.0,0.0,0.0,0.0,0.0,0.0,0.0,0.0,0.0,0.0,0.0,0.0,0.0,0.0,0.0,0.0,0.0,0.0,0.0,0.0,0.0,0.0,0.0,0.0,0.0,0.0,0.0,0.0,0.0,0.0,0.0,0.0,0.0,0.0,0.0,0.0,0.0,0.0,0.0,0.0,0.0,0.0,0.0,0.0,0.0,0.0,0.0,0.0,0.0,0.0,0.0,0.0,0.0,0.0,0.0,0.0,0.0,0.0,0.0,0.0,0.0,0.0,0.0,0.0,0.0,0.0,0.0,0.0,0.0,0.0,0.0,0.0,0.0,0.0,0.0,0.0,0.0,0.0,0.0,0.0,0.0,0.0,0.0,0.0,0.0,0.0,0.0,0.0,0.0,0.0,0.0,0.0,0.0,0.0,0.0,0.0,0.0,0.0,0.0,0.0,0.0,0.0,0.0,0.0,0.0,0.0,0.0,0.0,0.0,0.0,0.0,0.0,0.0,0.0,0.0,0.0,0.0,0.0,0.0,0.0,0.0,0.0,0.0,0.0,0.0,0.0,0.0,0.0,0.0,0.0,0.0,0.0,0.0,0.0,0.0,0.0,0.0,0.0,0.0,0.0,0.0,0.0,0.0,0.0,0.0,0.0,0.0,0.0,0.0,0.0,0.0,0.0,0.0,0.0,0.0,0.0,0.0,0.0,0.0,0.0,0.0,0.0,0.0,0.0,0.0,0.0,0.0,0.0,0.0,0.0,0.0,0.0,0.0,0.0,0.0,0.0,0.0,0.0,0.0,0.0,0.0,0.0,0.0,0.0,0.0,0.0,0.0,0.0,0.0,0.0,0.0,0.0,0.0,0.0,0.0,0.0,0.0,0.0,0.0,0.0,0.0,0.0,0.0,0.0,0.0,0.0,0.0,0.0,0.0,0.0,0.0,0.0,0.0,0.0,0.0,0.0,0.0,0.0,0.0,0.0,0.0,0.0,0.0,0.0,0.0,0.0,0.0,0.0,0.0,0.0,0.0,0.0,0.0,0.0,0.0,0.0,0.0,0.0,0.0,0.0,0.0,0.0,0.0,0.0,0.0,0.0,0.0,0.0,0.0,0.0,0.0,0.0,0.0,0.0,0.0,0.0,0.0,0.0,0.0,0.0,0.0,0.0,0.0,0.0,0.0,0.0,0.0,0.0,0.0,0.0,0.0,0.0,0.0,0.0,0.0,0.0,0.0,0.0,0.0,0.0,0.0,0.0,0.0,0.0,0.0,0.0,0.0,0.0,0.0,0.0,0.0,0.0,0.0,0.0,0.0,0.0,0.0,0.0,0.0,0.0,0.0,0.0,0.0,0.0,0.0,0.0,0.0,0.0,0.0,0.0,0.0,0.0,0.0,0.0,0.0,0.0,0.0,0.0,0.0,0.0,0.0,0.0,0.0,0.0,0.0,0.0,0.0,0.0,0.0,0.0,0.0,0.0,0.0,0.0,0.0,0.0,0.0,0.0,0.0,0.0,0.0,0.0,0.0,0.0,0.0,0.0,0.0,0.0,0.0,0.0,0.0,0.0,0.0,0.0,0.0,0.0,0.0,0.0,0.0,0.0,0.0,0.0,0.0,0.0,0.0,0.0,0.0,0.0,0.0,0.0,0.0,0.0,0.0,0.0,0.0,0.0,0.0,0.0,0.0,0.0,0.0,0.0,0.0,0.0,0.0,0.0,0.0,0.0,0.0,0.0,0.0,0.0,0.0,0.0,0.0,0.0,0.0,0.0,0.0,0.0,0.0,0.0,0.0,0.0,0.0,0.0,0.0,0.0,0.0,0.0,0.0,0.0,0.0,0.0,0.0,0.0,0.0,0.0,0.0,0.0,0.0,0.0,0.0,0.0,0.0,0.0,0.0,0.0,0.0,0.0,0.0,0.0,0.0,0.0,0.0,0.0,0.0,0.0,0.0,0.0,0.0,0.0,0.0,0.0,0.0,0.0,0.0,0.0,0.0,0.0,0.0,0.0,0.0,0.0,0.0,0.0,0.0,0.0,0.0,0.0,0.0,0.0,0.0,0.0,0.0,0.0,0.0,0.0,0.0,0.0,0.0,0.0,0.0,0.0,0.0,0.0,0.0,0.0,0.0,0.0,0.0,0.0,0.0,0.0,0.0,0.0,0.0,0.0,0.0,0.0,0.0,0.0,0.0,0.0,0.0,0.0,0.0,0.0,0.0,0.0,0.0,0.0,0.0,0.0,0.0,0.0,0.0,0.0,0.0,0.0,0.0,0.0,0.0,0.0,0.0,0.0,0.0,0.0,0.0,0.0,0.0,0.0,0.0,0.0,0.0,0.0,0.0,0.0,0.0,0.0,0.0,0.0,0.0,0.0,0.0,0.0,0.0,0.0,0.0,0.0,0.0,0.0,0.0,0.0,0.0,0.0,0.0,0.0,0.0,0.0,0.0,0.0,0.0,0.0,0.0,0.0,0.0,0.0,0.0,0.0,0.0,0.0,0.0,0.0,0.0,0.0,0.0,0.0,0.0,0.0,0.0,0.0,0.0,0.0,0.0,0.0,0.0,0.0,0.0,0.0,0.0,0.0,0.0,0.0,0.0,0.0,0.0,0.0,0.0,0.0,0.0,0.0,0.0,0.0,0.0,0.0,0.0,0.0,0.0,0.0,0.0,0.0,0.0,0.0,0.0,0.0,0.0,0.0,0.0,0.0,0.0,0.0,0.0,0.0,0.0,0.0,0.0,0.0,0.0,0.0,0.0,0.0,0.0,0.0,0.0,0.0,0.0,0.0,0.0,0.0,0.0,0.0,0.0,0.0,0.0,0.0,0.0,0.0,0.0,0.0,0.0,0.0,0.0,0.0,0.0,0.0,0.0,0.0,0.0,0.0,0.0,0.0,0.0,0.0,0.0,0.0,0.0,0.0,0.0,0.0,0.0,0.0,0.0,0.0,0.0,0.0,0.0,0.0,0.0,0.0,0.0,0.0,0.0,0.0,0.0,0.0,0.0,0.0,0.0,0.0,0.0,0.0,0.0,0.0,0.0,0.0,0.0,0.0,0.0,0.0,0.0,0.0,0.0,0.0,0.0,0.0,0.0,0.0,0.0,0.0,0.0,0.0,0.0,0.0,0.0,0.0,0.0,0.0,0.0,0.0,0.0,0.0,0.0,0.0,0.0,0.0,0.0,0.0,0.0,0.0,0.0,0.0,0.0,0.0,0.0,0.0,0.0,0.0,0.0,0.0,0.0,0.0,0.0,0.0,0.0,0.0,0.0,0.0,1.7196,1.6092,0.0,0.0,0.0,0.0,0.0,0.0,0.0,0.0,0.0,0.0,0.0,0.0,0.0,0.0,0.0,0.0,0.0,0.0,0.0,0.0,0.0,0.0,0.0,1.1426,1.1914,1.2328,1.2563,1.2698,1.2698,1.2698,1.2698,1.2698,1.2191,1.1916,1.1916,1.1632,1.1705,1.214,1.214,1.2483,1.3151,1.3386,1.2818,1.1557,0.0,0.0,0.0,0.0,0.0,0.0,0.0,0.0,0.0,0.0,0.0,0.0,0.0,0.0,0.0,0.0,0.0,0.0,0.0,0.0,0.0,0.0,0.0,0.0,0.0,0.0,0.0,0.0,0.0,0.0,0.0,0.0,0.0,0.0,0.0,0.0,0.0,0.0,0.0,0.0,0.0,0.0,0.0,0.0,0.0,0.0,0.0,0.0,0.0,0.0,0.0,0.0,0.0,0.0,0.0,0.0,0.0,0.0,0.0,0.0,0.0,0.0,0.0,0.0,0.0,0.0,0.0,0.0,0.0,0.0,1.8684,1.782,0.0,0.0,0.0,0.0,0.0,0.0,0.0,0.0,0.0,0.0,0.0,0.0,0.0,0.0,0.0,0.0,0.0,0.0,0.0,0.0,0.0,0.9969,1.0951,1.1433,1.1933,1.2541,1.2753,1.2849,1.2849,1.2849,1.2849,1.2849,1.2795,1.2773,1.2773,1.2773,1.3044,1.3679,1.3979,1.4509,1.5297,1.564,1.4782,1.2936,1.1871,0.0,0.0,0.0,0.0,0.0,0.0,0.0,0.0,0.0,0.0,0.0,0.0,0.0,0.0,0.0,0.0,0.0,0.0,0.0,0.0,0.0,0.0,0.0,0.0,0.0,0.0,0.0,0.0,0.0,0.0,0.0,0.0,0.0,0.0,0.0,0.0,0.0,0.0,0.0,0.0,0.0,0.0,0.0,0.0,0.0,0.0,0.0,0.0,0.0,0.0,0.0,0.0,0.0,0.0,0.0,0.0,0.0,0.0,0.0,0.0,0.0,0.0,0.0,2.2186,2.1914,2.1485,2.1485,2.166,2.1914,2.0646,2.0058,1.9902,1.8282,0.0,0.0,0.0,0.0,0.0,0.0,0.0,0.0,0.0,0.0,0.0,0.0,0.0,0.0,0.0,0.0,0.0,0.0,0.0,0.9361,0.8953,1.0528,1.143,1.0964,1.1771,1.2312,1.2312,1.2312,1.2312,1.2312,1.1968,1.1771,1.1771,1.1771,1.2357,1.3521,1.5048,1.6009,1.6493,1.6517,1.6384,1.6044,1.4454,1.3982,1.4237,0.0,0.0,0.0,0.0,0.0,0.0,0.0,0.0,0.0,0.0,0.0,0.0,0.0,0.0,0.0,0.0,0.0,0.0,0.0,0.0,0.0,0.0,0.0,0.0,0.0,0.0,0.0,0.0,0.0,0.0,0.0,0.0,0.0,0.0,0.0,0.0,0.0,0.0,0.0,0.0,0.0,1.4186,1.5517,0.0,0.0,0.0,0.0,0.0,0.0,0.0,0.0,0.0,0.0,0.0,0.0,0.0,1.9497,2.2996,2.4293,2.5263,2.5903,2.5367,2.5113,2.5035,2.5035,2.5074,2.5113,2.4871,0.0,2.0503,2.0229,0.0,0.0,0.0,0.0,0.0,0.0,0.0,0.0,0.0,0.0,0.0,0.0,0.0,0.0,0.0,0.0,0.0,0.0,0.0,0.0,0.0,1.0665,1.1584,1.2232,1.2857,1.3244,1.3277,1.3276,1.2881,1.2009,1.2195,1.2146,1.1722,1.2573,1.3887,1.5684,1.7165,1.8086,1.8498,1.8769,1.851,1.7768,1.6827,1.6088,1.5459,1.3736,0.0,0.0,0.0,0.0,0.0,0.0,0.0,0.0,0.0,0.0,0.0,0.0,0.0,0.0,0.0,0.0,0.0,0.0,0.0,0.0,0.0,0.0,0.0,0.0,0.0,0.0,0.0,0.0,0.0,0.0,0.0,0.0,0.0,0.0,0.0,0.0,0.0,0.0,0.0,1.4348,1.5771,1.6367,1.6699,1.6664,0.0,0.0,0.0,0.0,0.0,0.0,0.0,0.0,0.0,2.2589,2.1804,2.2614,2.5243,2.6197,2.6855,2.7213,2.6934,2.6953,2.7142,2.6934,2.6816,2.6816,2.6537,2.5449,2.3772,2.2562,2.1329,2.0193,0.0,0.0,0.0,0.0,2.1603,2.1132,0.0,0.0,0.0,0.0,0.0,0.0,0.0,0.0,0.0,0.0,0.0,0.0,0.9858,1.0686,1.1662,1.297,1.3722,1.401,1.3733,1.3792,1.3223,1.1833,1.2159,1.2277,1.2134,1.4078,1.602,1.7888,1.8851,1.9545,1.9927,1.9955,1.9467,1.856,1.8261,1.7417,1.6111,1.4714,1.3848,1.3273,0.0,0.0,0.0,0.0,0.0,0.0,0.0,0.0,0.0,0.0,0.0,0.0,0.0,0.0,0.0,0.0,0.0,0.0,0.0,0.0,0.0,0.0,0.0,0.0,0.0,0.0,0.0,0.0,0.0,0.0,0.0,0.0,0.0,0.0,0.0,0.0,0.0,1.6274,1.7444,1.7659,1.8361,1.8518,0.0,0.0,0.0,0.0,0.0,0.0,2.1681,2.2441,2.3594,2.5195,2.4996,2.5586,2.7031,2.7734,2.8105,2.8171,2.8171,2.8347,2.864,2.8327,2.8171,2.8151,2.7812,2.7422,2.6875,2.4848,2.3499,2.2722,2.2613,2.2514,2.2574,2.4031,2.3909,2.3245,0.0,0.0,0.0,0.0,0.0,0.0,0.0,0.0,0.0,0.0,0.0,0.7667,0.8255,1.0106,1.1398,1.1673,1.3399,1.3962,1.2748,1.2957,1.2718,1.174,1.1176,1.1572,1.2991,1.6179,1.8262,1.9198,1.9338,1.9601,1.9958,1.8833,1.8272,1.8207,1.8191,1.7552,1.639,1.477,1.3768,1.3134,1.2336,0.0,0.0,0.0,0.0,0.0,0.0,0.0,0.0,0.0,0.0,0.0,0.0,0.0,0.0,0.0,0.0,0.0,0.0,0.0,0.0,0.0,0.0,0.0,0.0,0.0,0.0,0.0,0.0,0.0,0.0,0.0,0.0,0.0,0.0,0.0,0.0,0.0,0.0,2.0312,2.0781,0.0,0.0,0.0,0.0,2.1583,2.209,2.3086,2.4769,2.5293,2.6128,2.7487,2.7344,2.7734,2.8762,2.9484,2.9746,2.95,2.95,2.952,2.954,2.952,2.95,2.95,2.9481,2.9199,2.8625,2.6934,2.5727,2.4949,2.4934,2.4659,2.4323,2.4867,2.5024,2.5036,0.0,0.0,0.0,0.3794,0.421,0.4465,0.411,0.439,0.4621,0.4542,0.5488,0.6425,0.7092,0.9294,1.1097,1.2028,1.3474,1.414,1.3718,1.328,1.2682,1.1935,1.1731,1.2511,1.4413,1.6563,1.7982,1.8591,1.8875,1.9257,1.9657,1.9251,1.8624,1.7871,1.7871,1.7101,1.5778,1.5355,1.4919,1.4343,1.2647,1.1977,0.0,0.0,0.0,0.0,0.0,0.0,0.0,0.0,0.0,0.0,0.0,0.0,0.0,0.0,0.0,0.0,0.0,0.0,0.0,0.0,0.0,0.0,0.0,0.0,0.0,0.0,0.0,0.0,0.0,0.0,0.0,0.0,0.0,0.0,0.0,0.0,0.0,2.2189,2.3127,0.0,2.2736,2.3262,2.3845,2.4313,2.5273,2.6236,2.7115,2.7559,2.8125,2.8894,2.8855,2.9101,2.9746,3.0,3.0234,3.0458,3.0458,3.0458,3.0439,3.0098,3.0009,2.9961,2.9715,2.952,2.9297,2.8718,2.7956,2.7174,2.7174,2.69,2.6523,2.6705,2.6588,2.6348,0.3,0.3178,0.0,0.3296,0.3755,0.3943,0.338,0.3632,0.3646,0.2973,0.3829,0.4709,0.5292,0.76,0.959,1.0776,1.2645,1.36,1.3212,1.3045,1.263,1.1831,1.2341,1.3461,1.52,1.6888,1.7965,1.8393,1.8434,1.8587,1.8879,1.8442,1.7832,1.7068,1.7068,1.6486,1.5541,1.5631,1.5353,1.4686,1.3168,1.2853,1.3237,0.0,0.0,0.0,0.0,0.0,0.0,0.0,0.0,0.0,0.0,0.0,0.0,0.0,0.0,0.0,0.0,0.0,0.0,0.0,0.0,0.0,0.0,0.0,0.0,0.0,0.0,0.0,0.0,0.0,0.0,0.0,0.0,0.0,0.0,2.2012,2.3535,2.3984,2.518,2.5688,2.4941,2.5801,2.6479,2.6771,2.7598,2.8367,2.8906,2.9199,2.9551,3.0028,3.0048,3.0185,3.043,3.043,3.0586,3.0898,3.0898,3.0898,3.0879,3.0566,3.043,3.041,3.0137,3.0048,3.0048,3.0048,2.9715,2.9141,2.8848,2.8582,2.8327,2.8327,2.8151,2.7832,0.2876,0.3007,0.3138,0.3283,0.3458,0.3376,0.2793,0.2775,0.2311,0.0853,0.1727,0.2563,0.28,0.5082,0.6956,0.78,1.089,1.2276,1.1062,1.2122,1.2407,1.148,1.2953,1.4272,1.5283,1.7196,1.836,1.8718,1.7995,1.7667,1.7644,1.6414,1.5835,1.5835,1.5835,1.5821,1.5808,1.5551,1.4923,1.4131,1.3892,1.4285,1.4881,0.0,0.0,0.0,0.0,0.0,0.0,0.0,0.0,0.0,0.0,0.0,0.0,0.0,0.0,0.0,0.0,0.0,0.0,0.0,0.0,0.0,0.0,0.0,0.0,0.0,0.0,0.0,0.0,0.0,0.0,0.0,0.0,0.0,2.1992,2.3831,2.5356,2.5757,2.6953,2.7585,2.7129,2.7506,2.8112,2.8879,2.8937,2.9336,3.0176,3.0215,3.043,3.0898,3.0889,3.0859,3.0879,3.0859,3.084,3.084,3.0869,3.0898,3.0898,3.0898,3.0898,3.0898,3.0898,3.0898,3.0898,3.0898,3.0898,3.0801,2.997,2.9637,2.9618,2.9618,2.9618,2.9481,0.2929,0.3007,0.3138,0.3283,0.3101,0.2892,0.2726,0.1984,0.1079,0.0041,0.1042,0.1656,0.1145,0.4518,0.6957,0.7297,0.9411,1.0647,1.0418,1.0617,1.1233,1.2377,1.4583,1.5682,1.5387,1.6912,1.7464,1.6985,1.6995,1.6977,1.6977,1.6608,1.6435,1.6435,1.6435,1.6353,1.6177,1.6083,1.5765,1.5257,1.4374,1.418,1.4347,0.0,0.0,0.0,0.0,0.0,0.0,0.0,0.0,0.0,0.0,0.0,0.0,0.0,0.0,0.0,0.0,0.0,0.0,0.0,0.0,0.0,0.0,0.0,0.0,0.0,0.0,0.0,0.0,0.0,0.0,0.0,2.0345,2.1941,2.3944,2.5806,2.7252,2.7923,2.8633,2.9031,2.8914,2.9285,2.959,2.9824,3.0156,3.0449,3.0684,3.0703,3.0898,3.1328,3.0099,2.9579,2.9874,2.9598,2.9451,2.9481,3.0457,3.0898,3.0898,3.0898,3.0898,3.0898,3.0898,3.0898,3.0898,3.0898,3.0898,3.0859,3.0654,3.0312,3.0019,3.0019,2.9852,2.9392,0.3301,0.3229,0.3152,0.3063,0.2849,0.2533,0.2027,0.1092,-0.0013,-0.129,-0.0328,0.0291,-0.0173,0.3138,0.5626,0.6219,0.8054,0.9206,0.9264,1.0138,1.1623,1.378,1.5313,1.6067,1.5963,1.6749,1.6929,1.6484,1.662,1.67,1.67,1.67,1.67,1.67,1.67,1.6607,1.6484,1.6484,1.6286,1.5952,1.5307,1.5154,1.5273,1.4442,1.5184,1.651,1.5733,1.6219,1.7152,1.6465,0.0,0.0,0.0,0.0,0.0,0.0,0.0,0.0,0.0,0.0,0.0,0.0,0.0,0.0,0.0,0.0,0.0,0.0,0.0,0.0,0.0,0.0,0.0,0.0,2.1154,2.2689,2.4671,2.5792,2.6664,2.731,2.7805,2.8089,2.8089,2.8407,2.8614,2.8614,2.8985,2.9222,2.9222,2.9222,2.9665,3.0634,2.8949,2.853,2.9506,2.9272,2.9133,2.9164,3.0727,3.1455,3.1455,3.1455,3.1455,3.1436,3.123,3.1152,3.1133,3.0957,3.048,2.9932,0.0,0.0,0.0,0.0,2.8872,2.7908,0.3822,0.3548,0.3171,0.2766,0.2637,0.2184,0.0963,0.016,-0.0955,-0.276,-0.1896,-0.1096,-0.1091,0.1548,0.3796,0.4992,0.6902,0.8119,0.8291,1.0477,1.2857,1.5291,1.5484,1.5912,1.6687,1.674,1.6754,1.6754,1.6794,1.6807,1.6807,1.6807,1.6807,1.6807,1.6807,1.678,1.6754,1.6754,1.6593,1.6351,1.6351,1.6544,1.6711,1.5691,1.6702,1.8503,1.7332,1.7568,1.8379,1.7986,0.0,0.0,0.0,0.0,0.0,0.0,0.0,0.0,0.0,0.0,0.0,0.0,0.0,0.0,0.0,0.0,0.0,0.0,0.0,0.0,0.0,0.0,0.0,0.0,2.2184,2.3368,2.4167,2.4325,2.4601,2.5307,2.5789,2.6034,2.6034,2.6302,2.6454,2.6454,2.6735,2.69,2.69,2.69,0.0,0.0,0.0,2.7459,2.9038,2.8985,2.8967,2.8998,3.0753,3.16,3.16,3.16,3.16,3.1581,3.1167,3.0964,3.0945,3.0553,2.9509,2.8259,2.9785,3.0333,3.0186,2.8664,2.7224,2.5904,0.4144,0.3673,0.3171,0.2766,0.2292,0.1532,0.021,-0.0526,-0.1569,-0.3394,-0.2153,-0.1098,-0.1098,0.1578,0.3842,0.5004,0.6352,0.7992,0.9968,1.1358,1.3077,1.5299,1.6072,1.6526,1.67,1.6966,1.7086,1.7086,1.7327,1.7434,1.7434,1.7434,1.7434,1.7434,1.7434,1.7314,1.7086,1.7086,1.6913,1.662,1.662,1.6271,1.5686,1.5477,1.6661,1.8376,1.7813,1.9124,2.1074,2.0625,1.9883,1.912,1.8929,1.7681,0.0,0.0,0.0,0.0,0.0,0.0,0.0,0.0,0.0,0.0,0.0,0.0,0.0,0.0,0.0,0.0,0.0,0.0,0.0,2.0811,2.1115,2.1349,2.1742,2.2038,2.3099,2.5568,2.6138,2.6321,2.6321,2.6604,2.6785,2.6785,2.6867,2.69,2.69,2.69,2.7191,2.7857,2.6193,2.5613,2.6271,2.5942,2.5802,2.5802,2.7222,0.0,2.7929,2.7929,2.7929,2.7912,2.7843,2.7778,2.7744,2.7415,2.6953,2.65,2.6832,2.6953,2.6893,2.6591,2.6288,2.5785,0.4793,0.4046,0.3189,0.239,0.1998,0.1249,-0.04,-0.1217,-0.2034,-0.3111,-0.2315,-0.1158,0.0112,0.1921,0.3726,0.5411,0.6259,0.796,1.0975,1.1721,1.3321,1.6173,1.6725,1.702,1.7141,1.7314,1.7394,1.7394,1.7541,1.7662,1.7782,1.7782,1.7889,1.8036,1.8036,1.7876,1.7595,1.7595,1.7341,1.6953,1.6953,1.6605,1.6032,1.5885,1.6773,1.8105,1.8512,1.9773,2.1372,2.1726,2.1269,2.0527,2.0313,1.9238,1.7835,0.0,0.0,0.0,0.0,0.0,0.0,0.0,0.0,0.0,0.0,0.0,0.0,0.0,0.0,1.8174,1.8691,0.0,1.9918,2.0727,2.1016,2.1194,2.1341,2.1609,2.2291,2.3654,2.4019,2.4212,2.4212,2.4461,2.4654,2.4654,2.4803,2.4907,2.4907,2.5037,2.5586,2.6706,2.5188,2.485,2.5927,2.5614,2.545,2.5484,2.6887,2.7538,2.7538,2.7538,2.7538,2.7522,2.7309,2.7194,2.7114,2.5914,2.5313,2.5109,2.4172,2.4223,2.4809,2.4809,2.4286,2.3435,0.5503,0.4644,0.3519,0.2243,0.1892,0.1192,-0.0606,-0.1506,-0.2091,-0.2392,-0.2039,-0.0863,0.1515,0.2464,0.3758,0.5882,0.6396,0.7968,1.1112,1.1792,1.3496,1.6626,1.7091,1.7367,1.7608,1.7649,1.7675,1.7675,1.7729,1.7889,1.8103,1.8103,1.8236,1.849,1.849,1.8357,1.8103,1.8022,1.7742,1.7341,1.7313,1.7086,1.6767,1.6498,1.6963,1.7914,1.8819,1.9693,2.0572,2.183,2.1774,2.118,2.1383,2.0684,1.9592,1.8466,1.7818,0.0,0.0,0.0,0.0,0.0,0.0,0.0,0.0,1.7395,1.7614,1.815,1.8749,1.9177,1.9248,1.9693,2.0254,2.0842,2.1355,2.1662,2.1662,2.1917,2.201,2.1783,2.1957,2.2071,2.2071,2.2338,2.2525,2.2558,2.2819,2.3014,2.3067,2.3273,2.4058,2.5544,2.4433,2.4486,2.5874,2.5696,2.5564,2.5598,2.678,2.7361,2.7345,2.7281,2.725,2.7234,2.6769,2.6579,2.637,2.4707,2.3988,2.3786,2.2262,2.2336,2.3283,2.3166,2.2247,2.1109,0.6047,0.5567,0.4613,0.3048,0.2239,0.1364,0.0078,-0.0745,-0.1283,-0.1438,-0.0743,0.0423,0.22,0.3156,0.4379,0.611,0.6742,0.7893,0.9875,1.1707,1.3474,1.5179,1.6729,1.7582,1.7608,1.7822,1.7969,1.7969,1.8263,1.841,1.8437,1.8437,1.8464,1.849,1.849,1.8477,1.8424,1.8129,1.7982,1.7889,1.7649,1.7381,1.7125,1.6767,1.7246,1.8025,1.7953,1.8489,1.9489,2.0944,2.1204,2.1093,2.2048,2.2012,2.1204,1.9218,1.8182,1.7347,1.5889,1.5771,1.6501,1.8322,1.8207,1.8437,0.0,2.0651,1.9538,2.0726,2.0301,1.9865,2.0391,2.0748,2.1149,2.175,2.1897,2.197,2.197,2.2191,2.2352,2.2325,2.2352,2.2378,2.2378,2.2632,2.2926,2.3172,2.3225,2.3394,2.3696,2.3736,2.3821,2.4034,2.3897,2.3874,2.4074,2.4047,2.4069,2.4069,2.4205,2.4284,2.4284,2.3975,2.3852,2.3838,2.3543,2.3255,2.2941,2.2713,2.2471,2.2241,2.2049,2.2042,2.2111,2.1583,2.1267,2.1109,0.623,0.5997,0.5584,0.4831,0.3734,0.2727,0.2025,0.1294,0.0949,0.1333,0.1692,0.2401,0.365,0.4237,0.4888,0.5705,0.6437,0.7658,0.9512,1.1623,1.3483,1.5061,1.6702,1.7608,1.7608,1.6976,1.6654,1.6654,1.6013,1.5818,1.5995,1.5955,1.6532,1.7617,1.7617,1.8055,1.8703,1.8424,1.8183,1.7996,1.7702,1.7541,1.7381,1.6887,1.6834,1.7087,1.7325,1.7667,0.0,2.036,2.0982,2.0999,2.1609,2.128,2.0385,1.8853,1.8091,1.7607,1.6875,1.5803,1.5158,1.6265,1.6022,1.5934,1.7512,1.7223,1.6914,1.7769,1.8539,1.9193,1.9642,2.0631,2.1529,2.1911,2.2124,2.2231,2.2231,2.2338,2.2385,2.2385,2.2385,2.2485,2.2659,2.2827,2.3027,2.3265,2.3292,2.346,2.379,2.3964,2.4022,2.4022,2.4182,2.4275,2.4275,2.4102,2.4022,2.4022,2.3884,2.3803,2.3803,2.3647,2.3487,2.3278,2.3193,2.2953,2.2672,2.2672,2.2605,2.2505,2.2298,2.2231,2.2164,2.1609,2.1395,2.1368,0.0,0.653,0.6442,0.6515,0.5639,0.4762,0.4256,0.3561,0.3413,0.4345,0.4295,0.4374,0.4873,0.5174,0.5334,0.5317,0.6137,0.7267,0.8735,1.0872,1.2654,1.3954,1.5513,1.6555,1.6988,1.5834,1.5392,1.5806,1.4568,1.4079,1.4317,1.4259,1.4995,1.6344,1.6786,1.7472,1.8254,1.8443,1.8317,1.7996,1.7702,1.7568,1.7434,1.6901,1.642,1.6109,1.6453,1.6497,1.6654,1.8717,1.9473,1.9616,2.0134,1.9926,1.92,1.7888,1.6996,1.637,1.6176,1.5087,1.4104,1.4473,1.4321,1.4153,1.4489,1.4768,1.5069,1.5515,1.6765,1.7906,1.8221,1.9789,2.1097,2.1336,2.2037,2.2539,2.2539,2.2472,2.2385,2.2385,2.2352,2.2418,2.2746,2.2853,2.3054,2.342,2.3447,2.3607,2.3995,2.4209,2.4329,2.4329,2.4492,2.4599,2.4599,2.4422,2.4329,2.4315,2.4115,2.4008,2.4008,2.3928,2.3728,2.3447,2.3332,2.3193,2.2979,2.2934,2.2893,2.288,2.2619,2.2539,2.2485,2.201,2.1729,2.1555,0.0,0.7374,0.716,0.7734,0.7813,0.7473,0.6539,0.577,0.5801,0.7188,0.6813,0.616,0.5541,0.5777,0.5739,0.5153,0.5962,0.6688,0.7137,0.9123,1.0499,1.1009,1.2377,1.3879,1.5438,1.4468,1.4657,1.6102,1.5067,1.4589,1.4589,1.4589,1.4629,1.4748,1.6285,1.685,1.6648,1.7955,1.8317,1.7996,1.7702,1.7434,1.7179,1.682,1.6166,1.5401,1.5151,1.4704,1.4342,1.5321,1.5838,1.6257,1.7424,1.8196,1.8262,1.6343,1.4443,1.2872,1.2473,1.2939,1.3628,1.4104,1.4589,1.5069,1.5383,1.5667,1.5861,1.5871,1.5946,1.6082,1.6404,1.8128,1.9547,1.9808,2.1565,2.288,2.288,2.2605,2.2385,2.2385,2.2164,2.2111,2.2405,2.2733,2.3148,2.375,2.379,2.4008,2.4546,2.4586,2.4586,2.4586,2.4599,2.4599,2.4599,2.4586,2.4586,2.4586,2.4572,2.4572,2.4559,2.4315,2.4035,2.3777,2.3447,2.3292,2.3252,2.3027,2.2893,2.2893,2.288,2.288,2.284,2.2498,2.2031,2.1582,0.0,0.0,0.809,0.8772,0.8534,0.8484,0.9236,0.8735,0.8592,0.9561,0.8671,0.0,0.0,0.0,0.0,0.0,0.5965,0.6157,0.5676,0.8429,0.982,0.9272,1.1669,1.3241,1.38,1.2735,1.2412,1.2917,1.1727,1.116,1.116,1.116,1.1708,1.2805,1.4269,1.5459,1.6445,1.7671,1.8223,1.8277,1.7608,1.7381,1.7381,1.6698,1.5896,1.5039,0.0,1.394,1.3899,1.485,1.5376,1.5767,1.6521,1.6137,1.5021,1.3391,1.2209,1.1451,1.1689,1.1463,1.1246,1.1534,1.1893,1.2191,1.2278,1.2406,1.2446,1.2446,1.3288,1.4165,1.4599,1.6054,1.7367,1.7848,1.8524,1.9025,1.9113,1.8888,1.863,1.8541,1.8552,1.8541,1.853,2.0985,2.2899,2.375,2.3803,2.4022,2.4572,2.4599,2.4599,2.4599,2.4599,2.4599,2.4599,2.4599,2.4599,2.4599,2.4599,2.4599,2.4599,2.4492,2.4329,2.4048,2.3955,2.3652,2.3278,2.3207,2.3046,2.2893,2.2893,2.2893,2.288,2.2786,2.2472,2.2071,0.0,0.0,0.0,0.9335,0.9438,0.0,0.0,0.0,0.0,0.0,0.0,0.0,0.0,0.0,0.0,0.0,0.0,0.5425,0.4874,0.7041,0.8105,0.7579,0.9772,1.129,1.1913,1.0679,1.034,1.0974,0.9695,0.9117,0.9225,0.9225,0.9788,1.0823,1.23,1.3722,1.5124,1.6431,1.7342,1.7796,1.714,1.6846,1.6727,1.6083,1.5213,0.0,1.3574,1.3233,1.3191,1.3572,1.4073,1.4514,1.4489,1.3539,1.227,1.1298,1.0664,1.0361,1.0928,1.0607,1.0177,1.0553,1.0697,1.0765,1.0765,1.0725,1.0704,1.0649,1.1416,1.2194,1.2489,1.3881,1.5158,1.574,1.647,1.7028,1.7273,1.7062,1.6837,1.6765,1.6736,1.6746,1.672,1.9061,2.0901,2.1629,2.3083,2.3839,2.3548,2.4216,2.4599,2.4599,2.4599,2.4599,2.4599,2.4599,2.4599,2.4599,2.4599,2.4599,2.4599,2.4599,2.4492,2.4356,2.4249,2.3995,2.3585,2.3385,2.3207,2.302,2.2934,2.2893,2.2893,2.2893,2.2773,2.2512,0.0,0.0,0.0,0.0,0.0,0.0,0.0,0.0,0.0,0.0,0.0,0.0,0.0,0.0,0.0,0.0,0.0,0.0,0.4651,0.5163,0.5603,0.594,0.693,0.8244,0.9901,0.8581,0.8664,1.0331,0.9087,0.8594,0.8852,0.8913,0.8948,0.9023,1.0697,1.1961,1.2959,1.4547,1.5781,1.6633,1.6351,1.5896,1.5337,1.5053,1.4223,1.3153,1.2891,1.2559,1.212,1.1572,1.1959,1.2531,1.1456,1.0702,1.0228,1.0166,0.9831,0.958,1.0165,1.0342,1.0492,1.1057,1.1056,1.0914,1.0914,1.0786,1.0656,1.05,1.0376,1.0236,1.0236,1.1635,1.2926,1.3518,1.5256,1.6686,1.7124,1.6939,1.674,1.673,1.6529,1.649,1.6711,1.7017,1.7306,1.7587,2.1595,2.3402,2.1875,2.36,2.4626,2.4639,2.4639,2.4639,2.4639,2.4626,2.4626,2.4626,2.4613,2.4599,2.4599,2.4599,2.4599,2.4586,2.4342,2.4222,2.4155,2.3581,2.3305,2.3265,2.2979,2.2893,2.2893,2.2893,2.2893,2.2853,0.0,0.0,0.0,0.0,0.0,0.0,0.0,0.0,0.0,0.0,0.0,0.0,0.0,0.0,0.0,0.0,0.0,0.0,0.4226,0.5369,0.5806,0.5208,0.7221,0.8617,0.9163,0.8909,0.8981,0.9418,0.8464,0.8024,0.8099,0.9112,0.9571,0.9673,1.2049,1.3223,1.3563,1.5022,1.5798,1.5981,1.5521,1.5227,1.5039,1.4531,1.3854,1.3153,1.2891,1.2036,1.1031,1.0971,1.121,1.1376,1.0456,1.0349,1.0427,0.9812,0.9815,1.0138,1.0365,1.0716,1.1009,1.1159,1.1056,1.0914,1.0914,1.063,1.0351,1.0163,0.9869,0.9641,0.9641,1.0176,1.0769,1.1261,1.2157,1.2876,1.3214,1.3307,1.3278,1.3149,1.321,1.3233,1.3142,1.4747,1.5268,1.3953,1.8895,2.262,2.4131,2.4695,2.5064,2.5239,2.5253,2.5253,2.5253,2.5077,2.497,2.497,2.4706,2.4599,2.4599,2.4599,2.4599,2.4599,2.4519,2.4359,2.4168,2.3808,2.3527,2.3265,2.2979,2.2893,2.2893,2.2893,2.2893,2.288,0.0,0.0,0.0,0.0,0.0,0.0,0.0,0.0,0.0,0.0,0.0,0.0,0.0,0.0,0.0,0.0,0.0,0.0,0.0,0.5219,0.5763,0.5321,0.7391,0.864,0.8773,0.9039,0.9136,0.9008,0.8758,0.863,0.8641,0.9394,0.9835,1.0031,1.1515,1.247,1.3043,1.383,1.4524,0.0,0.0,1.433,1.417,1.3701,1.3233,1.2728,1.2125,1.1023,0.9905,1.0248,1.044,1.0488,1.0268,1.0218,1.0154,0.9875,1.009,1.0446,1.0792,1.1104,1.1295,1.1295,1.1151,1.0975,1.0717,1.0373,1.0028,0.9616,0.9332,0.9144,0.9036,0.9279,0.9673,1.0127,1.0758,1.1341,1.1732,1.1965,1.2091,1.2033,1.2162,1.2223,1.2135,1.4281,1.5212,1.4118,1.8691,2.1843,2.2486,2.4252,2.5344,2.5504,2.5518,2.5518,2.5518,2.5224,2.5115,2.5115,2.4783,2.4599,2.4599,2.4599,2.4599,2.4599,2.4599,2.4506,2.4332,2.4075,2.3781,2.3487,2.318,2.2979,2.2893,2.2893,2.2893,2.2893,0.0,0.0,0.0,0.0,0.0,0.0,0.0,0.0,0.0,1.0872,1.02,0.9276,0.7912,0.7473,0.0,0.0,0.0,0.0,0.0,0.0,0.592,0.6104,0.7706,0.8639,0.878,0.9183,0.9267,0.9032,0.938,0.9554,0.9564,0.9738,0.997,1.0264,1.0412,1.109,1.2134,1.2134,1.2795,1.3848,1.3554,1.33,1.3066,0.0,1.2551,1.2157,1.1053,0.9866,0.8921,0.945,0.9674,0.9839,1.0465,1.0048,0.9444,0.9856,1.011,1.0366,1.0857,1.1226,1.1416,1.1396,1.1295,1.1016,1.0444,1.01,0.9697,0.8994,0.8804,0.8683,0.8438,0.8791,0.926,0.9741,1.0407,1.1103,1.1739,1.1993,1.2193,1.2332,1.2461,1.2542,1.2562,1.4515,1.5718,1.5655,1.9137,2.0665,1.9309,2.2695,2.4842,2.515,2.5189,2.5317,2.5625,2.5344,2.5208,2.513,2.4836,2.4639,2.4599,2.4599,2.4599,2.4599,2.4599,2.4599,2.4572,2.4329,2.4035,2.3777,2.3447,2.314,2.2893,2.2893,2.2893,2.2893,0.0,0.0,0.0,0.0,0.0,0.0,0.0,0.0,0.0,0.0,1.0177,0.936,0.8244,0.8146,0.0,0.0,0.0,0.0,0.0,0.0,0.0,0.7779,0.886,0.9542,0.9677,0.9757,0.9779,0.9727,0.9108,0.8786,0.8815,0.9924,1.0464,1.0574,1.1523,1.2069,1.2258,1.2258,1.2391,1.2612,1.2559,1.2505,1.2452,1.2398,0.0,0.0,1.0474,0.9277,0.8522,0.8664,0.9042,0.9573,1.0168,0.9318,0.8162,0.8346,0.8606,0.8878,0.8981,1.0256,1.1552,1.1423,1.1185,1.0826,1.0385,0.9805,0.9192,0.8662,0.8269,0.7966,0.7936,0.8296,0.8893,0.9686,1.0319,1.1056,1.1904,1.2155,1.2352,1.2584,1.2638,1.2739,1.2907,1.3281,1.3606,1.3686,1.598,1.7962,1.9383,2.0137,2.1461,2.3436,2.3528,2.4373,2.6239,2.5984,2.5717,2.5438,2.5144,2.4877,2.4599,2.4599,2.4599,2.4599,2.4599,2.4599,2.4572,2.4329,2.4035,2.3777,2.3447,2.314,2.2893,2.2893,2.2893,2.2893,0.0,0.0,0.0,0.0,0.0,0.0,0.0,1.1401,1.142,1.1212,1.0916,1.0351,0.9308,0.8848,0.852,0.0,0.0,0.0,0.0,0.0,0.0,0.8118,0.8986,0.9531,0.9587,0.9856,1.0078,1.0263,0.0,0.9997,0.9869,1.0505,1.0881,1.1041,1.1588,1.1833,1.1833,1.1833,1.1931,1.2096,1.2096,1.2467,1.2989,1.2489,0.0,0.0,0.9946,0.891,0.7908,0.8153,0.8703,0.941,1.0097,0.9192,0.7934,0.8122,0.7601,0.7218,0.8322,0.935,1.0293,1.1082,1.105,1.0596,0.99,0.9322,0.8757,0.807,0.7794,0.7651,0.7465,0.8018,0.8648,0.9055,0.9693,1.048,1.1492,1.1764,1.2047,1.2618,1.2868,1.299,1.3105,1.418,1.4423,1.3363,1.5274,1.6918,1.7921,1.9091,2.0238,2.1402,2.1442,2.2499,2.4681,2.4406,2.4687,2.5504,2.5224,2.493,2.4599,2.4599,2.4599,2.4599,2.4599,2.4599,2.4586,2.4452,2.4262,2.3968,2.3674,2.3367,2.3086,2.296,2.2893,2.2893,0.0,0.0,0.0,0.0,0.0,0.0,0.0,1.1193,1.1225,1.1522,1.1561,1.1254,1.0468,0.9659,0.9186,0.0,0.0,0.0,0.0,0.0,0.0,0.0,0.8947,0.9204,0.9027,0.0,0.0,1.0091,1.0535,0.0,0.0,0.0,0.0,0.0,1.1219,1.1219,1.1219,1.1219,1.145,0.0,0.0,1.2632,1.3335,0.0,0.0,0.0,0.0,0.8717,0.7353,0.7804,0.8425,0.9111,0.9774,0.9023,0.7867,0.7621,0.6927,0.6488,0.775,0.8683,0.9625,1.0885,1.0914,1.0405,0.9417,0.89,0.8377,0.7566,0.7441,0.7434,0.7208,0.7767,0.8335,0.8499,0.9083,0.989,1.0962,1.1328,1.1796,1.2591,1.299,1.3227,1.3261,1.487,1.5226,1.3521,1.4946,1.5917,1.5917,1.7547,1.8729,1.9176,1.9176,2.0231,2.2367,2.2663,2.3514,2.4893,2.5076,2.5024,2.4693,2.4626,2.4599,2.4599,2.4599,2.4599,2.4599,2.4599,2.4426,2.4168,2.3888,2.3594,2.3252,2.3014,2.2893,2.2893,0.0,0.0,0.0,0.0,0.0,0.0,0.0,0.953,0.9762,1.1223,1.1428,1.138,1.1286,1.077,1.0436,0.0,0.0,0.0,0.0,0.0,0.0,0.0,0.0,0.0,0.0,0.0,0.0,0.8421,0.8589,0.0,0.0,0.0,0.0,0.0,0.0,1.0667,1.0667,1.0667,0.0,0.0,0.0,0.0,0.0,0.0,0.0,0.0,0.0,0.8764,0.7033,0.7614,0.8065,0.8457,0.8885,0.8396,0.73,0.5679,0.6639,0.791,0.6465,0.8632,1.1295,1.1205,1.0866,1.0308,0.939,0.8743,0.8158,0.7525,0.7272,0.7195,0.7348,0.7437,0.7763,0.856,0.9002,0.9641,1.0765,1.1408,1.1989,1.2618,1.299,1.3268,1.3363,1.3556,1.3604,1.3403,1.3562,1.3687,1.3687,1.3894,1.4904,1.6852,1.6893,1.7955,2.019,2.2104,2.3015,2.3004,2.4662,2.5317,2.5024,2.4756,2.4599,2.4599,2.4599,2.4599,2.4599,2.4599,2.4426,2.4168,2.3888,2.3594,2.3252,2.3014,2.2893,2.2893,0.0,0.0,0.0,0.0,0.0,0.0,0.8416,0.8278,0.8552,0.9851,1.0475,1.0803,1.0791,1.0976,1.0958,1.0642,0.0,0.0,0.0,0.0,0.0,0.0,0.0,0.0,0.0,0.0,0.7674,0.8199,0.8339,0.0,0.0,0.0,0.0,0.0,0.0,1.076,1.06,1.0758,0.0,0.0,0.0,0.0,0.0,0.0,0.0,0.0,0.0,0.0,0.7647,0.7444,0.755,0.7797,0.8045,0.8135,0.791,0.6737,0.6321,0.636,0.71,0.8434,0.9847,1.0775,1.0596,0.9981,0.9205,0.856,0.7939,0.733,0.7161,0.7112,0.7195,0.7312,0.7566,0.8085,0.8269,0.8764,0.994,1.0468,1.1117,1.2203,1.2671,1.3037,1.337,1.3403,1.3403,1.3403,1.3403,1.3403,1.3403,1.3403,1.3811,1.4664,1.4657,1.572,1.7874,1.876,1.9705,2.0795,2.2689,2.3411,2.314,2.4162,2.4599,2.4599,2.4599,2.4599,2.4599,2.4599,2.4532,2.4422,2.3991,2.3736,2.3541,2.3081,2.2893,2.2893,0.0,0.0,0.0,0.0,0.0,0.7759,0.7944,0.7739,0.7897,0.8838,0.9684,1.0227,1.0302,1.0818,1.1035,1.0747,1.064,0.0,0.0,0.0,0.0,0.0,0.0,0.0,0.0,0.0,0.6879,0.7483,0.7691,0.7888,0.0,0.0,0.9552,0.9532,0.0,0.0,0.0,0.0,0.0,0.0,0.0,0.0,0.0,0.0,0.0,0.0,0.0,0.0,0.0,0.0,0.0,0.7258,0.7366,0.7746,0.804,0.7296,0.6728,0.661,0.7824,0.8639,0.9411,1.0556,1.0393,0.9758,0.9014,0.8378,0.779,0.7213,0.7098,0.7098,0.7098,0.7265,0.7478,0.7706,0.7896,0.8384,0.9456,0.9947,1.0637,1.1796,1.2284,1.2712,1.3159,1.3322,1.3403,1.3403,1.3403,1.3403,1.3403,1.3403,1.3403,1.3403,1.3403,1.4135,1.5638,1.6278,1.7304,1.8652,2.0523,2.1267,2.1088,2.2292,2.3153,2.3685,2.3079,2.35,2.4562,2.3957,2.4068,2.4546,2.4088,2.3884,2.375,2.3228,2.2974,2.2893,0.0,0.0,0.0,0.0,0.0,0.0,0.8509,0.8089,0.7927,0.8535,0.9254,0.98,1.0077,1.041,1.072,1.0969,1.076,0.0,0.0,0.0,0.0,0.0,0.0,0.0,0.0,0.0,0.5818,0.5818,0.6161,0.6661,0.7335,0.8336,0.9059,0.9532,0.0,0.0,0.0,0.0,0.0,0.0,0.0,0.0,1.3619,0.0,0.0,0.0,0.0,0.0,0.0,0.0,0.0,0.0,0.0,0.7143,0.7255,0.6529,0.8171,0.9895,0.8237,0.9438,1.109,1.0799,1.0238,0.9595,0.8886,0.8248,0.7661,0.7186,0.7098,0.7098,0.7098,0.7265,0.7444,0.7577,0.8092,0.8743,0.9503,1.0211,1.0907,1.1516,1.1884,1.2244,1.2652,1.3139,1.3403,1.3403,1.3403,1.3403,1.3403,1.3403,1.3403,1.3403,1.3403,1.3403,1.3438,1.5555,1.6606,1.6639,1.8411,1.924,1.9219,1.8813,1.9741,2.1527,1.9516,2.0916,2.4451,2.2434,2.2806,2.4572,2.4315,2.4022,2.3763,2.3434,2.3126,2.2893,0.0,0.0,0.0,0.0,0.0,0.0,0.0,0.7163,0.7139,0.7648,0.8434,0.9052,0.9313,0.9891,1.0367,1.0707,1.064,0.0,0.0,0.0,0.0,0.0,0.0,0.0,0.0,0.5975,0.5854,0.5937,0.628,0.6589,0.6918,0.8525,0.9259,0.9285,1.0657,1.1129,0.0,0.0,0.0,0.0,1.2225,1.2475,1.2728,0.0,0.0,0.0,0.0,0.0,0.0,0.0,0.0,0.0,0.0,0.0,0.0,0.703,0.8007,0.9017,0.883,0.9362,0.9927,0.973,0.9429,0.9048,0.8533,0.8099,0.7661,0.7186,0.7098,0.7098,0.7098,0.7161,0.74,0.7995,0.824,0.8662,0.949,1.0161,1.0826,1.1538,1.242,1.303,1.3173,1.3315,1.3403,1.3403,1.3403,1.3403,1.3403,1.3403,1.3403,1.3403,1.3403,1.3403,1.3403,1.4052,1.4417,1.4417,1.6195,1.6998,1.7059,1.8124,1.895,1.9516,1.8874,2.008,2.2397,2.0391,2.0729,2.2373,2.068,1.9907,1.9879,2.0864,2.1139,2.117,0.0,0.0,0.0,0.0,0.0,0.0,0.0,0.7139,0.7112,0.7151,0.7834,0.8484,0.8888,0.9551,1.0114,1.0559,1.0602,0.0,0.0,0.0,0.0,0.0,0.0,0.0,0.6805,0.6458,0.623,0.6118,0.6375,0.6573,0.6736,0.829,0.8832,0.8609,1.0328,1.091,0.0,0.0,0.0,0.0,1.2305,1.2305,1.2305,0.0,0.0,0.0,0.0,0.0,0.0,0.0,0.0,0.0,0.0,0.0,0.0,0.0,0.7489,0.8045,0.8743,0.9117,0.9288,0.9138,0.892,0.8635,0.8275,0.7902,0.755,0.7188,0.7098,0.7098,0.7098,0.7215,0.7445,0.7968,0.8233,0.8648,0.9415,1.0039,1.0731,1.1599,1.2556,1.3146,1.3146,1.3302,1.3403,1.3403,1.3403,1.3403,1.3403,1.3403,1.3403,1.3403,1.3403,1.3403,1.3403,1.3403,1.3403,1.3397,1.4411,1.4883,1.4907,1.5863,1.6713,1.7398,1.6637,1.7891,0.0,1.827,1.8648,2.0332,1.887,1.8154,1.8069,1.9047,1.9282,1.9271,0.0,0.0,0.0,0.0,0.0,0.0,0.0,0.789,0.7737,0.7119,0.7569,0.8175,0.8743,0.9296,0.9904,1.0557,1.058,0.0,0.0,0.0,0.0,0.0,0.0,0.0,0.7018,0.7066,0.6848,0.63,0.6443,0.6607,0.677,0.7775,0.8031,0.7733,0.9663,1.0299,0.0,0.0,0.0,0.0,1.2305,1.2305,0.0,0.0,0.0,0.0,0.0,0.0,0.0,0.0,0.0,0.0,0.0,0.0,0.0,0.0,0.0,0.0,0.0,0.8702,0.9009,0.8818,0.8608,0.833,0.8027,0.7672,0.0,0.7148,0.7098,0.7105,0.7139,0.7384,0.7611,0.7699,0.8174,0.877,0.939,1.0029,1.0778,1.1753,1.2381,1.274,1.274,1.3152,1.3403,1.3403,1.3403,1.3403,1.3403,1.3403,1.3403,1.3403,1.3403,1.3403,1.3403,1.3403,1.3403,1.3397,1.3146,1.3003,1.2989,1.2644,1.3529,1.5195,1.3298,1.4744,1.8232,1.6151,1.6523,1.8383,1.8232,1.798,1.7689,1.7703,1.752,1.7291,0.0,0.0,0.0,0.0,0.0,0.0,0.0,0.0,0.0,0.0,0.8497,0.8642,0.8785,0.8923,0.9508,0.0,0.0,0.0,0.0,0.0,0.0,0.0,0.0,0.0,0.7759,0.7328,0.6848,0.63,0.6634,0.6953,0.7255,0.8263,0.8552,0.8259,0.9182,0.9857,0.0,0.0,0.0,0.0,1.2305,1.2305,0.0,0.0,0.0,0.0,1.0919,1.0821,0.0,0.0,0.0,0.0,0.0,0.0,0.0,0.0,0.6573,0.6682,0.7021,0.0,0.758,0.7523,0.7597,0.7641,0.0,0.7471,0.7348,0.7148,0.7098,0.72,0.7567,0.7529,0.775,0.8668,0.8934,0.9274,1.0002,1.1009,1.1941,1.2649,1.3017,1.3241,1.3241,1.3342,1.3403,1.3403,1.3403,1.3403,1.3403,1.3403,1.3403,1.3403,1.3403,1.3403,1.3403,1.3403,1.3403,1.3397,1.3146,1.3003,1.2989,1.2644,1.2765,1.319,1.2695,1.3907,1.6066,1.4022,1.4406,1.6066,1.4514,1.3808,1.3816,1.5256,1.558,1.5569,0.0,0.0,0.0,0.0,0.0,0.0,0.0,0.0,0.0,0.0,0.8791,0.8791,0.8791,0.8911,0.0,0.0,0.0,0.0,0.0,0.0,0.0,0.0,0.0,0.9343,0.8118,0.7831,0.7257,0.6395,0.6668,0.7014,0.7419,0.7855,0.8185,0.8442,0.9508,1.0466,0.0,0.0,0.0,1.1558,1.1112,0.0,0.0,0.0,0.0,0.0,0.9856,0.9889,0.0,0.9068,0.8746,0.8535,0.0,0.0,0.0,0.0,0.6416,0.6429,0.6498,0.6919,0.733,0.733,0.7461,0.7577,0.7577,0.7414,0.7244,0.7112,0.7175,0.7319,0.7563,0.7729,0.8042,0.8757,0.9104,0.9621,1.058,1.1574,1.2404,1.2935,1.322,1.3403,1.3403,1.3403,1.3403,1.3403,1.3403,1.3403,1.3403,1.3403,1.3403,1.3403,1.3403,1.3403,1.3403,1.3403,1.3403,1.3397,1.3146,1.3003,1.2989,1.2644,1.2501,1.2501,1.2501,1.3112,1.4022,1.2958,1.3151,1.4022,1.2919,1.2454,1.2494,1.3475,1.3693,1.3639,0.0,0.0,0.0,0.0,0.0,0.0,0.0,0.0,0.0,0.0,0.0,0.0,0.0,0.0,0.0,0.0,0.0,0.0,0.0,0.0,0.0,0.0,1.0602,0.9863,0.8273,0.8349,0.7777,0.6491,0.6668,0.6973,0.7389,0.7263,0.7614,0.8421,1.0112,1.1292,1.1949,1.1143,1.0802,1.0708,0.9707,0.0,0.0,0.0,0.0,0.0,0.0,0.0,0.0,0.8258,0.8037,0.7834,0.7095,0.0,0.0,0.0,0.0,0.0,0.6107,0.6656,0.7298,0.7446,0.7638,0.778,0.778,0.7459,0.7166,0.7166,0.7312,0.7457,0.7546,0.7981,0.841,0.8668,0.9211,1.0005,1.1145,1.1877,1.2481,1.2948,1.322,1.3403,1.3403,1.3403,1.3403,1.3403,1.3403,1.3403,1.3403,1.3403,1.3403,1.3403,1.3403,1.3403,1.3403,1.3403,1.3403,1.3397,1.3146,1.3003,1.2989,1.2644,1.2501,1.2501,1.2501,1.2501,1.2501,1.2501,1.2501,1.2501,1.2501,1.2501,1.2488,1.2366,1.2268,1.2104,0.0,0.0,0.0,0.0,0.0,0.0,0.0,0.0,0.0,0.0,0.0,0.0,0.0,0.0,0.0,0.0,0.0,0.0,0.0,0.0,0.0,1.0602,1.0602,0.9901,0.8396,0.8383,0.7777,0.6491,0.685,0.7154,0.7396,0.7604,0.783,0.8143,1.0218,1.0983,1.0695,1.0763,1.0802,1.0708,0.9707,0.0,0.0,0.0,0.0,0.0,0.0,0.0,0.0,0.763,0.7711,0.781,0.7669,0.0,0.0,0.0,0.0,0.0,0.5189,0.533,0.5931,0.6795,0.731,0.7631,0.7631,0.7577,0.7529,0.7529,0.755,0.7719,0.8247,0.841,0.8703,0.949,1.0197,1.0914,1.1597,1.2155,1.2589,1.2962,1.322,1.3403,1.3403,1.3403,1.3403,1.3403,1.3403,1.3403,1.3403,1.3403,1.3403,1.3403,1.3403,1.3403,1.3403,1.3403,1.3403,1.3397,1.3146,1.3003,1.2989,1.2644,1.2501,1.2501,1.2501,1.2501,1.2501,1.2501,1.2501,1.2501,1.2501,1.2501,1.2501,1.2474,1.2379,1.2216,0.0,0.0,0.0,0.0,0.0,0.0,0.0,0.0,0.0,0.0,0.0,0.0,0.0,0.0,0.0,0.0,0.0,0.0,0.0,0.0,1.0448,1.0134,1.0113,0.9581,0.8421,0.819,0.7624,0.6715,0.7088,0.738,0.7627,0.8636,0.8965,0.8798,1.0877,1.1273,1.0383,1.0103,0.9688,0.9102,0.0,0.0,0.0,0.0,0.0,0.0,0.0,0.0,0.0,0.0,0.692,0.7003,0.7067,0.0,0.0,0.0,0.0,0.0,0.4839,0.463,0.4629,0.5018,0.5388,0.5885,0.6802,0.6861,0.6984,0.7897,0.814,0.8282,0.8554,0.8872,0.9388,1.0251,1.0894,1.1428,1.1898,1.2345,1.2705,1.2975,1.322,1.3403,1.3403,1.3403,1.3403,1.3403,1.3403,1.3403,1.3403,1.3403,1.3403,1.3403,1.3403,1.3403,1.3403,1.3315,1.3275,1.3275,1.3105,1.2955,1.2827,1.2603,1.2501,1.2501,1.2501,1.2501,1.2501,1.2501,1.2501,1.2501,1.2501,1.2501,1.2494,1.2413,1.2345,1.2244,0.0,0.0,0.0,0.0,0.0,0.0,0.0,0.0,0.0,0.0,0.0,0.0,0.0,0.0,0.0,0.0,0.0,0.0,0.0,1.0391,1.0146,0.9673,0.9365,0.8936,0.8374,0.8011,0.7568,0.7012,0.7299,0.7566,0.7777,0.9235,0.9543,0.8989,1.1099,1.1408,1.0301,0.984,0.9216,0.8418,0.0,0.0,0.0,0.0,0.0,0.0,0.0,0.0,0.0,0.0,0.0,0.0,0.0,0.0,0.0,0.6256,0.5531,0.4648,0.4386,0.3818,0.3196,0.2848,0.34,0.4364,0.564,0.5715,0.5882,0.7179,0.7874,0.8234,0.8272,0.9143,1.0096,1.0887,1.1394,1.1816,1.2118,1.2501,1.2827,1.2989,1.322,1.3403,1.3403,1.3403,1.3403,1.3403,1.3403,1.3403,1.3403,1.3403,1.3403,1.3403,1.3403,1.3383,1.3349,1.3227,1.3214,1.3214,1.303,1.2847,1.2686,1.2569,1.2501,1.2501,1.2501,1.2501,1.2501,1.2501,1.2501,1.2501,1.2501,1.2501,1.2488,1.2379,1.2318,1.2257,0.0,0.0,0.0,0.0,0.0,0.0,0.0,0.0,0.0,0.0,0.0,0.0,0.0,0.0,0.0,0.0,0.0,0.0,0.0,0.9786,0.9554,0.9517,0.838,0.7894,0.8196,0.8061,0.7777,0.7362,0.7502,0.7597,0.7634,0.8558,0.8539,0.7814,1.0228,1.0853,1.0142,1.0528,1.0652,1.0503,0.948,0.0,0.0,0.0,0.0,0.0,0.0,0.0,0.0,0.0,0.0,0.0,0.0,0.0,0.5032,0.6009,0.5531,0.4476,0.3486,0.2508,0.151,0.0498,0.2247,0.4172,0.4192,0.4172,0.4186,0.43,0.5681,0.6875,0.701,0.8998,1.0765,1.128,1.1771,1.2125,1.225,1.2703,1.2989,1.3003,1.322,1.3403,1.3403,1.3403,1.3403,1.3403,1.3403,1.3403,1.3403,1.3403,1.3403,1.3403,1.3403,1.3336,1.3234,1.322,1.3214,1.3207,1.2881,1.2699,1.2686,1.2569,1.2501,1.2501,1.2501,1.2501,1.2501,1.2501,1.2501,1.2501,1.2501,1.2501,1.2501,1.2488,1.2406,1.2284,0.0,0.0,0.0,0.0,0.0,0.0,0.0,0.0,0.0,0.0,0.0,0.0,0.0,0.0,0.0,0.0,0.0,0.0,1.0085,0.965,0.9253,0.8949,0.8077,0.7545,0.7396,0.7541,0.7645,0.7645,0.7699,0.7685,0.7614,0.8269,0.828,0.7791,0.9327,0.9742,0.9314,0.9699,0.9876,0.9838,0.9442,0.9248,0.0,0.0,0.0,0.0,0.0,0.0,0.0,0.0,0.5509,0.5298,0.5207,0.4955,0.4647,0.4394,0.3577,0.2675,0.2286,0.1402,0.0511,0.0099,0.0813,0.184,0.2828,0.3067,0.3351,0.4346,0.5104,0.5623,0.5753,0.7652,0.9354,0.977,1.1121,1.2186,1.2386,1.2651,1.282,1.282,1.3003,1.3159,1.3247,1.3302,1.3302,1.3397,1.3403,1.3403,1.3403,1.3403,1.3403,1.3403,1.3308,1.3227,1.3214,1.299,1.2895,1.2895,1.2747,1.2638,1.2583,1.2528,1.2501,1.2424,1.1134,1.0585,1.0585,1.0585,1.0585,1.0701,1.1992,1.2501,1.2501,1.2501,1.2467,1.2406,0.0,0.0,0.0,0.0,0.0,0.0,0.0,0.0,0.0,0.0,0.0,0.0,0.0,0.0,0.0,0.0,0.0,0.0,0.9967,0.9237,0.8699,0.8476,0.7647,0.7063,0.6776,0.7122,0.7448,0.7746,0.7746,0.7645,0.7448,0.7781,0.7736,0.7442,0.8438,0.8742,0.8523,0.9019,0.9437,0.9771,0.9726,0.9863,0.0,0.0,0.0,0.0,0.0,0.0,0.0,0.0,0.544,0.5152,0.4657,0.4322,0.4005,0.3313,0.2391,0.1602,0.1602,0.0819,0.0,0.0,0.0,0.0288,0.1441,0.1701,0.1847,0.2376,0.3417,0.4392,0.5088,0.6415,0.7566,0.7873,0.9769,1.1258,1.149,1.22,1.2693,1.2693,1.2868,1.3043,1.3139,1.3146,1.3193,1.3254,1.3261,1.3261,1.3261,1.3261,1.3261,1.3261,1.3159,1.3125,1.303,1.2794,1.2665,1.2657,1.2657,1.2603,1.2463,1.1837,1.1521,1.1405,0.9338,0.8439,0.8439,0.8439,0.8789,0.9609,1.1682,1.2501,1.2501,1.2501,1.2501,1.2488,0.0,0.0,0.0,0.0,0.0,0.0,0.0,0.0,0.0,0.0,0.0,0.0,0.0,0.0,0.0,0.0,0.0,0.0,0.9659,0.8434,0.7854,0.8172,0.6974,0.6361,0.6484,0.6884,0.7263,0.7597,0.7597,0.7418,0.7092,0.6972,0.6763,0.6551,0.7533,0.7908,0.7846,0.8726,0.9742,1.076,1.0652,1.1259,1.2023,0.0,0.0,0.0,0.0,0.0,0.0,0.0,0.4885,0.4064,0.4391,0.3749,0.292,0.3044,0.2364,0.1593,0.1593,0.0805,0.0,0.0,0.0,0.0,-0.0032,0.0,-0.0514,-0.2306,0.0171,0.3235,0.5014,0.5469,0.5603,0.575,0.7703,0.9206,0.9395,1.1288,1.2686,1.2686,1.2861,1.2996,1.3003,1.3003,1.3003,1.3003,1.3003,1.3003,1.3003,1.3003,1.3003,1.3003,1.3003,1.2888,1.2693,1.2686,1.2611,1.2501,1.2501,1.2501,1.2424,1.0352,0.9415,0.9294,0.7189,0.6254,0.6254,0.6293,0.754,0.9648,1.1721,1.2501,1.2501,1.2501,1.2501,1.2501,0.0,0.0,0.0,0.0,0.0,0.0,0.0,0.0,0.0,0.0,0.0,0.0,0.0,0.0,0.0,0.0,0.0,0.0,0.8805,0.8008,0.7477,0.7299,0.6528,0.6099,0.614,0.658,0.7027,0.7464,0.7464,0.7285,0.6943,0.6816,0.6661,0.6511,0.6811,0.7269,0.7808,0.7929,0.8663,0.9723,0.96,0.979,1.0066,0.0,0.0,0.0,0.0,0.0,0.0,0.0,0.0,0.0,0.3632,0.3082,0.263,0.1316,0.0717,0.0472,0.0464,0.0231,0.0,0.0,0.0,-0.0345,-0.1621,-0.092,-0.0168,-0.0674,0.0071,0.0955,0.149,0.2759,0.3742,0.3879,0.5629,0.7514,0.9162,0.9952,1.0915,1.2375,1.261,1.2678,1.2786,1.28,1.284,1.2989,1.3003,1.3003,1.3003,1.3003,1.3003,1.3003,1.2854,1.2779,1.2693,1.2623,1.2549,1.2501,1.2501,1.2501,1.2424,1.0352,0.9415,0.9216,0.5588,0.4068,0.4185,0.5669,0.84,1.1637,1.2263,1.2501,1.2501,1.2501,1.2501,1.2501,0.0,0.0,0.0,0.0,0.0,0.0,0.0,0.0,0.0,0.0,0.8791,0.8791,0.0,0.0,0.0,0.8951,0.9111,0.0,0.9083,0.8089,0.7474,0.7418,0.6452,0.6005,0.62,0.6573,0.6865,0.7035,0.7158,0.7041,0.6749,0.6816,0.6763,0.6586,0.6681,0.6932,0.7278,0.7106,0.7401,0.7991,0.7904,0.7948,0.7988,0.0,0.0,0.0,0.0,0.0,0.0,0.0,0.0,0.0,0.3295,0.2749,0.2441,0.0553,0.0,0.0,0.0,0.0,0.0,0.0,0.0,-0.0293,-0.1384,-0.1335,-0.0871,-0.0145,0.0,0.0,0.0,0.0953,0.178,0.1841,0.3555,0.531,0.6711,0.8356,0.9881,1.1134,1.1992,1.2535,1.2591,1.2637,1.2678,1.2773,1.2819,1.2819,1.2819,1.2819,1.2819,1.2819,1.2691,1.2637,1.2637,1.2549,1.2501,1.2501,1.2501,1.2501,1.2385,0.9493,0.8167,0.7933,0.3716,0.2349,0.3247,0.5396,0.8283,1.1366,1.2185,1.2501,1.2501,1.2501,1.2501,1.2501,0.0,0.0,0.8791,0.8791,0.0,0.0,0.0,0.0,0.0,0.8791,0.8791,0.8791,0.0,0.0,0.0,0.9137,0.9108,0.9288,0.9793,0.8292,0.7554,0.7943,0.6606,0.6062,0.6505,0.6736,0.6736,0.6491,0.6763,0.6756,0.6498,0.6884,0.6938,0.6715,0.6958,0.6837,0.6464,0.6327,0.6099,0.5863,0.5838,0.5861,0.579,0.4688,0.0,0.0,0.0,0.0,0.0,0.0,0.0,0.0,0.3297,0.2718,0.2348,0.0532,0.0,0.0,0.0,0.0,0.0,0.0,0.0,0.0,0.0,-0.1288,-0.1974,-0.0328,0.0,0.0,0.0,0.0,0.0,0.0,0.1594,0.2897,0.3091,0.6562,0.9177,0.9371,1.125,1.2501,1.2501,1.2501,1.2501,1.2501,1.2501,1.2501,1.2501,1.2501,1.2501,1.2501,1.2501,1.2501,1.2501,1.2501,1.2501,1.2501,1.2501,1.2501,1.2385,0.84,0.6488,0.6101,0.2233,0.1764,0.3834,0.5786,0.7812,0.9881,1.176,1.2501,1.2501,1.2501,1.2501,1.2501,0.0,0.0,0.8791,0.8791,0.0,0.0,0.0,0.0,0.8791,0.8791,0.8791,0.8791,0.8791,0.8791,0.0,0.8885,0.8456,0.8052,0.7753,0.6948,0.6391,0.6171,0.6177,0.6335,0.6647,0.6512,0.6443,0.6491,0.6661,0.6654,0.6498,0.6695,0.6763,0.6702,0.677,0.6614,0.6327,0.6035,0.5486,0.4804,0.4661,0.426,0.3721,0.336,0.3355,0.0,0.0,0.0,0.0,0.0,0.0,0.0,0.3426,0.2794,0.2347,0.0534,0.0,0.0,0.0,0.0,0.0,0.0,0.0,0.0,0.0,-0.0291,-0.0473,-0.0073,0.0,0.0,0.0,0.0,0.0,0.0,0.0389,0.1254,0.2858,0.5318,0.7583,0.9216,1.125,1.2501,1.2501,1.2501,1.2501,1.2501,1.2501,1.2501,1.2501,1.2501,1.2501,1.2501,1.2501,1.2501,1.2501,1.2501,1.2501,1.2501,1.2501,1.2501,1.2424,0.9881,0.7855,0.6254,0.536,0.6137,0.8084,0.8555,0.9959,1.1876,1.2347,1.2501,1.2501,1.2501,1.2501,1.2501,0.0,0.0,0.0,0.0,0.0,0.0,0.0,0.0,0.8938,0.8818,0.8791,0.8791,0.8791,0.8791,0.0,0.0,0.8713,0.8343,0.7944,0.7229,0.6489,0.573,0.6076,0.6314,0.6356,0.6321,0.628,0.6261,0.6342,0.6451,0.6607,0.6906,0.7042,0.7042,0.7042,0.6797,0.6388,0.6137,0.5359,0.425,0.4215,0.3674,0.2894,0.2764,0.3002,0.347,0.3794,0.0,0.0,0.0,0.0,0.0,0.0,0.0,0.176,0.04,0.0,0.0,0.0,0.0,0.0,0.0,0.0,0.0,0.0,0.0,0.0,0.0,0.0,0.0,0.0,0.0,0.0,0.0,0.0,0.0389,0.1477,0.4327,0.6683,0.7777,1.0624,1.2501,1.2501,1.2501,1.2501,1.2501,1.2501,1.2501,1.2501,1.2501,1.2501,1.2501,1.2501,1.2501,1.2501,1.2501,1.2501,1.2501,1.2501,1.2501,1.2424,1.0352,0.8283,0.6293,0.6293,0.7466,0.9415,0.9415,1.0624,1.2501,1.2501,1.2501,1.2501,1.2501,1.2501,1.2501,0.0,0.0,0.0,0.0,0.0,0.0,0.0,0.0,0.0,0.8659,0.8619,0.8566,0.8434,0.8421,0.851,0.0,0.0,0.0,0.83,0.7566,0.6728,0.5833,0.609,0.6192,0.6052,0.6165,0.6069,0.5783,0.5757,0.5898,0.6172,0.695,0.7342,0.7389,0.7342,0.6995,0.6443,0.6293,0.5359,0.4005,0.4097,0.3537,0.2656,0.2511,0.2967,0.3685,0.3598,0.3656,0.3782,0.3803,0.0,0.0,0.0,0.0,0.1363,0.0491,0.022,0.0193,0.0049,0.0,0.0,0.0,0.0,0.0,0.0,0.0,0.0,0.0,0.0,0.0,0.0,0.0,0.0,0.0,0.0,0.0,0.0,0.3639,0.6315,0.6315,0.9987,1.2501,1.2501,1.2501,1.2501,1.2501,1.2501,1.2347,1.1992,1.1953,1.1953,1.1953,1.1953,1.2147,1.2501,1.2501,1.2501,1.2501,1.2501,1.2501,1.2424,1.0701,0.8983,0.7388,0.7388,0.8361,0.992,0.992,1.0934,1.2501,1.2501,1.2501,1.2501,1.2501,1.2501,1.2501,0.0,0.0,0.0,0.0,0.0,0.0,0.0,0.0,0.0,0.0,0.7849,0.7597,0.6966,0.6899,0.6909,0.6941,0.6519,0.623,0.6197,0.0,0.0,0.5804,0.5951,0.6112,0.6265,0.6008,0.555,0.4878,0.4758,0.4459,0.4057,0.6046,0.7122,0.7382,0.7102,0.6729,0.6306,0.6001,0.5144,0.4,0.3897,0.3315,0.251,0.2315,0.2321,0.2459,0.2617,0.2765,0.2885,0.3002,0.2963,0.0,0.0,0.0,0.2324,0.1397,0.1123,0.0967,0.0197,0.0,0.0,0.0,0.0,0.0,0.0,0.0,0.0,0.0,0.0,0.0,0.0,0.0,0.0,0.0,0.0,0.0,0.0,0.3631,0.6312,0.6312,0.9976,1.2501,1.2501,1.2501,1.2501,1.2501,1.2501,1.1721,0.992,0.9804,0.9804,0.9804,0.9804,1.0663,1.2463,1.2501,1.2501,1.2501,1.2501,1.2501,1.2501,1.2231,1.1914,1.1676,1.1676,1.1837,1.2069,1.2069,1.2263,1.2501,1.2501,1.2501,1.2501,1.2501,1.2501,1.2501,0.0,0.0,0.0,0.0,0.0,0.0,0.0,0.0,0.0,0.0,0.0,0.6966,0.6629,0.6602,0.6602,0.6602,0.638,0.6122,0.5825,0.5446,0.5332,0.5566,0.5698,0.5813,0.5899,0.5247,0.4752,0.4428,0.3876,0.3596,0.3615,0.4605,0.5209,0.5514,0.6058,0.6006,0.5496,0.5084,0.485,0.4776,0.4604,0.4499,0.4389,0.3815,0.3977,0.4381,0.3441,0.2934,0.2626,0.2155,0.1688,0.1359,0.1856,0.0,0.0,0.0,0.1718,0.1118,0.0235,0.0,0.0,0.0,0.0,0.0,0.0,0.0,0.0,0.0,0.0,0.0,0.0,0.0,0.0,0.0,0.0,0.0,0.0,0.2607,0.4905,0.6005,0.8865,1.1178,1.2264,1.2454,1.2501,1.2501,1.1405,1.0352,0.9454,0.8283,0.8205,0.9371,0.9415,1.0391,1.2463,1.2501,1.2501,1.2501,1.2501,1.2501,1.2501,1.2501,1.2501,1.2501,1.2501,1.2501,1.2501,1.2501,1.2501,1.2501,1.2501,1.2501,1.2501,1.2501,1.2501,1.2501,0.0,0.0,0.0,0.0,0.0,0.0,0.0,0.0,0.0,0.0,0.0,0.6263,0.6086,0.0,0.0,0.0,0.6073,0.5908,0.5545,0.5229,0.5126,0.5314,0.5464,0.5443,0.5203,0.4506,0.3918,0.3468,0.2803,0.2557,0.2692,0.308,0.3161,0.3051,0.457,0.5162,0.4993,0.4429,0.4759,0.5576,0.4994,0.5258,0.5858,0.4569,0.4808,0.5588,0.3652,0.2669,0.2163,0.1265,0.0677,0.0485,0.1371,0.1805,0.0,0.0,0.0,0.1115,0.0243,0.0,0.0,0.0,0.0,0.0,0.0,0.0,0.0,0.0,0.0,0.0,0.0,0.0,0.0,0.0,0.0,0.0,0.0,0.1793,0.3644,0.5104,0.7238,0.9162,1.062,1.132,1.1453,1.0954,0.9932,0.8905,0.7855,0.6322,0.6449,0.8555,0.8594,0.9881,1.2463,1.2501,1.2501,1.2501,1.2501,1.2501,1.2501,1.2501,1.2501,1.2501,1.2501,1.2501,1.2501,1.2501,1.2501,1.2501,1.2501,1.2501,1.2501,1.2501,1.2501,1.2501,0.0,0.0,0.0,0.0,0.0,0.0,0.0,0.0,0.0,0.0,0.0,0.5314,0.4677,0.4615,0.4615,0.4615,0.4615,0.465,0.4753,0.4858,0.0,0.0,0.5307,0.0,0.4106,0.404,0.3161,0.1453,0.1397,0.0964,0.0214,0.1621,0.1528,0.0314,0.266,0.4333,0.5314,0.4526,0.5004,0.6123,0.4514,0.4726,0.5727,0.3265,0.3272,0.43,0.2043,0.1208,0.1066,0.0311,0.059,0.1399,0.2339,0.3192,0.3877,0.0,0.0,0.0,0.0239,0.0,0.0,0.0,0.0,0.0,0.0,0.0,0.0,0.0,0.0,0.0,0.0,0.0,0.0,0.0,0.0,0.0,0.0,0.1806,0.3154,0.3226,0.517,0.6488,0.66,0.8295,0.86,0.6758,0.8237,0.7527,0.3619,0.3306,0.4263,0.641,0.6449,0.84,1.2463,1.2501,1.2501,1.2501,1.2501,1.2501,1.2501,1.2501,1.2501,1.2501,1.2501,1.2501,1.2501,1.2501,1.2501,1.2501,1.2501,1.2501,1.2501,1.2501,1.2501,1.2501,0.0,0.0,0.0,0.0,0.0,0.0,0.0,0.0,0.0,0.0,0.0,0.0,0.0,0.4343,0.462,0.462,0.462,0.4621,0.4573,0.4863,0.0,0.0,0.5246,0.4954,0.4018,0.3447,0.2544,0.1292,0.0736,0.0308,0.0023,0.0551,0.0505,0.0077,0.1884,0.2808,0.2922,0.2509,0.2987,0.3932,0.325,0.3488,0.4118,0.2717,0.2914,0.3677,0.1779,0.1157,0.1094,0.0268,0.02,0.0727,0.2218,0.2847,0.3143,0.3711,0.3084,0.1991,0.1086,0.0422,0.0,0.0,0.0,0.0,0.0,0.0,0.0,0.0,0.0,0.0,0.0,0.0,0.0,0.0,0.0,0.0,0.0,0.0659,0.1577,0.2819,0.3738,0.4731,0.5995,0.6862,0.7044,0.6368,0.6808,0.6546,0.5222,0.5012,0.5971,0.8201,0.8283,0.9648,1.2463,1.2501,1.2501,1.2501,1.2501,1.2501,1.2501,1.2501,1.2501,1.2501,1.2501,1.2501,1.2501,1.2501,1.2501,1.2501,1.2501,1.2501,1.2501,1.2501,1.2501,1.2501,0.0,0.0,0.0,0.7977,0.0,0.689,0.663,0.5823,0.4962,0.4224,0.0,0.0,0.0,0.0,0.4452,0.4739,0.4769,0.4721,0.4634,0.4657,0.0,0.0,0.4505,0.4051,0.3113,0.2535,0.1774,0.0863,0.0279,0.0,0.0,0.0,0.0,0.0048,0.1031,0.1584,0.1787,0.1436,0.195,0.2951,0.2344,0.2615,0.3263,0.196,0.2152,0.2925,0.1304,0.0799,0.0781,0.0205,0.0196,0.0705,0.2218,0.3052,0.3534,0.3799,0.3546,0.2921,0.1648,0.0924,0.0451,0.0078,0.0,0.0,0.0,0.0,0.0,0.0,0.0,0.0,0.0,0.0,0.0,0.0,0.0,0.0,0.0,0.0,0.0474,0.1784,0.2016,0.2579,0.3864,0.4707,0.4877,0.4248,0.527,0.5725,0.5264,0.5708,0.7061,0.9333,1.0075,1.1095,1.2501,1.2501,1.2501,1.2501,1.2501,1.2501,1.2501,1.2501,1.2501,1.2501,1.2501,1.2501,1.2501,1.2501,1.2501,1.2501,1.2501,1.2501,1.2501,1.2501,1.2501,1.2501,0.769,0.7497,0.7407,0.7155,0.7076,0.6806,0.6093,0.5268,0.4458,0.3712,0.0,0.0,0.0,0.0,0.0,0.4785,0.4862,0.487,0.4864,0.4202,0.3802,0.3765,0.3082,0.2262,0.1326,0.1292,0.0881,0.0,0.0,0.0,0.0,0.0,0.0,0.0,0.0,0.0796,0.2093,0.1504,0.2135,0.3367,0.1859,0.2168,0.3229,0.0905,0.0898,0.1955,0.0518,0.0,0.0,0.0,0.0559,0.1439,0.2402,0.3912,0.5139,0.4256,0.4053,0.3701,0.0,0.0,0.0,0.0249,0.0,0.0,0.0,0.0,0.0,0.0,0.0,0.0,0.0,0.0,0.0,0.0,0.0,0.0,0.0,0.0,0.0,0.0,0.0,0.0,0.0,0.1711,0.2037,0.0146,0.3604,0.5023,0.3281,0.5111,0.7215,0.941,1.1405,1.2424,1.2501,1.2424,1.2424,1.2501,1.2501,1.2501,1.2501,1.2501,1.2501,1.2501,1.2501,1.2501,1.2501,1.2501,1.2501,1.2501,1.2501,1.2501,1.2501,1.2501,1.2501,1.2501,0.8174,0.7567,0.7198,0.7103,0.6504,0.5942,0.575,0.5419,0.4921,0.0,0.0,0.0,0.3215,0.2917,0.3153,0.4037,0.4093,0.4109,0.4098,0.4003,0.3621,0.2895,0.2757,0.2259,0.1313,0.1305,0.0871,0.0,0.0,0.0,0.0,0.0,0.0,0.0,0.0,0.022,0.0606,0.0433,0.0617,0.096,0.0539,0.0618,0.0929,0.0261,0.0239,0.0554,0.0154,0.0,0.0,0.0,0.016,0.0633,0.2215,0.3052,0.3515,0.3891,0.3107,0.1992,0.1455,0.0,0.0,0.0,0.0,0.0,0.0,0.0,0.0,0.0,0.0,0.0,0.0,0.0,0.0,0.0,0.0,0.0,0.0,0.0,0.0,0.0,0.0,0.0,0.0,0.0474,0.0583,0.0036,0.3611,0.5616,0.5203,0.8611,1.088,1.1637,1.074,1.0973,1.2501,1.1011,1.1011,1.2501,1.2501,1.2501,1.2501,1.2501,1.2501,1.2501,1.2501,1.2501,1.2501,1.2501,1.2501,1.2501,1.2501,1.2501,1.2501,1.2501,1.2501,1.2501,0.7363,0.6892,0.6641,0.6641,0.6277,0.5974,0.5974,0.5583,0.5104,0.0,0.0,0.0,0.3892,0.4084,0.4432,0.4879,0.4797,0.4546,0.4114,0.4091,0.3632,0.2634,0.2285,0.1868,0.131,0.0946,0.0501,0.0,0.0,0.0,0.0,0.0,0.0,0.0,0.0,0.0,0.0,0.0,0.0,0.0,0.0,0.0,0.0,0.0,0.0,0.0,0.0,0.0,0.0,0.0,0.0255,0.0736,0.1784,0.2388,0.2794,0.3309,0.2744,0.1871,0.1412,0.0983,0.0556,0.0111,0.0,0.0,0.0,0.0,0.0,0.0,0.0,0.0,0.0,0.0,0.0,0.0,0.0,0.0,0.0,0.0,0.0,0.0,0.0,0.0,0.0,0.0,0.0,0.0,0.2838,0.5001,0.5947,0.8398,0.984,0.9921,0.8722,0.9094,1.1211,0.9998,1.043,1.2501,1.2501,1.2501,1.2501,1.2501,1.203,1.1211,1.1211,1.0701,0.9998,1.0856,1.1721,1.2501,1.2501,1.2501,1.2501,1.2501,1.2501,1.2501,0.0,0.5957,0.6072,0.6106,0.6349,0.6546,0.6566,0.5864,0.5311,0.0,0.4448,0.4208,0.5131,0.5937,0.6429,0.6423,0.61,0.5507,0.463,0.4338,0.3767,0.2791,0.1818,0.1318,0.1339,0.0462,0.0,0.0,0.0,0.0,0.0,0.0,0.0,0.0,0.0,0.0,0.0,0.0,-0.0124,-0.029,-0.0081,0.0,0.0,0.0,0.0,0.0,0.0,0.0,0.0,0.0,0.0527,0.1175,0.13,0.183,0.2435,0.2533,0.2577,0.0,0.1416,0.1275,0.0,0.0241,0.0,0.0,0.0,0.0,0.0,0.0,0.0,0.0,0.0,0.0,0.0,0.0,0.0,0.0,0.0,0.0,0.0,0.0,0.0,0.0,0.0,0.0,0.0,0.0,0.1818,0.3798,0.5873,0.6165,0.628,0.6281,0.6062,0.6945,0.9041,0.9056,0.9998,1.1798,1.203,1.203,1.1798,1.1798,1.0818,0.9061,0.9061,0.8128,0.68,0.8633,1.0507,1.2185,1.2424,1.2501,1.2501,1.2501,1.2501,1.2501,0.6354,0.6307,0.6464,0.6688,0.6782,0.6857,0.6972,0.6834,0.6703,0.6703,0.5934,0.5539,0.6011,0.5237,0.5023,0.5876,0.5438,0.5081,0.4993,0.4486,0.3849,0.3056,0.1923,0.1384,0.1543,0.0527,0.0,0.0,0.0,0.0,0.0,0.0,0.0,0.0,0.0,0.0,0.0,0.0,-0.0848,-0.205,-0.0577,0.0,0.0,0.0,0.0,0.0,0.0,0.0,0.0,0.0,0.0122,0.0404,0.1261,0.1071,0.0704,0.1564,0.1217,0.0511,0.0306,0.0288,0.0269,0.0047,0.0,0.0,0.0,0.0,0.0,0.0,0.0,0.0,0.0,0.0,0.0,0.0,0.0,0.0,0.0,0.0,0.0,0.0,0.0,0.0,0.0,0.0,0.0,0.0,0.1809,0.3798,0.5873,0.6042,0.612,0.6276,0.4627,0.4732,0.6896,0.6921,0.7111,0.754,0.9216,0.9138,0.7501,0.7501,0.7306,0.6917,0.6917,0.7617,0.8828,0.9216,0.9648,1.0153,1.1837,1.2501,1.2501,1.2501,1.2501,1.2501,0.655,0.6112,0.5847,0.598,0.6205,0.6374,0.6438,0.7029,0.7533,0.778,0.7616,0.7457,0.732,0.672,0.6506,0.687,0.582,0.4944,0.4479,0.3895,0.3146,0.2236,0.1619,0.135,0.1442,0.0501,0.0,0.0,0.0,0.0,0.0,0.0,0.0,0.0,0.0,0.0,0.0,0.0,-0.0921,-0.2211,-0.0629,-0.0544,-0.125,-0.0355,0.0,0.0,0.0,0.0,0.0,0.0,0.0,0.009,0.0637,0.0437,0.0109,0.0636,0.0411,0.0,0.0,0.0,0.0,0.0,0.0,0.0,0.0,0.0,0.0,0.0,0.0,0.0,0.0,0.0,0.0,0.0,0.0,0.0,0.0,0.0,0.0,0.0,0.0,0.0,0.0,0.0,0.0,0.0,0.0899,0.1922,0.2934,0.3009,0.3065,0.3142,0.2122,0.2562,0.4688,0.4704,0.524,0.6297,0.7349,0.7306,0.6293,0.6293,0.5708,0.4693,0.4693,0.4693,0.4888,0.6995,0.7855,0.8167,1.1289,1.2501,1.2501,1.2501,1.2501,1.2501,0.6043,0.5372,0.4781,0.4844,0.5153,0.5421,0.5446,0.6365,0.7223,0.7624,0.8017,0.8075,0.7615,0.7645,0.7556,0.7293,0.592,0.4694,0.3824,0.3223,0.2524,0.1674,0.1425,0.1311,0.1348,0.0473,0.0,0.0,0.0,0.0,0.0,0.0,0.0,0.0,0.0,0.0,0.0,0.0,-0.1028,-0.2511,-0.0705,-0.1018,-0.2373,-0.0652,0.0,0.0,0.0,0.0,0.0,0.0,0.0,0.0,0.0,0.0,0.0,0.0,0.0,0.0,0.0,0.0,0.0,0.0,0.0,0.0,0.0,0.0,0.0,0.0,0.0,0.0,0.0,0.0,0.0,0.0,0.0,0.0,0.0,0.0,0.0,0.0,0.0,0.0,0.0,0.0,0.0,0.0,0.0,0.0,0.0,0.0,0.0,0.0,0.0,0.0796,0.2494,0.2909,0.3786,0.5086,0.5474,0.5474,0.5086,0.5086,0.4149,0.2506,0.2506,0.1763,0.0902,0.4732,0.6531,0.7271,1.1011,1.2501,1.2501,1.2501,1.2501,1.2501,0.375,0.3674,0.3662,0.3911,0.3992,0.4058,0.418,0.4333,0.4493,0.468,0.475,0.4817,0.4927,0.4773,0.4667,0.4627,0.4122,0.3757,0.3629,0.317,0.2892,0.2886,0.1873,0.1374,0.1559,0.0541,0.0,0.0,0.0,0.0,0.0,0.0,0.0,0.0,0.0,0.0,0.0,0.0,-0.1938,-0.4707,-0.1344,-0.0834,-0.1936,-0.0523,0.0,0.0,0.0,0.0,0.0,0.0,0.0,0.0,0.0,0.0,0.0,0.0,0.0,0.0,0.0,0.0,0.0,0.0,0.0,0.0,0.0,0.0,0.0,0.0,0.0,0.0,0.0,0.0,0.0,0.0,0.0,0.0,0.0,0.0,0.0,0.0,0.0,0.0,0.0,0.0,0.0,0.0,0.0,0.0,0.0,0.0,0.0,0.0,0.0,0.0112,0.0342,0.2186,0.2289,0.0746,0.2584,0.2506,0.0706,0.0706,0.0589,0.0353,0.0353,0.1254,0.2936,0.5318,0.7384,0.9294,1.1598,1.2501,1.2501,1.2501,1.2501,1.2501,0.3363,0.2944,0.2502,0.2631,0.2695,0.2773,0.284,0.3727,0.4347,0.4217,0.4496,0.4658,0.4511,0.4419,0.4327,0.4198,0.3251,0.266,0.2666,0.1753,0.1241,0.13,0.0812,0.0579,0.0676,0.023,0.0,0.0,0.0,0.0,0.0,0.0,-0.0415,-0.1131,-0.034,-0.0438,-0.1098,-0.0332,-0.1325,-0.3321,-0.2077,-0.175,-0.1853,-0.0504,0.0,0.0,0.0,0.0,0.0,0.0,0.0,0.0,0.0,0.0,0.0,0.0,0.0,0.0,0.0,0.0,0.0,0.0,0.0,0.0,0.0,0.0,0.0,0.0,0.0,0.0,0.0,0.0,0.0,0.0,0.0,0.0,0.0,0.0,0.0,0.0,0.0,0.0,0.0,0.0,0.0,0.0,0.0,0.0,0.0,0.0,0.0,0.0,0.0,0.0,0.0,0.0881,0.0853,0.0,0.0902,0.0863,0.0,0.0,0.0,0.0,0.0,0.051,0.145,0.3562,0.4967,0.5939,0.8084,1.0391,1.2501,1.2501,1.2501,1.2501,0.2426,0.1904,0.13,0.1298,0.1382,0.1462,0.1464,0.2553,0.3135,0.241,0.2681,0.2613,0.1717,0.1662,0.156,0.1288,0.0383,0.003,0.0572,-0.0274,-0.0553,-0.0025,0.0,0.0,0.0,0.0,0.0,0.0,0.0,0.0,0.0,0.0,-0.0692,-0.1905,-0.1071,-0.1165,-0.1896,-0.1042,-0.1569,-0.2985,-0.282,-0.2561,-0.2081,-0.0586,0.0,0.0,0.0,0.0,0.0,0.0,0.0,0.0,0.0,0.0,0.0,0.0,0.0,0.0,0.0,0.0,0.0,0.0,0.0,0.0,0.0,0.0,0.0,0.0,0.0,0.0,0.0,0.0,0.0,0.0,0.0,0.0,0.0,0.0,0.0,0.0,0.0,0.0,0.0,0.0,0.0,0.0,0.0,0.0,0.0,0.0,0.0,0.0,0.0,0.0,0.0,0.0,0.0,0.0,0.0,0.0,0.0,0.0,0.0,0.0,0.0,0.0,0.0157,0.2232,0.3091,0.3326,0.5474,0.8128,1.0856,1.1443,1.1992,1.2501,0.0115,0.0094,0.0047,0.0046,0.0073,0.0051,0.0054,0.0113,-0.047,-0.2241,-0.2452,-0.327,-0.5427,-0.5541,-0.5647,-0.612,-0.5909,-0.4941,-0.307,-0.2853,-0.1957,-0.0088,0.0,0.0,0.0,0.0,0.0,0.0,0.0,0.0,0.0,0.0,-0.0638,-0.1817,-0.2232,-0.2197,-0.1822,-0.2254,-0.3607,-0.5344,-0.359,-0.2881,-0.2667,-0.0735,0.0,0.0,0.0,0.0,0.0,0.0,0.0,0.0,0.0,0.0,0.0,0.0,0.0,0.0,0.0,0.0,0.0,0.0,0.0,0.0,0.0,0.0,0.0,0.0,0.0,0.0,0.0,0.0,0.0,0.0,0.0,0.0,0.0,0.0,0.0,0.0,0.0,0.0,0.0,0.0,0.0,0.0,0.0,0.0,0.0,0.0,0.0,0.0,0.0,0.0,0.0,0.0,0.0,0.0,0.0,0.0,0.0,0.0,0.0,0.0,0.0,0.0,0.0157,0.2232,0.3091,0.3326,0.5474,0.6371,0.6725,0.875,1.0779,1.2501,0.0,0.0,0.0,0.0,0.0,-0.0413,-0.1595,-0.281,-0.3875,-0.476,-0.4894,-0.5279,-0.6368,-0.6406,-0.6462,-0.6623,-0.5153,-0.4548,-0.5318,-0.261,-0.1879,-0.3891,-0.1429,-0.0608,-0.1883,-0.0666,0.0,0.0,0.0,0.0,0.0,0.0,-0.069,-0.1939,-0.2191,-0.2839,-0.3643,-0.2719,-0.2837,-0.3523,-0.1715,-0.1703,-0.2583,-0.0692,0.0,0.0,0.0,0.0,0.0,0.0,0.0,0.0,0.0,0.0,0.0,0.0,0.0,0.0,0.0,0.0,0.0,0.0,0.0,0.0,0.0,0.0,0.0,0.0,0.0,0.0,0.0,0.0,0.0,0.0,0.0,0.0,0.0,0.0,0.0,0.0,0.0,0.0,0.0,0.0,0.0,0.0,0.0,0.0,0.0,0.0,0.0,0.0,0.0,0.0,0.0,0.0,0.0,0.0,0.0,0.0,0.0,0.0,0.0,0.0,0.0,0.0,0.0039,0.0746,0.1059,0.1137,0.1842,0.2975,0.4615,0.8123,0.9842,1.0663,0.0,0.0,0.0,0.0,-0.0584,-0.1405,-0.2526,-0.4464,-0.6102,-0.6923,-0.7227,-0.7776,-0.8874,-0.8978,-0.8973,-0.9074,-0.7657,-0.696,-0.7422,-0.4196,-0.3338,-0.5808,-0.2134,-0.0947,-0.2941,-0.1664,-0.0872,-0.0706,-0.089,-0.0875,-0.0695,-0.0221,-0.0696,-0.1975,-0.275,-0.3666,-0.4548,-0.3521,-0.3326,-0.3585,-0.1744,-0.1721,-0.2584,-0.0713,0.0,0.0,0.0,0.0,0.0,0.0,0.0,0.0,0.0,0.0,0.0,0.0,0.0,0.0,0.0,0.0,0.0,0.0,0.0,0.0,0.0,0.0,0.0,0.0,0.0,0.0,0.0,0.0,0.0,0.0,0.0,0.0,0.0,0.0,0.0,0.0,0.0,0.0,0.0,0.0,0.0,0.0,0.0,-0.0268,-0.0936,-0.0338,-0.0279,-0.0922,-0.0325,0.0,0.0,0.0,0.0,0.0,0.0,0.0,0.0,0.0,0.0,0.0,0.0,0.0,0.0,0.0,0.0,0.0,0.0,0.0824,0.2506,0.6722,0.9216,1.0701,0.0,-0.0077,-0.0155,-0.015,-0.1729,-0.298,-0.2852,-0.5064,-0.7295,-0.8863,-0.9585,-1.0803,-1.299,-1.3125,-1.3159,-1.3397,-1.3085,-1.1899,-0.9568,-0.7471,-0.6286,-0.6157,-0.2296,-0.1174,-0.3367,-0.2864,-0.2438,-0.2163,-0.244,-0.2371,-0.1984,-0.0625,-0.0651,-0.1893,-0.3739,-0.4595,-0.4635,-0.4698,-0.5013,-0.5286,-0.3489,-0.28,-0.2691,-0.0874,-0.0182,-0.0146,-0.0036,0.0,0.0,0.0,0.0,0.0,0.0,0.0,0.0,0.0,0.0,0.0,0.0,0.0,0.0,0.0,0.0,0.0,0.0,0.0,0.0,0.0,-0.0058,-0.0119,-0.0092,-0.0116,-0.0138,0.0,0.0,0.0,0.0,0.0,0.0,0.0,0.0,0.0,0.0,0.0,0.0,0.0,-0.0055,-0.0857,-0.2597,-0.1115,-0.102,-0.2796,-0.1185,-0.0295,-0.0303,-0.0189,-0.0153,-0.0157,-0.0039,0.0,0.0,0.0,0.0,0.0,0.0,0.0,0.0,0.0,0.0,0.0,0.0118,0.0236,0.0785,0.4813,0.8944,1.2501,0.0,-0.1154,-0.2155,-0.2155,-0.347,-0.46,-0.4836,-0.7854,-1.0473,-1.1466,-1.2023,-1.2677,-1.3536,-1.3634,-1.3605,-1.368,-1.2119,-1.1462,-1.2251,-0.883,-0.8007,-1.0791,-0.5471,-0.4075,-0.7569,-0.3079,-0.1881,-0.429,-0.1869,-0.1189,-0.2114,-0.0675,-0.0697,-0.1977,-0.2585,-0.425,-0.6575,-0.5371,-0.43,-0.327,-0.1483,-0.1602,-0.2909,-0.2909,-0.2581,-0.1965,-0.051,0.0,0.0,0.0,0.0,0.0,0.0,0.0,0.0,0.0,0.0,0.0,0.0,0.0,0.0,0.0,0.0,0.0,0.0,0.0,0.0,0.0,-0.1074,-0.1891,-0.1565,-0.1783,-0.1897,-0.1544,0.0,0.0,0.0,0.0,0.0,0.0,0.0,0.0,0.0,0.0,0.0,0.0,-0.0923,-0.1854,-0.2659,-0.3213,-0.3924,-0.4811,-0.4401,-0.4206,-0.4317,-0.2895,-0.2171,-0.2128,-0.0703,0.0,0.0,0.0,0.0,0.0,0.0,0.0,0.0,0.0,0.0,0.0157,0.1686,0.3288,0.4813,0.5903,0.8944,1.2501,-0.124,-0.2964,-0.4357,-0.4262,-0.5774,-0.7033,-0.7149,-0.9794,-1.1979,-1.2528,-1.3051,-1.3464,-1.368,-1.3883,-1.3971,-1.3946,-1.2804,-1.2423,-1.3246,-1.0283,-0.9738,-1.2588,-0.6736,-0.5261,-0.92,-0.3979,-0.2431,-0.4999,-0.2435,-0.1492,-0.2093,-0.0667,-0.0391,-0.1147,-0.1867,-0.3767,-0.6379,-0.6298,-0.4879,-0.2629,-0.1644,-0.1909,0.0,-0.3335,-0.3214,-0.2763,-0.1675,-0.0729,0.0,0.0,0.0,0.0,0.0,0.0,0.0,0.0,0.0,0.0,0.0,0.0,0.0,0.0,0.0,0.0,0.0,-0.0605,-0.1172,-0.1184,-0.2626,-0.3795,-0.3522,-0.3533,-0.3407,-0.2944,-0.23,0.0,0.0,0.0,-0.0883,-0.087,-0.0346,0.0,0.0,0.0,-0.0224,-0.0744,-0.159,-0.2783,-0.4377,-0.4665,-0.5341,-0.6536,-0.5936,-0.5659,-0.581,-0.3865,-0.2888,-0.2887,-0.0936,0.0,0.0,0.0,0.0,0.0,0.0,0.0,0.0,0.0,0.0549,0.149,0.2662,0.3834,0.4888,0.4888,0.6995,0.9804,-0.3197,-0.5128,-0.6621,-0.6407,-0.828,-0.9794,-0.9744,-1.129,-1.2515,-1.2767,-1.3315,-1.3673,-1.3673,-1.4068,-1.4245,-1.4159,-1.4146,-1.3914,-1.337,-1.1859,-1.153,-1.2782,-0.7485,-0.6163,-0.9785,-0.5229,-0.3622,-0.5348,-0.3331,-0.2242,-0.2009,-0.0625,-0.0098,-0.0319,-0.143,-0.3117,-0.5268,-0.696,-0.605,-0.3455,-0.306,-0.3078,-0.3269,-0.3009,-0.2914,-0.2886,-0.2917,-0.164,0.0,0.0,0.0,0.0,0.0,0.0,0.0,0.0,0.0,0.0,0.0,0.0,0.0,0.0,0.0,-0.0068,-0.0295,-0.1556,-0.278,-0.3006,-0.4494,-0.5733,-0.5672,-0.5324,-0.4841,-0.4222,-0.42,-0.4226,-0.4164,0.0,0.0,0.0,-0.1013,0.0,-0.0025,-0.0147,-0.0687,-0.1745,-0.2365,-0.3898,-0.6619,-0.5956,-0.6319,-0.812,-0.6988,-0.6395,-0.6514,-0.4379,-0.3264,-0.3262,-0.1052,0.0,0.0,0.0,0.0,0.0,0.0,0.0,0.0,0.0,0.1215,0.3091,0.3091,0.3091,0.3091,0.3098,0.4116,0.5564,-0.4975,-0.7204,-0.8765,-0.8442,-1.0477,-1.2253,-1.2627,-1.2883,-1.3125,-1.3389,-1.3885,-1.4183,-1.4183,-1.4251,-1.4292,-1.4265,-1.4258,-1.4163,-1.3969,-1.3634,-1.3525,-1.3612,-1.0722,-1.0132,-1.2324,-0.6396,-0.4721,-0.7701,-0.2851,-0.1063,-0.2124,-0.068,-0.0597,-0.1618,-0.0751,-0.2304,-0.554,-0.5877,-0.6647,-0.7368,-0.4199,-0.3913,-0.5259,-0.3535,-0.2895,-0.2885,-0.2892,-0.1653,0.0,0.0,0.0,0.0,0.0,0.0,0.0,0.0,0.0,0.0,0.0,0.0,0.0,0.0,0.0,-0.0377,-0.1904,-0.2487,-0.3131,-0.4627,-0.6324,-0.7429,-0.7114,-0.6995,-0.6455,-0.4993,-0.4669,-0.4673,-0.4893,-0.4286,0.0,0.0,-0.207,-0.1344,-0.0123,-0.1004,-0.1748,-0.1952,-0.4063,-0.5817,-0.6968,-0.8031,-0.9093,-1.0154,-1.0203,-1.0296,-1.0428,-0.7002,-0.528,-0.5257,-0.1707,0.0,0.0,0.0,0.0,0.0,0.0,0.0,0.0,0.0,0.1215,0.3091,0.3091,0.3091,0.3096,0.3087,0.2266,0.1589,-0.7675,-0.9578,-1.1037,-1.1114,-1.2244,-1.3281,-1.3695,-1.3885,-1.3926,-1.372,-1.3822,-1.3953,-1.3953,-1.4163,-1.4299,-1.4299,-1.4299,-1.4272,-1.4197,-1.419,-1.4122,-1.3966,-1.1744,-1.1333,-1.3078,-0.7838,-0.5801,-0.7266,-0.4163,-0.2096,-0.1052,-0.1047,-0.1023,-0.0983,-0.1192,-0.3359,-0.6855,-0.7022,-0.7706,-0.844,-0.5652,-0.5112,-0.5784,-0.3695,-0.2886,-0.2906,-0.2888,-0.1642,0.0,0.0,0.0,0.0,0.0,0.0,0.0,0.0,0.0,0.0,0.0,0.0,0.0,0.0,0.0,-0.0243,-0.11,-0.2746,-0.4359,-0.5228,-0.7531,-0.9252,-0.8829,-0.8702,-0.8349,-0.7395,-0.7113,-0.707,-0.7216,-0.5634,-0.4236,0.0,0.0,0.0,-0.0075,-0.1217,-0.2248,-0.2884,-0.4843,-0.6143,-0.6521,-0.7538,-0.8015,-0.7809,-0.8132,-0.8362,-0.85,-0.5696,-0.4299,-0.4263,-0.1356,0.0,0.0,0.0,0.0,0.0,0.0,0.0,0.0079,0.1177,0.1568,0.1607,0.2662,0.2437,0.1504,0.1473,0.0842,0.0282,-1.0431,-1.1727,-1.2888,-1.3214,-1.3573,-1.3899,-1.4129,-1.4523,-1.4559,-1.4052,-1.3889,-1.3822,-1.3822,-1.415,-1.4346,-1.4346,-1.4319,-1.4299,-1.4299,-1.4299,-1.4245,-1.4173,-1.2412,-1.2013,-1.3281,-0.9471,-0.7329,-0.6996,-0.5458,-0.3316,-0.0632,-0.1631,-0.1747,-0.1153,-0.2525,-0.5028,-0.8167,-0.8444,-0.8688,-0.8656,-0.674,-0.5765,-0.5166,-0.3089,-0.2266,-0.2284,-0.2278,-0.1291,0.0,0.0,0.0,0.0,0.0,0.0,0.0,0.0,0.0,0.0,0.0,0.0,0.0,0.0,0.0,-0.0105,-0.0484,-0.2793,-0.4946,-0.5332,-0.7936,-0.9992,-0.957,-0.9766,-0.9767,-0.9117,-0.89,-0.8714,-0.8366,-0.6176,-0.4467,0.0,0.0,0.0,-0.0025,-0.1196,-0.2355,-0.3346,-0.4765,-0.5618,-0.567,-0.6148,-0.6009,-0.5124,-0.5419,-0.5663,-0.5754,-0.384,-0.2908,-0.2872,-0.0931,0.0,0.0,0.0,0.0,0.0,0.0,0.0,0.0118,0.1763,0.1492,0.0158,0.1809,0.1427,0.0,0.0,0.0,0.0,-1.2571,-1.3313,-1.3646,-1.3558,-1.4055,-1.4434,-1.4468,-1.474,-1.4882,-1.4633,-1.4599,-1.4593,-1.4593,-1.455,-1.4489,-1.4489,-1.4373,-1.4299,-1.4299,-1.4299,-1.4292,-1.4278,-1.3968,-1.3757,-1.3741,-1.1277,-0.9744,-0.9303,-0.5369,-0.3165,-0.2622,-0.2497,-0.3232,-0.463,-0.5111,-0.6562,-0.8652,-0.8807,-0.8993,-0.8982,-0.6861,-0.4948,-0.3164,-0.1057,-0.0274,-0.0274,-0.0271,-0.0154,0.0,0.0,0.0,0.0,0.0,0.0,0.0,0.0,0.0,0.0,0.0,0.0,0.0,0.0,0.0,-0.0427,-0.2067,-0.2695,-0.3407,-0.5074,-0.6931,-0.8157,-0.789,-0.9346,-0.9987,-0.8077,-0.7654,-0.709,-0.5681,-0.476,-0.3859,-0.2815,0.0,0.0,-0.0126,-0.1106,-0.1925,-0.2145,-0.3435,-0.4327,-0.4637,-0.48,-0.4964,-0.5092,-0.5419,-0.5611,-0.5628,-0.3807,-0.2908,-0.2872,-0.0931,0.0,0.0,0.0,0.0,0.0,0.0,0.0,0.0,0.0196,0.0158,0.0,0.02,0.0161,0.0,0.0,0.0,0.0,-1.3723,-1.3844,-1.3896,-1.42,-1.4346,-1.4502,-1.4862,-1.5018,-1.5079,-1.5011,-1.4802,-1.4694,-1.4694,-1.464,-1.4606,-1.4606,-1.4516,-1.4428,-1.4428,-1.4346,-1.4299,-1.4299,-1.4245,-1.4136,-1.398,-1.2929,-1.1571,-0.9898,-0.8722,-0.6946,-0.4656,-0.5259,-0.6141,-0.7103,-0.6353,-0.7708,-1.0417,-0.8255,-0.8096,-0.9022,-0.5612,-0.3805,-0.2887,-0.0793,0.0,0.0,0.0,0.0,0.0,0.0,0.0,0.0,0.0,0.0,0.0,0.0,0.0,0.0,0.0,0.0,0.0,0.0,0.0,-0.0178,-0.0914,-0.1905,-0.2902,-0.3633,-0.5195,-0.6411,-0.6304,-0.6782,-0.7001,-0.6384,-0.6057,-0.5713,-0.5175,-0.4071,-0.3101,-0.2565,0.0,-0.0654,-0.0051,-0.0448,-0.0742,-0.0793,-0.2702,-0.3626,-0.3028,-0.3045,-0.2759,-0.2068,-0.2185,-0.2236,-0.2255,-0.1508,-0.1176,-0.1147,-0.0389,0.0,0.0,0.0,0.0,0.0,0.0,0.0,0.0,0.0,0.0,0.0,0.0,0.0,0.0,0.0,0.0,0.0,-1.4489,-1.4326,-1.4288,-1.4802,-1.4767,-1.478,-1.5248,-1.5316,-1.5303,-1.5255,-1.5065,-1.4877,-1.4829,-1.4835,-1.4808,-1.4808,-1.4665,-1.4557,-1.4516,-1.4421,-1.4346,-1.4299,-1.4299,-1.4251,-1.4143,-1.3987,-1.3001,-1.114,-1.1102,-0.9652,-0.698,-0.7781,-0.861,-0.943,-0.8472,-0.9526,-1.1817,-0.8569,-0.7733,-0.8238,-0.4562,-0.2745,-0.2045,-0.0562,0.0,0.0,0.0,0.0,0.0,0.0,0.0,0.0,0.0,0.0,0.0,0.0,0.0,0.0,0.0,0.0,0.0,0.0,0.0,0.0,0.0,-0.0977,-0.1922,-0.1922,-0.3354,-0.4593,-0.4593,-0.4846,-0.4962,-0.4661,-0.4393,-0.4107,-0.3656,-0.2621,-0.1877,-0.1788,-0.0711,0.0,0.0,0.0,0.0,0.0,-0.1676,-0.2306,-0.1459,-0.1416,-0.0972,-0.0031,0.0,0.0,0.0,0.0,0.0,0.0,0.0,0.0,0.0,0.0,0.0,0.0,0.0,0.0,0.0,0.0,0.0,0.0,0.0,0.0,0.0,0.0,0.0,0.0,-1.493,-1.501,-1.5052,-1.535,-1.5398,-1.5452,-1.556,-1.5587,-1.5533,-1.5425,-1.5404,-1.5343,-1.5194,-1.5098,-1.5017,-1.5017,-1.4828,-1.4626,-1.4523,-1.4509,-1.4448,-1.4306,-1.4299,-1.4299,-1.4299,-1.4193,-1.3919,-1.3572,-1.138,-1.0136,-0.9735,-0.9493,-1.0245,-1.1757,-1.2097,-1.2321,-1.2347,-1.024,-0.8282,-0.6351,-0.4012,-0.1867,-0.0041,0.0,0.0,0.0,0.0,0.0,0.0,0.0,0.0,0.0,0.0,0.0,0.0,0.0,0.0,0.0,0.0,0.0,0.0,0.0,0.0,0.0,0.0,0.0,-0.0035,-0.0034,-0.1478,-0.2719,-0.2719,-0.4191,-0.4814,-0.3037,-0.2735,-0.2106,-0.0311,-0.0031,-0.003,-0.0029,0.0,0.0,0.0,0.0,0.0,0.0,-0.0027,-0.0028,-0.003,-0.0029,-0.003,0.0,0.0,0.0,0.0,0.0,0.0,0.0,0.0,0.0,0.0,0.0,0.0,0.0,0.0,0.0,0.0,0.0,0.0,0.0,0.0,0.0,0.0,0.0,0.0,0.0,-1.5418,-1.5425,-1.5459,-1.5499,-1.5519,-1.5533,-1.5587,-1.5593,-1.5573,-1.5526,-1.5479,-1.5391,-1.5343,-1.5208,-1.516,-1.516,-1.4984,-1.4875,-1.4828,-1.4631,-1.4489,-1.4448,-1.4353,-1.4299,-1.4299,-1.4251,-1.4075,-1.3734,-1.2832,-1.2187,-1.1766,-1.1683,-1.1991,-1.2564,-1.1112,-1.0537,-1.0402,-0.6668,-0.4844,-0.419,-0.1912,-0.058,0.0,0.0,0.0,0.0,0.0,0.0,0.0,0.0,0.0,0.0,0.0,0.0,0.0,0.0,0.0,0.0,0.0,0.0,0.0,0.0,0.0,0.0,0.0,0.0,0.0,0.0,-0.0471,-0.0874,-0.0874,-0.1344,-0.1541,-0.0963,-0.0869,-0.0664,-0.0096,0.0,0.0,0.0,0.0,0.0,0.0,0.0,0.0,0.0,0.0,0.0,0.0,0.0,0.0,0.0,0.0,0.0,0.0,0.0,0.0,0.0,0.0,0.0,0.0,0.0,0.0,0.0,0.0,0.0,0.0,0.0,0.0,0.0,0.0,0.0,0.0,0.0,0.0,0.0,-1.5593,-1.5593,-1.5607,-1.571,-1.5716,-1.5737,-1.5798,-1.5805,-1.5784,-1.5723,-1.5635,-1.5554,-1.5499,-1.5357,-1.5248,-1.5187,-1.5099,-1.5025,-1.5023,-1.4787,-1.4631,-1.4516,-1.4428,-1.4353,-1.4299,-1.4299,-1.4204,-1.3971,-1.377,-1.3478,-1.3105,-1.3105,-1.32,-1.3206,-1.0876,-0.9916,-0.968,-0.5101,-0.3273,-0.321,-0.0927,0.0,0.0,0.0,0.0,0.0,0.0,0.0,0.0,0.0,0.0,0.0,0.0,0.0,0.0,0.0,0.0,0.0,0.0,0.0,0.0,0.0,0.0,0.0,0.0,0.0,0.0,0.0,0.0,0.0,0.0,0.0,0.0,0.0,0.0,0.0,0.0,0.0,0.0,0.0,0.0,0.0,0.0,0.0,0.0,0.0,0.0,0.0,0.0,0.0,0.0,0.0,0.0,0.0,0.0,0.0,0.0,0.0,0.0,0.0,0.0,0.0,0.0,0.0,0.0,0.0,0.0,0.0,0.0,0.0,0.0,0.0,0.0,0.0,0.0,0.0,-1.5621,-1.5621,-1.571,-1.5894,-1.5915,-1.5969,-1.6062,-1.6083,-1.6078,-1.5935,-1.5908,-1.5854,-1.5621,-1.552,-1.5371,-1.5228,-1.5194,-1.5173,-1.5037,-1.5023,-1.4841,-1.4557,-1.4523,-1.4448,-1.4319,-1.4306,-1.4299,-1.4299,-1.42,-1.4014,-1.3829,-1.3822,-1.3729,-1.3465,-1.1112,-0.9984,-0.9501,-0.4972,-0.3119,-0.2989,-0.0847,0.0,0.0,0.0,0.0,0.0,0.0,0.0,0.0,0.0,0.0,0.0,0.0,0.0,0.0,0.0,0.0,0.0,0.0,0.0,0.0,0.0,0.0,0.0,0.0,0.0,0.0,0.0,0.0,0.0,0.0,0.0,0.0,0.0,0.0,0.0,0.0,0.0,0.0,0.0,0.0,0.0,0.0,0.0,0.0,0.0,0.0,0.0,0.0,0.0,0.0,0.0,0.0,0.0,0.0,-0.0153,-0.0233,-0.0196,-0.0196,-0.0158,0.0,0.0,0.0,0.0,0.0,0.0,0.0,0.0,0.0,0.0,0.0,0.0,0.0,0.0,0.0,0.0,-1.5974,-1.5974,-1.5988,-1.6022,-1.6029,-1.6042,-1.6076,-1.6083,-1.6069,-1.6085,-1.5976,-1.5888,-1.5805,-1.5669,-1.5519,-1.5533,-1.5316,-1.5167,-1.5133,-1.5078,-1.4936,-1.4908,-1.4638,-1.4496,-1.4462,-1.4353,-1.4299,-1.4299,-1.4265,-1.4231,-1.419,-1.4068,-1.3047,-1.1199,-0.8766,-0.6702,-0.4848,-0.199,-0.0779,-0.0779,-0.0216,0.0,0.0,0.0,0.0,0.0,0.0,0.0,0.0,0.0,0.0,0.0,0.0,0.0,0.0,0.0,0.0,0.0,0.0,0.0,0.0,0.0,0.0,0.0,0.0,0.0,0.0,0.0,0.0,0.0,0.0,0.0,0.0,0.0,0.0,0.0,0.0,0.0,0.0,0.0,0.0,0.0,0.0,0.0,0.0,0.0,0.0,0.0,0.0,0.0,0.0,0.0,0.0,0.0,0.0,-0.1591,-0.2382,-0.235,-0.2372,-0.1552,0.0,0.0,0.0,0.0,0.0,0.0,0.0,0.0,0.0,0.0,0.0,0.0,0.0,0.0,0.0,0.0,-1.6083,-1.6083,-1.6083,-1.6083,-1.6083,-1.6083,-1.6083,-1.6083,-1.6083,-1.6083,-1.6058,-1.6003,-1.6003,-1.5825,-1.5737,-1.5737,-1.5459,-1.5289,-1.5289,-1.5147,-1.5038,-1.5023,-1.4808,-1.4658,-1.4516,-1.4434,-1.4367,-1.4299,-1.4299,-1.4299,-1.4299,-1.4217,-1.2885,-1.0533,-0.9237,-0.6717,-0.3429,-0.219,-0.1006,0.0,0.0,0.0,0.0,0.0,0.0,0.0,0.0,0.0,0.0,0.0,0.0,0.0,0.0,0.0,0.0,0.0,0.0,0.0,0.0,0.0,0.0,0.0,0.0,0.0,0.0,0.0,0.0,0.0,0.0,0.0,0.0,0.0,0.0,0.0,0.0,0.0,0.0,0.0,0.0,0.0,0.0,0.0,0.0,0.0,0.0,0.0,0.0,0.0,0.0,0.0,0.0,0.0,0.0,-0.0454,-0.1425,-0.253,-0.3099,-0.3078,-0.2146,-0.1084,0.0,0.0,0.0,0.0,0.0,0.0,0.0,0.0,0.0,0.0,0.0,0.0,0.0,0.0,0.0,0.0,-1.6083,-1.6083,-1.6083,-1.6083,-1.6083,-1.6083,-1.6083,-1.6083,-1.6083,-1.6083,-1.6083,-1.6083,-1.6083,-1.6017,-1.5935,-1.5935,-1.5635,-1.5459,-1.5411,-1.5269,-1.5126,-1.5057,-1.503,-1.4848,-1.4584,-1.4536,-1.4455,-1.4333,-1.4312,-1.4299,-1.4299,-1.4299,-1.2996,-1.0717,-1.0717,-0.8263,-0.4114,-0.3767,-0.243,-0.0531,-0.0132,0.0,0.0,0.0,0.0,0.0,0.0,0.0,0.0,0.0,0.0,0.0,0.0,0.0,0.0,0.0,0.0,0.0,0.0,0.0,0.0,0.0,0.0,0.0,0.0,0.0,0.0,0.0,0.0,0.0,0.0,0.0,0.0,0.0,0.0,0.0,0.0,0.0,0.0,0.0,0.0,0.0,0.0,0.0,0.0,0.0,0.0,0.0,0.0,0.0,0.0,0.0,0.0,-0.1145,-0.3548,-0.3589,-0.3589,-0.3546,-0.1482,-0.0284,0.0,0.0,0.0,0.0,0.0,0.0,0.0,0.0,0.0,0.0,0.0,0.0,0.0,0.0,0.0,0.0,-1.6083,-1.6083,-1.6083,-1.6083,-1.6083,-1.6083,-1.6083,-1.6083,-1.6083,-1.6083,-1.6083,-1.6083,-1.6083,-1.6062,-1.6049,-1.6049,-1.5935,-1.5676,-1.5425,-1.5269,-1.5174,-1.5153,-1.5078,-1.4996,-1.4903,-1.4645,-1.4502,-1.4475,-1.436,-1.4299,-1.4299,-1.4299,-1.2996,-1.0717,-1.0717,-0.9153,-0.6433,-0.4421,-0.3393,-0.2859,-0.0804,0.0,0.0,0.0,0.0,0.0,0.0,0.0,0.0,0.0,0.0,0.0,0.0,0.0,0.0,0.0,0.0,0.0,0.0,0.0,0.0,0.0,0.0,0.0,0.0,0.0,0.0,0.0,0.0,0.0,0.0,0.0,0.0,0.0,0.0,0.0,0.0,0.0,0.0,0.0,0.0,0.0,0.0,0.0,0.0,0.0,0.0,0.0,0.0,0.0,0.0,0.0,0.0,-0.1853,-0.577,-0.58,-0.5801,-0.5774,-0.3659,-0.1688,0.0,0.0,0.0,0.0,0.0,0.0,0.0,0.0,0.0,0.0,0.0,0.0,0.0,0.0,0.0,0.0,-1.6096,-1.6171,-1.6212,-1.6103,-1.6083,-1.6083,-1.6083,-1.6083,-1.6083,-1.6083,-1.6083,-1.6083,-1.6083,-1.6083,-1.6083,-1.6083,-1.599,-1.5813,-1.5499,-1.5391,-1.5269,-1.5187,-1.512,-1.5052,-1.5017,-1.4746,-1.4545,-1.4509,-1.4448,-1.4373,-1.4299,-1.4299,-1.2996,-1.0762,-1.2059,-1.0584,-0.7102,-0.7324,-0.5945,-0.349,-0.2374,-0.1162,0.0,0.0,0.0,0.0,0.0,0.0,0.0,0.0,0.0,0.0,0.0,0.0,0.0,0.0,0.0,0.0,0.0,0.0,0.0,0.0,0.0,0.0,0.0,0.0,0.0,0.0,0.0,0.0,0.0,0.0,0.0,0.0,0.0,0.0,0.0,0.0,0.0,0.0,0.0,0.0,0.0,0.0,0.0,0.0,0.0,0.0,0.0,0.0,0.0,0.0,-0.1092,-0.2595,-0.4542,-0.4596,-0.4557,-0.4545,-0.2424,-0.0913,0.0,0.0,0.0,0.0,0.0,0.0,0.0,0.0,0.0,0.0,0.0,0.0,0.0,0.0,0.0,0.0,-1.611,-1.6205,-1.6266,-1.611,-1.6083,-1.6083,-1.6083,-1.6083,-1.6083,-1.6083,-1.6083,-1.6083,-1.6083,-1.6083,-1.6083,-1.6083,-1.6024,-1.5894,-1.5696,-1.5547,-1.5377,-1.5194,-1.5181,-1.5133,-1.5071,-1.4869,-1.4733,-1.4618,-1.455,-1.4455,-1.4346,-1.4319,-1.3312,-1.161,-1.3489,-1.2237,-0.8842,-1.0135,-0.8575,-0.5142,-0.4027,-0.2507,-0.0762,-0.0224,0.0,0.0,0.0,0.0,0.0,0.0,0.0,0.0,0.0,0.0,0.0,0.0,0.0,0.0,0.0,0.0,0.0,0.0,0.0,0.0,0.0,0.0,0.0,0.0,0.0,0.0,0.0,0.0,0.0,0.0,0.0,0.0,0.0,0.0,0.0,0.0,0.0,0.0,0.0,0.0,0.0,0.0,0.0,0.0,0.0,0.0,0.0,0.0,-0.2014,-0.3107,-0.3107,-0.3113,-0.3353,-0.3876,-0.1782,-0.1043,-0.1555,-0.1555,-0.1555,-0.1555,-0.1555,-0.1262,-0.0757,-0.0799,-0.0463,0.0,0.0,0.0,0.0,0.0,0.0,0.0,-1.611,-1.6096,-1.6096,-1.6083,-1.6083,-1.6083,-1.6083,-1.6083,-1.6083,-1.6083,-1.6083,-1.6083,-1.6083,-1.6083,-1.6083,-1.6083,-1.6069,-1.6051,-1.5894,-1.5703,-1.5493,-1.5194,-1.5181,-1.5174,-1.5167,-1.5025,-1.495,-1.4936,-1.4652,-1.4509,-1.4496,-1.436,-1.421,-1.4033,-1.421,-1.4122,-1.3628,-1.1566,-1.0495,-0.978,-0.5365,-0.349,-0.3089,-0.0852,0.0,0.0,0.0,0.0,0.0,0.0,0.0,0.0,0.0,0.0,0.0,0.0,0.0,0.0,0.0,0.0,0.0,0.0,0.0,0.0,0.0,0.0,0.0,0.0,0.0,0.0,0.0,0.0,0.0,0.0,0.0,0.0,0.0,0.0,0.0,0.0,0.0,0.0,0.0,0.0,0.0,0.0,0.0,0.0,0.0,0.0,0.0,0.0,-0.2033,-0.3107,-0.3107,-0.3097,-0.416,-0.6218,-0.4126,-0.4233,-0.6199,-0.6199,-0.6199,-0.6199,-0.6199,-0.4989,-0.3065,-0.3107,-0.1891,0.0,0.0,0.0,0.0,0.0,0.0,0.0,-1.6381,-1.6408,-1.6402,-1.6252,-1.6246,-1.6225,-1.6103,-1.6083,-1.6083,-1.6083,-1.6083,-1.6083,-1.6083,-1.6083,-1.6083,-1.6083,-1.6083,-1.6015,-1.5915,-1.5854,-1.5594,-1.5201,-1.5181,-1.5181,-1.5181,-1.5126,-1.5059,-1.5017,-1.4855,-1.4746,-1.4606,-1.4502,-1.4428,-1.4428,-1.434,-1.4299,-1.4255,-1.3312,-1.2059,-1.0402,-0.7102,-0.4919,-0.3356,-0.0897,0.0,0.0,0.0,0.0,0.0,0.0,0.0,0.0,0.0,0.0,0.0,0.0,0.0,0.0,0.0,0.0,0.0,0.0,0.0,0.0,0.0,0.0,0.0,0.0,0.0,0.0,0.0,0.0,0.0,0.0,0.0,0.0,0.0,0.0,0.0,0.0,0.0,0.0,0.0,0.0,0.0,0.0,0.0,0.0,0.0,0.0,0.0,0.0,-0.077,-0.1183,-0.1183,-0.1161,-0.2295,-0.45,-0.3726,-0.4528,-0.67,-0.67,-0.67,-0.67,-0.67,-0.6199,-0.5282,-0.3902,-0.2813,-0.1891,-0.0547,0.0,0.0,0.0,0.0,0.0,-1.6551,-1.6578,-1.6578,-1.6408,-1.6368,-1.6313,-1.6178,-1.611,-1.6083,-1.6083,-1.6083,-1.6083,-1.6083,-1.6083,-1.6083,-1.6083,-1.6083,-1.6035,-1.5983,-1.5928,-1.5724,-1.5269,-1.5255,-1.5228,-1.5181,-1.5181,-1.5133,-1.5038,-1.5037,-1.4916,-1.4808,-1.4658,-1.4557,-1.4509,-1.4407,-1.434,-1.4299,-1.4299,-1.3356,-1.1566,-0.8397,-0.6121,-0.4338,-0.1211,0.0,0.0,0.0,0.0,0.0,0.0,0.0,0.0,0.0,0.0,0.0,0.0,0.0,0.0,0.0,0.0,0.0,0.0,0.0,0.0,0.0,0.0,0.0,0.0,0.0,0.0,0.0,0.0,0.0,0.0,0.0,0.0,0.0,0.0,0.0,0.0,0.0,0.0,0.0,0.0,0.0,0.0,0.0,0.0,0.0,0.0,0.0,0.0,0.0,0.0,0.0,0.0,-0.1471,-0.4363,-0.4363,-0.5909,-0.879,-0.879,-0.879,-0.879,-0.879,-0.8432,-0.7661,-0.5308,-0.3972,-0.3181,-0.0893,0.0,0.0,0.0,0.0,0.0,-1.6558,-1.6524,-1.6524,-1.6524,-1.6408,-1.6313,-1.6307,-1.6185,-1.6083,-1.6083,-1.6083,-1.6083,-1.6083,-1.6083,-1.6083,-1.6083,-1.6083,-1.6083,-1.6083,-1.599,-1.5772,-1.5425,-1.5411,-1.5343,-1.5187,-1.5181,-1.5181,-1.5181,-1.5085,-1.5017,-1.5017,-1.4814,-1.4613,-1.4471,-1.4471,-1.4434,-1.4255,-1.4299,-1.4299,-1.3894,-0.9064,-0.7102,-0.6567,-0.1793,0.0,0.0,0.0,0.0,0.0,0.0,0.0,0.0,0.0,0.0,0.0,0.0,0.0,0.0,0.0,0.0,0.0,0.0,0.0,0.0,0.0,0.0,0.0,0.0,0.0,0.0,0.0,0.0,0.0,0.0,0.0,0.0,0.0,0.0,0.0,0.0,0.0,0.0,0.0,0.0,0.0,0.0,0.0,0.0,0.0,0.0,0.0,0.0,0.0,0.0,0.0,0.0,-0.2226,-0.6658,-0.6662,-0.904,-1.3362,-1.3362,-1.3403,-1.3403,-1.3403,-1.2219,-1.0091,-0.7708,-0.5488,-0.3337,-0.0955,0.0,0.0,0.0,0.0,0.0,-1.6856,-1.6842,-1.6809,-1.6648,-1.6594,-1.65,-1.6341,-1.6273,-1.6205,-1.6096,-1.6083,-1.6083,-1.6083,-1.6083,-1.6083,-1.6083,-1.6083,-1.6083,-1.6083,-1.6042,-1.5927,-1.5779,-1.552,-1.5391,-1.5343,-1.5235,-1.5181,-1.5181,-1.514,-1.512,-1.516,-1.497,-1.3942,-1.2271,-1.3886,-1.3584,-1.1872,-1.3681,-1.4394,-1.3894,-0.9064,-0.7102,-0.6567,-0.1793,0.0,0.0,0.0,0.0,0.0,0.0,0.0,0.0,0.0,0.0,0.0,0.0,0.0,0.0,0.0,0.0,0.0,0.0,0.0,0.0,0.0,0.0,0.0,0.0,0.0,0.0,0.0,0.0,0.0,0.0,0.0,0.0,0.0,0.0,0.0,0.0,0.0,0.0,0.0,0.0,0.0,0.0,0.0,0.0,0.0,0.0,0.0,0.0,0.0,0.0,0.0,0.0,-0.1471,-0.4321,-0.4354,-0.6782,-1.123,-1.1224,-1.2119,-1.3666,-1.3666,-1.2398,-1.0111,-0.7792,-0.548,-0.3164,-0.0868,0.0,0.0,0.0,0.0,0.0,-1.6978,-1.6978,-1.6951,-1.6856,-1.6689,-1.6547,-1.6422,-1.6293,-1.6185,-1.6096,-1.6083,-1.6083,-1.6083,-1.6083,-1.6083,-1.6083,-1.6083,-1.6083,-1.6083,-1.6083,-1.6042,-1.5996,-1.571,-1.5533,-1.5411,-1.5316,-1.5242,-1.5181,-1.5181,-1.5181,-1.5181,-1.5139,-1.3703,-1.1258,-1.2679,-1.1792,-0.9444,-1.1944,-1.2382,-1.1186,-0.8275,-0.6522,-0.5276,-0.1479,0.0,0.0,0.0,0.0,0.0,0.0,0.0,0.0,0.0,0.0,0.0,0.0,0.0,0.0,0.0,0.0,0.0,0.0,0.0,0.0,0.0,0.0,0.0,0.0,0.0,0.0,0.0,0.0,0.0,0.0,0.0,0.0,0.0,0.0,0.0,0.0,0.0,0.0,0.0,0.0,0.0,0.0,0.0,0.0,0.0,0.0,0.0,0.0,0.0,0.0,0.0,0.0,-0.1101,-0.3296,-0.3333,-0.5276,-0.8872,-0.8886,-0.9645,-1.0983,-1.0983,-1.0229,-0.8787,-0.6488,-0.4675,-0.3205,-0.088,0.0,0.0,0.0,0.0,0.0,-1.6978,-1.6978,-1.6978,-1.6965,-1.6727,-1.653,-1.651,-1.6273,-1.6096,-1.6083,-1.6083,-1.6083,-1.6083,-1.6083,-1.6083,-1.6083,-1.6083,-1.6083,-1.6083,-1.6083,-1.6083,-1.6083,-1.5996,-1.5792,-1.5459,-1.5425,-1.5343,-1.5201,-1.5187,-1.5181,-1.5181,-1.5181,-1.3784,-1.1232,-1.1232,-0.9684,-0.7286,-0.9453,-0.9137,-0.7084,-0.688,-0.5515,-0.3321,-0.0899,0.0,0.0,0.0,0.0,0.0,0.0,0.0,0.0,0.0,0.0,0.0,0.0,0.0,0.0,0.0,0.0,0.0,0.0,0.0,0.0,0.0,0.0,0.0,0.0,0.0,0.0,0.0,0.0,0.0,0.0,0.0,0.0,0.0,0.0,0.0,0.0,0.0,0.0,0.0,0.0,0.0,0.0,0.0,0.0,0.0,0.0,0.0,0.0,0.0,0.0,0.0,0.0,-0.1029,-0.2992,-0.3024,-0.4208,-0.6419,-0.6425,-0.6559,-0.6729,-0.6729,-0.6678,-0.6429,-0.432,-0.3372,-0.3045,-0.0852,0.0,0.0,0.0,0.0,0.0,-1.6978,-1.6978,-1.6944,-1.677,-1.6696,-1.6574,-1.6388,-1.63,-1.6218,-1.6096,-1.6083,-1.6083,-1.6083,-1.6083,-1.6083,-1.6083,-1.6083,-1.6083,-1.6083,-1.6083,-1.6083,-1.6083,-1.6049,-1.5947,-1.5813,-1.5527,-1.5398,-1.5364,-1.5242,-1.5181,-1.5181,-1.5181,-1.3833,-1.135,-1.135,-0.9875,-0.7363,-0.7902,-0.7721,-0.6935,-0.5091,-0.4035,-0.3346,-0.0911,0.0,0.0,0.0,0.0,0.0,0.0,0.0,0.0,0.0,0.0,0.0,0.0,0.0,0.0,0.0,0.0,0.0,0.0,0.0,0.0,0.0,0.0,0.0,0.0,0.0,0.0,0.0,0.0,0.0,0.0,0.0,0.0,0.0,0.0,0.0,0.0,0.0,0.0,0.0,0.0,0.0,0.0,0.0,0.0,0.0,0.0,0.0,0.0,0.0,0.0,0.0,0.0,-0.0262,-0.0736,-0.07,-0.1978,-0.4257,-0.4294,-0.5285,-0.701,-0.701,-0.6,-0.4279,-0.3746,-0.2458,-0.0718,-0.0224,0.0,0.0,0.0,0.0,0.0,-1.6978,-1.6978,-1.6958,-1.6876,-1.675,-1.6621,-1.6442,-1.6354,-1.6252,-1.6103,-1.6083,-1.6083,-1.6083,-1.6083,-1.6083,-1.6083,-1.6083,-1.6083,-1.6083,-1.6083,-1.6083,-1.6083,-1.6083,-1.6092,-1.601,-1.5737,-1.5554,-1.5411,-1.533,-1.5255,-1.5181,-1.5181,-1.3852,-1.1338,-1.0106,-0.8138,-0.5701,-0.5626,-0.4854,-0.3718,-0.3608,-0.2911,-0.1756,-0.046,0.0,0.0,0.0,0.0,0.0,0.0,0.0,0.0,0.0,0.0,0.0,0.0,0.0,0.0,0.0,0.0,0.0,0.0,0.0,0.0,0.0,0.0,0.0,0.0,0.0,0.0,0.0,0.0,0.0,0.0,0.0,0.0,0.0,0.0,0.0,0.0,0.0,0.0,0.0,0.0,0.0,0.0,0.0,0.0,0.0,0.0,0.0,0.0,0.0,0.0,0.0,0.0,0.0,0.0,0.0,-0.0667,-0.1866,-0.1877,-0.2553,-0.3714,-0.3714,-0.3,-0.1882,-0.1882,-0.1121,0.0,0.0,0.0,0.0,0.0,0.0,0.0,-1.6978,-1.6978,-1.6971,-1.6944,-1.6815,-1.6615,-1.6537,-1.6381,-1.6232,-1.6137,-1.6096,-1.6083,-1.6083,-1.6083,-1.6083,-1.6083,-1.6083,-1.6083,-1.6083,-1.6083,-1.6083,-1.6083,-1.6083,-1.6083,-1.6083,-1.6003,-1.5806,-1.5486,-1.5459,-1.5384,-1.5262,-1.5235,-1.4125,-1.1989,-0.9401,-0.7071,-0.5081,-0.4524,-0.2868,-0.0847,-0.2842,-0.2184,0.0,0.0,0.0,0.0,0.0,0.0,0.0,0.0,0.0,0.0,0.0,0.0,0.0,0.0,0.0,0.0,0.0,0.0,0.0,0.0,0.0,0.0,0.0,0.0,0.0,0.0,0.0,0.0,0.0,0.0,0.0,0.0,0.0,0.0,0.0,0.0,0.0,0.0,0.0,0.0,0.0,0.0,0.0,0.0,0.0,0.0,0.0,0.0,0.0,0.0,0.0,0.0,0.0,0.0,0.0,0.0,0.0,0.0,0.0,0.0,0.0224,0.0583,0.018,0.0224,0.0583,0.018,0.0,0.0,0.0,0.0,0.0,0.0,0.0,0.0,-1.6978,-1.6978,-1.6937,-1.675,-1.6601,-1.6493,-1.6524,-1.6286,-1.6151,-1.6266,-1.6164,-1.6083,-1.6083,-1.6083,-1.6083,-1.6083,-1.6083,-1.6083,-1.6083,-1.6083,-1.6083,-1.6083,-1.6083,-1.6083,-1.6083,-1.6062,-1.5967,-1.584,-1.5669,-1.5546,-1.5526,-1.5445,-1.5187,-1.4752,-1.2047,-1.0677,-1.0248,-0.8011,-0.5592,-0.3322,-0.3649,-0.2276,0.0,0.0,0.0,0.0,0.0,0.0,0.0,0.0,0.0,0.0,0.0,0.0,0.0,0.0,0.0,0.0,0.0,0.0,0.0,0.0,0.0,0.0,0.0,0.0,0.0,0.0,0.0,0.0,0.0,0.0,0.0,0.0,0.0,0.0,0.0,0.0,0.0,0.0,0.0,0.0,0.0,0.0,0.0,0.0,0.0,0.0,0.0,0.0,0.0,0.0,0.0,0.0,0.0,0.0,0.0,0.0,0.0,0.0,0.0,0.0,0.1121,0.3,0.0897,0.1166,0.2955,0.0852,0.0,0.0,0.0,0.0,0.0,0.0,0.0,0.0,-1.6978,-1.6978,-1.6958,-1.689,-1.6822,-1.672,-1.6551,-1.6408,-1.6293,-1.6198,-1.6123,-1.6083,-1.6083,-1.6083,-1.6083,-1.6083,-1.6083,-1.6083,-1.6083,-1.6083,-1.6083,-1.6083,-1.6083,-1.6083,-1.6083,-1.6083,-1.6049,-1.603,-1.5832,-1.5716,-1.5587,-1.5519,-1.5493,-1.5309,-1.2698,-1.1489,-1.1244,-0.8684,-0.6127,-0.3803,-0.3803,-0.2285,0.0,0.0,0.0,0.0,0.0,0.0,0.0,0.0,0.0,0.0,0.0,0.0,0.0,0.0,0.0,0.0,0.0,0.0,0.0,0.0,0.0,0.0,0.0,0.0,0.0,0.0,0.0,0.0,0.0,0.0,0.0,0.0,0.0,0.0,0.0,0.0,0.0,0.0,0.0,0.0,0.0,0.0,0.0,0.0,0.0,0.0,0.0,0.0,0.0,0.0,0.0,0.0,0.0,0.0,0.0,0.0,0.0,0.0,0.0,0.0,0.0583,0.1524,0.0449,0.0583,0.1524,0.0449,0.0,0.0,0.0,0.0807,0.2016,0.2016,0.2821,0.3982]},{"header":{"parameterUnit":"m.s-1","parameterCategory":1,"la1":30.6,"la2":28.766,"lo1":-90.7593,"lo2":-88.6598,"dy":0.0162,"dx":0.0183,"nx":116,"ny":114,"refTime":"2024-06-21T06:00:00:Z","depth":0,"parameterNumber":3,"parameterNumberName":"V-component_of_WINDS"},"data":[0.0,0.0,0.0,0.0,0.0,0.0,0.0,0.0,0.0,0.0,0.0,0.0,0.0,0.0,0.0,0.0,0.0,0.0,0.0,0.0,0.0,0.0,0.0,0.0,0.0,0.0,0.0,0.0,0.0,0.0,0.0,0.0,0.0,0.0,0.0,0.0,0.0,0.0,0.0,0.0,0.0,0.0,0.0,0.0,0.0,0.0,0.0,0.0,0.0,0.0,0.0,0.0,0.0,0.0,0.0,0.0,0.0,0.0,0.0,0.0,0.0,0.0,0.0,0.0,0.0,0.0,0.0,0.0,0.0,0.0,0.0,0.0,0.0,0.0,0.0,0.0,0.0,0.0,0.0,0.0,0.0,0.0,0.0,0.0,0.0,0.0,0.0,0.0,0.0,0.0,0.0,0.0,0.0,0.0,0.0,0.0,0.0,0.0,0.0,0.0,0.0,0.0,0.0,0.0,0.0,0.0,0.0,0.0,0.0,0.0,0.0,0.0,0.0,0.0,0.0,0.0,0.0,0.0,0.0,0.0,0.0,0.0,0.0,0.0,0.0,0.0,0.0,0.0,0.0,0.0,0.0,0.0,0.0,0.0,0.0,0.0,0.0,0.0,0.0,0.0,0.0,0.0,0.0,0.0,0.0,0.0,0.0,0.0,0.0,0.0,0.0,0.0,0.0,0.0,0.0,0.0,0.0,0.0,0.0,0.0,0.0,0.0,0.0,0.0,0.0,0.0,0.0,0.0,0.0,0.0,0.0,0.0,0.0,0.0,0.0,0.0,0.0,0.0,0.0,0.0,0.0,0.0,0.0,0.0,0.0,0.0,0.0,0.0,0.0,0.0,0.0,0.0,0.0,0.0,0.0,0.0,0.0,0.0,0.0,0.0,0.0,0.0,0.0,0.0,0.0,0.0,0.0,0.0,0.0,0.0,0.0,0.0,0.0,0.0,0.0,0.0,0.0,0.0,0.0,0.0,0.0,0.0,0.0,0.0,0.0,0.0,0.0,0.0,0.0,0.0,0.0,0.0,0.0,0.0,0.0,0.0,0.0,0.0,0.0,0.0,0.0,0.0,0.0,0.0,0.0,0.0,0.0,0.0,0.0,0.0,0.0,0.0,0.0,0.0,0.0,0.0,0.0,0.0,0.0,0.0,0.0,0.0,0.0,0.0,0.0,0.0,0.0,0.0,0.0,0.0,0.0,0.0,0.0,0.0,0.0,0.0,0.0,0.0,0.0,0.0,0.0,0.0,0.0,0.0,0.0,0.0,0.0,0.0,0.0,0.0,0.0,0.0,0.0,0.0,0.0,0.0,0.0,0.0,0.0,0.0,0.0,0.0,0.0,0.0,0.0,0.0,0.0,0.0,0.0,0.0,0.0,0.0,0.0,0.0,0.0,0.0,0.0,0.0,0.0,0.0,0.0,0.0,0.0,0.0,0.0,0.0,0.0,0.0,0.0,0.0,0.0,0.0,0.0,0.0,0.0,0.0,0.0,0.0,0.0,0.0,0.0,0.0,0.0,0.0,0.0,0.0,0.0,0.0,0.0,0.0,0.0,0.0,0.0,0.0,0.0,0.0,0.0,0.0,0.0,0.0,0.0,0.0,0.0,0.0,0.0,0.0,0.0,0.0,0.0,0.0,0.0,0.0,0.0,0.0,0.0,0.0,0.0,0.0,0.0,0.0,0.0,0.0,0.0,0.0,0.0,0.0,0.0,0.0,0.0,0.0,0.0,0.0,0.0,0.0,0.0,0.0,0.0,0.0,0.0,0.0,0.0,0.0,0.0,0.0,0.0,0.0,0.0,0.0,0.0,0.0,0.0,0.0,0.0,0.0,0.0,0.0,0.0,0.0,0.0,0.0,0.0,0.0,0.0,0.0,0.0,0.0,0.0,0.0,0.0,0.0,0.0,0.0,0.0,0.0,0.0,0.0,0.0,0.0,0.0,0.0,0.0,0.0,0.0,0.0,0.0,0.0,0.0,0.0,0.0,0.0,0.0,0.0,0.0,0.0,0.0,0.0,0.0,0.0,0.0,0.0,0.0,0.0,0.0,0.0,0.0,0.0,0.0,0.0,0.0,0.0,0.0,0.0,0.0,0.0,0.0,0.0,0.0,0.0,0.0,0.0,0.0,0.0,0.0,0.0,0.0,0.0,0.0,0.0,0.0,0.0,0.0,0.0,0.0,0.0,0.0,0.0,0.0,0.0,0.0,0.0,0.0,0.0,0.0,0.0,0.0,0.0,0.0,0.0,0.0,0.0,0.0,0.0,0.0,0.0,0.0,0.0,0.0,0.0,0.0,0.0,0.0,0.0,0.0,0.0,0.0,0.0,0.0,0.0,0.0,0.0,0.0,0.0,0.0,0.0,0.0,0.0,0.0,0.0,0.0,0.0,0.0,0.0,0.0,0.0,0.0,0.0,0.0,0.0,0.0,0.0,0.0,0.0,0.0,0.0,0.0,0.0,0.0,0.0,0.0,0.0,0.0,0.0,0.0,0.0,0.0,0.0,0.0,0.0,0.0,0.0,0.0,0.0,0.0,0.0,0.0,0.0,0.0,0.0,0.0,0.0,0.0,0.0,0.0,0.0,0.0,0.0,0.0,0.0,0.0,0.0,0.0,0.0,0.0,0.0,0.0,0.0,0.0,0.0,0.0,0.0,0.0,0.0,0.0,0.0,0.0,0.0,0.0,0.0,0.0,0.0,0.0,0.0,0.0,0.0,0.0,0.0,0.0,0.0,0.0,0.0,0.0,0.0,0.0,0.0,0.0,0.0,0.0,0.0,0.0,0.0,0.0,0.0,0.0,0.0,0.0,0.0,0.0,0.0,0.0,0.0,0.0,0.0,0.0,0.0,0.0,0.0,0.0,0.0,0.0,0.0,0.0,0.0,0.0,0.0,0.0,0.0,0.0,0.0,0.0,0.0,0.0,0.0,0.0,0.0,0.0,0.0,0.0,0.0,0.0,0.0,0.0,0.0,0.0,0.0,0.0,0.0,0.0,0.0,0.0,0.0,0.0,0.0,0.0,0.0,0.0,0.0,0.0,0.0,0.0,0.0,0.0,0.0,0.0,0.0,0.0,0.0,0.0,0.0,0.0,0.0,0.0,0.0,0.0,0.0,0.0,0.0,0.0,0.0,0.0,0.0,0.0,0.0,0.0,0.0,0.0,0.0,0.0,0.0,0.0,0.0,0.0,0.0,0.0,0.0,0.0,0.0,0.0,0.0,0.0,0.0,0.0,0.0,0.0,0.0,0.0,0.0,0.0,0.0,0.0,0.0,0.0,0.0,0.0,0.0,0.0,0.0,0.0,0.0,0.0,0.0,0.0,0.0,0.0,0.0,0.0,0.0,0.0,0.0,0.0,0.0,0.0,0.0,0.0,0.0,0.0,0.0,0.0,0.0,0.0,0.0,0.0,0.0,0.0,0.0,0.0,0.0,0.0,0.0,0.0,0.0,0.0,0.0,0.0,0.0,0.0,0.0,0.0,0.0,0.0,0.0,0.0,0.0,0.0,0.0,0.0,0.0,0.0,0.0,0.0,0.0,0.0,0.0,0.0,0.0,0.0,0.0,0.0,0.0,0.0,0.0,0.0,0.0,0.0,0.0,0.0,0.0,0.0,0.0,0.0,0.0,0.0,0.0,0.0,0.0,0.0,0.0,0.0,0.0,0.0,0.0,0.0,0.0,0.0,0.0,0.0,0.0,0.0,0.0,0.0,0.0,0.0,0.0,0.0,0.0,0.0,0.0,0.0,0.0,0.0,0.0,0.0,0.0,0.0,0.0,0.0,0.0,0.0,0.0,0.0,0.0,0.0,0.0,0.0,0.0,0.0,0.0,0.0,0.0,0.0,0.0,0.0,0.0,0.0,0.0,0.0,0.0,0.0,0.0,0.0,0.0,0.0,0.0,0.0,0.0,0.0,0.0,0.0,0.0,0.0,0.0,0.0,0.0,0.0,0.0,0.0,0.0,0.0,0.0,0.0,0.0,0.0,0.0,0.0,0.0,0.0,0.0,0.0,0.0,0.0,0.0,0.0,0.0,0.0,0.0,0.0,0.0,0.0,0.0,0.0,0.0,0.0,0.0,0.0,0.0,0.0,0.0,0.0,0.0,0.0,0.0,0.0,0.0,0.0,0.0,0.0,0.0,0.0,0.0,0.0,0.0,0.0,0.0,0.0,0.0,0.0,0.0,0.0,0.0,0.0,0.0,0.0,0.0,0.0,0.0,0.0,0.0,0.0,0.0,0.0,0.0,0.0,0.0,0.0,0.0,0.0,0.0,0.0,0.0,0.0,0.0,0.0,0.0,0.0,0.0,0.0,0.0,0.0,0.0,0.0,0.0,0.0,0.0,0.0,0.0,0.0,0.0,0.0,0.0,0.0,0.0,0.0,0.0,0.0,0.0,0.0,0.0,0.0,0.0,0.0,0.0,0.0,0.0,0.0,0.0,0.0,0.0,0.0,0.0,0.0,0.0,0.0,0.0,0.0,0.0,0.0,0.0,0.0,0.0,0.0,0.0,0.0,0.0,0.0,0.0,0.0,0.0,0.0,0.0,0.0,0.0,0.0,0.0,0.0,0.0,0.0,0.0,0.0,0.0,0.0,0.0,0.0,0.0,0.0,0.0,0.0,0.0,0.0,0.0,0.0,0.0,0.0,0.0,0.0,0.0,0.0,0.0,0.0,0.0,0.0,0.0,0.0,0.0,0.0,0.0,0.0,0.0,0.0,0.0,0.0,0.0,0.0,0.0,0.0,0.0,0.0,0.0,0.0,0.0,0.0,0.0,0.0,0.0,0.0,0.0,0.0,0.0,0.0,0.0,0.0,0.0,0.0,0.0,0.0,0.0,0.0,0.0,0.0,0.0,0.0,0.0,0.0,0.0,0.0,0.0,0.0,0.0,0.0,0.0,0.0,0.0,0.0,0.0,0.0,0.0,0.0,0.0,0.0,0.0,0.0,0.0,0.0,0.0,0.0,0.0,0.0,0.0,0.0,0.0,0.0,0.0,0.0,0.0,0.0,0.0,0.0,0.0,0.0,0.0,0.0,0.0,0.0,0.0,0.0,0.0,0.0,0.0,0.0,0.0,0.0,0.0,0.0,0.0,0.0,0.0,0.0,0.0,0.0,0.0,0.0,0.0,0.0,0.0,0.0,0.0,0.0,0.0,0.0,0.0,0.0,0.0,0.0,0.0,0.0,0.0,0.0,0.0,0.0,0.0,0.0,0.0,0.0,0.0,0.0,0.0,0.0,0.0,0.0,0.0,0.0,0.0,0.0,0.0,0.0,0.0,0.0,0.0,0.0,0.0,0.0,0.0,0.0,0.0,0.0,0.0,0.0,0.0,0.0,0.0,0.0,0.0,0.0,0.0,0.0,0.0,0.0,0.0,0.0,0.0,0.0,0.0,0.0,0.0,0.0,0.0,0.0,0.0,0.0,0.0,0.0,0.0,0.0,0.0,0.0,0.0,0.0,0.0,0.0,0.0,0.0,0.0,0.0,0.0,0.0,0.0,0.0,0.0,0.0,0.0,0.0,0.0,0.0,0.0,0.0,0.0,0.0,0.0,0.0,0.0,0.0,0.0,0.0,0.0,0.0,0.0,0.0,0.0,0.0,0.0,0.0,0.0,0.0,0.0,0.0,0.0,0.0,0.0,0.0,0.0,0.0,0.0,0.0,0.0,0.0,0.0,0.0,0.0,0.0,0.0,0.0,0.0,0.0,0.0,0.0,0.0,0.0,0.0,0.0,0.0,0.0,0.0,0.0,0.0,0.0,0.0,0.0,0.0,0.0,0.0,0.0,0.0,0.0,0.0,0.0,0.0,0.0,0.0,0.0,0.0,0.0,0.0,0.0,0.0,0.0,0.0,0.0,0.0,0.0,0.0,0.0,0.0,0.0,0.0,0.0,0.0,0.0,0.0,0.0,0.0,0.0,0.0,0.0,0.0,0.0,0.0,0.0,0.0,0.0,0.0,0.0,0.0,0.0,0.0,0.0,0.0,0.0,0.0,0.0,0.0,0.0,0.0,0.0,0.0,0.0,0.0,0.0,0.0,0.0,0.0,0.0,0.0,0.0,0.0,0.0,0.0,0.0,0.0,0.0,0.0,0.0,0.0,2.4963,2.3304,0.0,0.0,0.0,0.0,0.0,0.0,0.0,0.0,0.0,0.0,0.0,0.0,0.0,0.0,0.0,0.0,0.0,0.0,0.0,0.0,0.0,0.0,0.0,1.6841,1.7643,1.7833,1.8194,1.8432,1.8432,1.8432,1.8432,1.8432,1.7738,1.7358,1.7358,1.6984,1.7171,1.7914,1.7914,1.8485,1.9589,1.8809,1.7581,1.6035,0.0,0.0,0.0,0.0,0.0,0.0,0.0,0.0,0.0,0.0,0.0,0.0,0.0,0.0,0.0,0.0,0.0,0.0,0.0,0.0,0.0,0.0,0.0,0.0,0.0,0.0,0.0,0.0,0.0,0.0,0.0,0.0,0.0,0.0,0.0,0.0,0.0,0.0,0.0,0.0,0.0,0.0,0.0,0.0,0.0,0.0,0.0,0.0,0.0,0.0,0.0,0.0,0.0,0.0,0.0,0.0,0.0,0.0,0.0,0.0,0.0,0.0,0.0,0.0,0.0,0.0,0.0,0.0,0.0,0.0,2.9364,2.7506,0.0,0.0,0.0,0.0,0.0,0.0,0.0,0.0,0.0,0.0,0.0,0.0,0.0,0.0,0.0,0.0,0.0,0.0,0.0,0.0,0.0,1.611,1.7107,1.8098,1.8844,1.9243,1.9337,1.9367,1.9367,1.9367,1.9367,1.9367,1.9263,1.9184,1.9184,1.9184,1.966,2.0692,2.1196,2.2156,2.3555,2.417,2.2817,1.9872,1.8837,0.0,0.0,0.0,0.0,0.0,0.0,0.0,0.0,0.0,0.0,0.0,0.0,0.0,0.0,0.0,0.0,0.0,0.0,0.0,0.0,0.0,0.0,0.0,0.0,0.0,0.0,0.0,0.0,0.0,0.0,0.0,0.0,0.0,0.0,0.0,0.0,0.0,0.0,0.0,0.0,0.0,0.0,0.0,0.0,0.0,0.0,0.0,0.0,0.0,0.0,0.0,0.0,0.0,0.0,0.0,0.0,0.0,0.0,0.0,0.0,0.0,0.0,0.0,3.8476,3.7956,3.7166,3.7166,3.7516,3.7956,3.4488,3.2651,3.1967,2.9616,0.0,0.0,0.0,0.0,0.0,0.0,0.0,0.0,0.0,0.0,0.0,0.0,0.0,0.0,0.0,0.0,0.0,0.0,0.0,1.7983,1.8407,1.9264,1.9923,2.0272,2.0673,2.0901,2.0901,2.0901,2.0901,2.0901,2.0242,1.9859,1.9859,1.9859,2.0874,2.2954,2.5546,2.7246,2.814,2.8216,2.8023,2.7407,2.3761,2.2539,2.2978,0.0,0.0,0.0,0.0,0.0,0.0,0.0,0.0,0.0,0.0,0.0,0.0,0.0,0.0,0.0,0.0,0.0,0.0,0.0,0.0,0.0,0.0,0.0,0.0,0.0,0.0,0.0,0.0,0.0,0.0,0.0,0.0,0.0,0.0,0.0,0.0,0.0,0.0,0.0,0.0,0.0,2.4601,2.681,0.0,0.0,0.0,0.0,0.0,0.0,0.0,0.0,0.0,0.0,0.0,0.0,0.0,3.2489,3.6713,4.0681,4.3374,4.4809,4.3992,4.3552,4.3416,4.3416,4.3484,4.3552,4.297,0.0,3.5026,3.4644,0.0,0.0,0.0,0.0,0.0,0.0,0.0,0.0,0.0,0.0,0.0,0.0,0.0,0.0,0.0,0.0,0.0,0.0,0.0,0.0,0.0,2.2048,2.2857,2.3623,2.4309,2.4234,2.3142,2.3052,2.2738,2.206,2.1555,2.1358,2.1505,2.2194,2.4052,2.7165,2.9693,3.1326,3.208,3.251,3.2883,3.3112,3.0912,2.8508,2.5984,2.3553,0.0,0.0,0.0,0.0,0.0,0.0,0.0,0.0,0.0,0.0,0.0,0.0,0.0,0.0,0.0,0.0,0.0,0.0,0.0,0.0,0.0,0.0,0.0,0.0,0.0,0.0,0.0,0.0,0.0,0.0,0.0,0.0,0.0,0.0,0.0,0.0,0.0,0.0,0.0,2.4914,2.7385,2.8349,2.8924,2.8899,0.0,0.0,0.0,0.0,0.0,0.0,0.0,0.0,0.0,3.7968,3.7388,3.8679,4.2116,4.4865,4.6515,4.7075,4.665,4.6684,4.7071,4.665,4.6447,4.6447,4.6022,4.4079,4.1123,3.898,3.6896,3.48,0.0,0.0,0.0,0.0,3.2872,3.3131,0.0,0.0,0.0,0.0,0.0,0.0,0.0,0.0,0.0,0.0,0.0,0.0,2.3653,2.4872,2.5851,2.6704,2.7335,2.7057,2.5525,2.4914,2.429,2.3476,2.2867,2.2759,2.3277,2.5202,2.7782,3.0944,3.3318,3.4855,3.5581,3.628,3.6854,3.7276,3.6726,3.4046,2.9789,2.7348,2.5773,2.4574,0.0,0.0,0.0,0.0,0.0,0.0,0.0,0.0,0.0,0.0,0.0,0.0,0.0,0.0,0.0,0.0,0.0,0.0,0.0,0.0,0.0,0.0,0.0,0.0,0.0,0.0,0.0,0.0,0.0,0.0,0.0,0.0,0.0,0.0,0.0,0.0,0.0,2.8222,3.0253,3.0625,3.1843,3.2114,0.0,0.0,0.0,0.0,0.0,0.0,3.7505,3.887,4.0865,4.3639,4.3349,4.4316,4.6819,4.8037,4.868,4.8732,4.8732,4.9037,4.9544,4.9003,4.8732,4.8698,4.8173,4.7496,4.6549,4.2983,4.065,3.9158,3.7681,3.6965,3.6882,3.7676,3.7939,3.8212,0.0,0.0,0.0,0.0,0.0,0.0,0.0,0.0,0.0,0.0,0.0,2.441,2.5453,2.7165,2.8256,2.8355,2.8491,2.835,2.7932,2.6058,2.5129,2.5429,2.3968,2.3692,2.4857,2.8816,3.163,3.321,3.6038,3.7754,3.8493,3.9099,3.9408,3.9437,3.9402,3.8019,3.5501,3.2505,3.0343,2.8614,2.5188,0.0,0.0,0.0,0.0,0.0,0.0,0.0,0.0,0.0,0.0,0.0,0.0,0.0,0.0,0.0,0.0,0.0,0.0,0.0,0.0,0.0,0.0,0.0,0.0,0.0,0.0,0.0,0.0,0.0,0.0,0.0,0.0,0.0,0.0,0.0,0.0,0.0,0.0,3.5092,3.5994,0.0,0.0,0.0,0.0,3.7335,3.8261,3.9986,4.2848,4.3809,4.5311,4.7549,4.7361,4.8037,4.988,5.1132,5.1522,5.1032,5.1032,5.1066,5.11,5.1066,5.1032,5.1032,5.0998,5.0574,4.9643,4.665,4.4505,4.3105,4.3024,4.255,4.2023,4.2746,4.3017,4.3145,0.0,0.0,0.0,1.8442,1.8992,1.9535,1.9653,2.0272,2.1061,2.1957,2.407,2.6257,2.8184,3.0163,3.1666,3.2494,3.2429,3.176,3.0365,2.8158,2.7274,2.8203,2.6504,2.7138,3.0647,3.2332,3.4589,3.7391,3.8862,3.9979,4.0697,4.0933,4.1223,4.1597,4.1597,4.1032,3.9799,3.5578,3.3166,3.184,2.7591,2.5145,0.0,0.0,0.0,0.0,0.0,0.0,0.0,0.0,0.0,0.0,0.0,0.0,0.0,0.0,0.0,0.0,0.0,0.0,0.0,0.0,0.0,0.0,0.0,0.0,0.0,0.0,0.0,0.0,0.0,0.0,0.0,0.0,0.0,0.0,0.0,0.0,0.0,3.8384,4.0007,0.0,3.9331,4.029,4.1352,4.2164,4.3775,4.5384,4.6906,4.7733,4.8714,4.9984,4.9916,5.0405,5.1522,5.1961,5.2367,5.2689,5.2689,5.2689,5.2655,5.2131,5.1911,5.1894,5.1404,5.1066,5.0744,4.9679,4.836,4.7008,4.7008,4.6534,4.594,4.6196,4.5993,4.5635,1.7122,1.7963,0.0,1.8934,1.9604,2.0165,2.0267,2.1136,2.2084,2.2972,2.5811,2.852,3.06,3.3084,3.4877,3.5592,3.522,3.436,3.2958,3.0363,2.9309,3.0228,2.9431,3.0821,3.4751,3.5656,3.7349,3.9954,4.0922,4.1624,4.2093,4.2286,4.2589,4.2985,4.2985,4.2877,4.2481,3.8932,3.6725,3.5183,3.1117,2.8784,2.7443,0.0,0.0,0.0,0.0,0.0,0.0,0.0,0.0,0.0,0.0,0.0,0.0,0.0,0.0,0.0,0.0,0.0,0.0,0.0,0.0,0.0,0.0,0.0,0.0,0.0,0.0,0.0,0.0,0.0,0.0,0.0,0.0,0.0,0.0,3.8125,4.0764,4.1542,4.3558,4.4437,4.32,4.4688,4.592,4.6428,4.78,4.907,5.0067,5.0574,5.1183,5.1945,5.1979,5.2216,5.2706,5.2706,5.2976,5.3518,5.3518,5.3518,5.3484,5.2942,5.2706,5.2672,5.2198,5.1979,5.1979,5.1979,5.1404,5.0473,4.9965,4.9442,4.9003,4.9003,4.8698,4.8206,1.6311,1.716,1.797,1.8857,1.9738,2.0307,2.0356,2.1816,2.3205,2.4047,2.7994,3.1262,3.2614,3.5734,3.7644,3.7398,3.6618,3.5971,3.5627,3.2584,3.105,3.1488,3.2725,3.4509,3.6838,3.8737,4.0055,4.0836,4.2139,4.2785,4.2794,4.3323,4.3579,4.3579,4.3579,4.3543,4.3506,4.2727,4.1001,3.8629,3.5839,3.3911,3.2325,0.0,0.0,0.0,0.0,0.0,0.0,0.0,0.0,0.0,0.0,0.0,0.0,0.0,0.0,0.0,0.0,0.0,0.0,0.0,0.0,0.0,0.0,0.0,0.0,0.0,0.0,0.0,0.0,0.0,0.0,0.0,0.0,0.0,3.8091,4.1225,4.3862,4.4668,4.6684,4.7718,4.6989,4.7582,4.8631,5.0083,5.0184,5.0811,5.2266,5.2334,5.2706,5.3518,5.3568,5.3585,5.3619,5.3585,5.3551,5.3551,5.3534,5.3518,5.3518,5.3518,5.3518,5.3518,5.3518,5.3518,5.3518,5.3518,5.3518,5.3348,5.1844,5.1269,5.1235,5.1235,5.1235,5.0998,1.6301,1.716,1.797,1.8857,1.9719,2.05,2.1153,2.2255,2.353,2.4922,2.8926,3.2262,3.3848,3.6794,3.8835,3.9369,3.7831,3.7055,3.7566,3.3801,3.2281,3.3947,3.6785,3.9122,4.0746,4.1532,4.2488,4.3606,4.4564,4.5031,4.5031,4.5168,4.5232,4.5232,4.5232,4.4929,4.437,4.4113,4.3314,4.1919,3.8831,3.6523,3.4689,0.0,0.0,0.0,0.0,0.0,0.0,0.0,0.0,0.0,0.0,0.0,0.0,0.0,0.0,0.0,0.0,0.0,0.0,0.0,0.0,0.0,0.0,0.0,0.0,0.0,0.0,0.0,0.0,0.0,0.0,0.0,4.1143,4.3708,4.2106,4.464,4.7143,4.8425,4.9593,5.022,5.0017,5.066,5.1251,5.1657,5.2232,5.2739,5.3145,5.3179,5.3518,5.4262,5.4864,5.5412,5.5963,5.5446,5.517,5.5154,5.4039,5.3518,5.3518,5.3518,5.3518,5.3518,5.3518,5.3518,5.3518,5.3518,5.3518,5.345,5.3027,5.2503,5.1995,5.1995,5.1641,5.123,1.6788,1.7636,1.8523,1.9408,1.9954,2.0626,2.1545,2.2473,2.3906,2.6257,3.0037,3.3319,3.5273,3.776,3.9405,3.983,3.8303,3.7359,3.7505,3.521,3.5119,3.7925,4.0022,4.1992,4.3782,4.399,4.4464,4.5214,4.5663,4.5883,4.5883,4.5883,4.5883,4.5883,4.5883,4.5626,4.5214,4.5214,4.4745,4.3828,4.1984,3.9999,3.7982,3.6084,3.4203,3.236,3.1002,3.0264,2.9745,2.8518,0.0,0.0,0.0,0.0,0.0,0.0,0.0,0.0,0.0,0.0,0.0,0.0,0.0,0.0,0.0,0.0,0.0,0.0,0.0,0.0,0.0,0.0,0.0,0.0,4.5821,4.8381,4.771,4.9152,5.0679,5.184,5.2639,5.3107,5.3107,5.3779,5.4243,5.4243,5.5019,5.5469,5.5469,5.5469,5.5499,5.5551,5.6359,5.6835,5.6907,5.6456,5.6264,5.6248,5.5007,5.4414,5.4414,5.4414,5.4414,5.438,5.4093,5.3957,5.3923,5.3619,5.3667,5.393,0.0,0.0,0.0,0.0,5.3175,5.3114,1.7557,1.8411,1.9272,2.0163,2.0377,2.0784,2.1776,2.2617,2.4317,2.7557,3.0997,3.4045,3.6351,3.8328,3.9427,3.9412,3.8408,3.749,3.6732,3.7226,3.899,4.2156,4.2543,4.3718,4.5847,4.5993,4.603,4.603,4.614,4.6177,4.6177,4.6177,4.6177,4.6177,4.6177,4.6104,4.603,4.603,4.559,4.4847,4.4847,4.3524,4.1361,3.9329,3.7846,3.6561,3.4527,3.2997,3.1833,3.1113,0.0,0.0,0.0,0.0,0.0,0.0,0.0,0.0,0.0,0.0,0.0,0.0,0.0,0.0,0.0,0.0,0.0,0.0,0.0,0.0,0.0,0.0,0.0,0.0,4.99,5.2409,5.3806,5.4078,5.4296,5.466,5.5384,5.583,5.583,5.6567,5.7056,5.7056,5.7744,5.8184,5.8184,5.8184,0.0,0.0,0.0,5.8139,5.7454,5.7349,5.7314,5.7298,5.642,5.5996,5.5996,5.5996,5.5996,5.5962,5.5298,5.5009,5.4975,5.4209,5.4207,5.4649,5.4011,5.375,5.3833,5.4482,5.5129,5.5632,1.8406,1.8785,1.9272,2.0163,2.0929,2.1743,2.2616,2.351,2.499,2.7644,3.0549,3.2989,3.4709,3.7076,3.8794,3.9331,3.9136,3.8954,3.898,4.1481,4.2772,4.232,4.4158,4.5406,4.5883,4.6535,4.6865,4.6865,4.7526,4.7819,4.7819,4.7819,4.7819,4.7819,4.7819,4.7489,4.6865,4.6865,4.6388,4.5663,4.5663,4.4252,4.2094,4.1672,4.0411,3.8798,3.7768,3.7033,3.6502,3.5769,3.4483,3.3074,3.2417,3.0432,0.0,0.0,0.0,0.0,0.0,0.0,0.0,0.0,0.0,0.0,0.0,0.0,0.0,0.0,0.0,0.0,0.0,0.0,0.0,5.0868,5.3776,5.6073,5.701,5.7692,5.7443,5.5701,5.6212,5.6687,5.6687,5.746,5.7936,5.7936,5.8113,5.8184,5.8184,5.8184,5.8394,5.8815,5.9617,6.025,6.0691,6.011,5.9787,5.9787,5.8379,0.0,5.7741,5.7741,5.7741,5.7706,5.7565,5.751,5.7439,5.6601,5.5956,5.548,5.532,5.5262,5.5291,5.5437,5.5581,5.5773,1.9135,1.9507,1.9784,2.0289,2.1117,2.1996,2.2926,2.3719,2.5309,2.8267,3.0263,3.2167,3.414,3.5182,3.6019,3.6752,3.7528,3.8801,4.0694,4.2718,4.4086,4.4662,4.5874,4.6682,4.7095,4.7489,4.7709,4.7709,4.8113,4.8526,4.894,4.894,4.915,4.9554,4.9554,4.9114,4.8343,4.8343,4.7645,4.6498,4.6498,4.5544,4.4048,4.3644,4.2514,4.1026,4.0329,3.9551,3.8755,3.8109,3.6885,3.5599,3.5227,3.3322,3.0929,0.0,0.0,0.0,0.0,0.0,0.0,0.0,0.0,0.0,0.0,0.0,0.0,0.0,0.0,4.4012,4.6628,0.0,5.2313,5.4262,5.6491,5.8132,5.8535,5.9269,5.9225,5.764,5.8166,5.8635,5.8635,5.942,5.9889,5.9889,6.0251,6.0503,6.0503,6.0914,6.111,6.1055,6.2245,6.2885,6.2787,6.2029,6.1632,6.1618,6.0036,5.9309,5.9309,5.9309,5.9309,5.9274,5.8899,5.8736,5.8731,5.8288,5.787,5.749,5.7467,5.6979,5.6299,5.6299,5.6527,5.6927,1.9593,2.0015,2.0283,2.0581,2.1362,2.2273,2.3156,2.3976,2.55,2.8415,2.9617,3.1004,3.3051,3.2916,3.3147,3.4344,3.6276,3.8839,4.2113,4.3346,4.4931,4.7113,4.7279,4.7636,4.8296,4.8489,4.8563,4.8563,4.871,4.915,4.9821,4.9821,5.0188,5.0802,5.0802,5.0435,4.9821,4.9684,4.883,4.7562,4.7406,4.6865,4.6067,4.525,4.4117,4.2851,4.2205,4.1113,3.989,3.9484,3.8486,3.7341,3.727,3.587,3.402,3.2638,3.1614,0.0,0.0,0.0,0.0,0.0,0.0,0.0,0.0,3.9887,4.1622,4.4993,4.7445,4.9794,5.2438,5.4106,5.5647,5.7262,5.8572,5.9416,5.9416,6.0114,6.037,5.9747,6.0224,6.0639,6.0639,6.1374,6.1887,6.2083,6.2695,6.3123,6.327,6.3943,6.4027,6.3323,6.4596,6.4952,6.4243,6.3599,6.3273,6.3259,6.196,6.1364,6.1328,6.1185,6.1114,6.1078,6.0302,5.9873,5.9752,5.9741,5.9654,5.9525,5.9444,5.8665,5.7538,5.7248,5.7486,5.7997,1.9473,1.9738,2.0183,2.1267,2.2231,2.3124,2.3945,2.4833,2.5827,2.6876,2.7803,2.8708,2.9606,3.0344,3.2046,3.5097,3.8238,4.1085,4.3422,4.547,4.6892,4.7599,4.7988,4.8223,4.8296,4.905,4.9454,4.9454,5.0178,5.0582,5.0655,5.0655,5.0729,5.0802,5.0802,5.0765,5.0618,4.9894,4.949,4.9233,4.8489,4.7672,4.6892,4.6067,4.4928,4.3651,4.2878,4.1711,4.0517,4.0665,4.0089,3.9307,3.887,3.8125,3.7193,3.6191,3.4881,3.3818,3.4269,3.501,3.6524,4.003,4.0596,4.1777,0.0,4.814,4.8434,5.0819,5.2543,5.4209,5.593,5.7005,5.8107,5.9758,6.0162,6.026,6.026,6.097,6.141,6.1337,6.141,6.1484,6.1484,6.2181,6.2989,6.3772,6.3919,6.4273,6.4995,6.5105,6.5115,6.5037,6.5212,6.5262,6.5147,6.5074,6.5024,6.5024,6.4848,6.4735,6.4735,6.4017,6.3688,6.3651,6.2761,6.1992,6.1359,6.1361,6.0909,6.0286,6.0273,6.0151,5.9834,5.8405,5.7939,5.7997,1.9498,1.9652,2.0179,2.1735,2.2465,2.3042,2.3742,2.4693,2.5568,2.6255,2.6704,2.7277,2.8202,2.9107,3.043,3.2352,3.6507,3.9976,4.2143,4.525,4.7214,4.7678,4.808,4.8296,4.8296,4.939,4.9953,4.9953,5.0982,5.1737,5.2214,5.2186,5.2334,5.2556,5.2556,5.2159,5.1473,5.0618,5.0041,4.9527,4.8636,4.8113,4.7672,4.6397,4.5251,4.4153,4.2545,4.1557,0.0,4.0393,3.9986,3.9755,4.0006,3.894,3.7692,3.8177,3.7506,3.7174,3.9516,4.1507,4.3406,4.5459,4.7116,4.9039,5.2055,5.2809,5.3442,5.5301,5.6324,5.7259,5.8386,5.8666,5.9049,6.0199,6.0786,6.108,6.108,6.1374,6.1606,6.1606,6.1606,6.1777,6.2254,6.2609,6.316,6.4029,6.4103,6.4457,6.5251,6.5729,6.5999,6.5999,6.6439,6.6696,6.6696,6.6219,6.5999,6.5999,6.5508,6.5288,6.5288,6.4971,6.453,6.4066,6.3723,6.3062,6.2291,6.2291,6.2108,6.1728,6.1263,6.108,6.0896,5.9269,5.8682,5.8609,0.0,1.9481,2.0086,2.1862,2.2306,2.2709,2.3683,2.4469,2.5081,2.5452,2.5579,2.5962,2.6866,2.8002,2.9045,2.9962,3.4696,3.8619,4.0874,4.4431,4.6917,4.7972,4.819,4.8337,4.8477,4.9932,5.0642,5.0514,5.1981,5.3006,5.3549,5.3564,5.3728,5.3986,5.3851,5.318,5.2089,5.1193,5.0325,4.9527,4.8636,4.8186,4.7819,4.6434,4.5112,4.3812,4.1968,4.1026,4.0456,3.9241,3.9003,3.9237,3.9676,3.8949,3.8353,4.0354,4.1033,4.1623,4.3995,4.6521,4.8783,5.0059,5.2415,5.4602,5.5402,5.6217,5.7108,5.8283,5.8708,5.9146,5.9948,5.9902,5.9992,6.0778,6.1482,6.1924,6.1924,6.1741,6.1606,6.1606,6.141,6.1594,6.2389,6.2683,6.3233,6.4347,6.442,6.4861,6.5925,6.6512,6.6843,6.6843,6.7407,6.77,6.77,6.71,6.6843,6.6806,6.6256,6.5962,6.5962,6.5742,6.5191,6.442,6.4213,6.3723,6.3135,6.2903,6.2793,6.2756,6.2144,6.1924,6.1777,6.037,5.96,5.9123,0.0,1.9178,1.9841,2.1503,2.1724,2.2255,2.4089,2.4445,2.4398,2.4026,2.4257,2.4592,2.5059,2.6607,2.8052,2.9038,3.3814,3.7811,4.035,4.3387,4.6165,4.8653,4.8403,4.8401,4.8869,5.0873,5.1753,5.1363,5.3424,5.4446,5.4446,5.4446,5.4476,5.4444,5.4004,5.3339,5.2502,5.1325,5.0325,4.9527,4.8636,4.7819,4.7039,4.6214,4.4415,4.2241,4.1417,4.0125,3.8551,3.7161,3.7198,3.7784,3.726,3.8148,4.0014,4.335,4.607,4.7829,4.7168,4.8822,5.1307,5.3807,5.5659,5.7108,5.7914,5.8727,5.9322,5.936,5.9381,5.9627,6.043,6.0833,6.1294,6.2113,6.2518,6.2756,6.2756,6.2108,6.1606,6.1606,6.0896,6.075,6.1557,6.2352,6.349,6.5141,6.5251,6.5962,6.7554,6.7664,6.7664,6.7664,6.77,6.77,6.77,6.7664,6.7664,6.7664,6.7627,6.7627,6.759,6.6806,6.6035,6.5215,6.442,6.4103,6.3992,6.316,6.2793,6.2793,6.2756,6.2756,6.2646,6.1814,6.0529,5.9196,0.0,0.0,2.0408,2.1987,2.2415,2.2767,2.3483,2.3757,2.3727,2.348,2.3823,0.0,0.0,0.0,0.0,0.0,3.3615,3.6793,3.8845,4.2253,4.4875,4.6347,4.7574,4.8255,4.8424,5.0489,5.1454,5.1329,5.2895,5.3656,5.3656,5.3656,5.3499,5.3207,5.2793,5.2294,5.1665,5.0514,5.0151,5.0215,4.8296,4.7672,4.7672,4.5801,4.3599,4.125,0.0,3.8366,3.7674,3.6298,3.6334,3.7144,3.8053,3.8132,3.8627,4.2552,4.6066,4.8992,5.038,5.2793,5.5274,5.669,5.8291,5.9586,5.9847,6.014,6.0331,6.0331,5.9631,5.9429,6.0811,6.0443,6.0567,6.2501,6.2915,6.3215,6.3759,6.3133,6.2395,6.1851,6.2011,6.2096,6.1813,6.1932,6.2915,6.5141,6.5288,6.5999,6.7627,6.77,6.77,6.77,6.77,6.77,6.77,6.77,6.77,6.77,6.77,6.77,6.77,6.7407,6.6843,6.6072,6.5815,6.5094,6.4066,6.3759,6.3319,6.2793,6.2793,6.2793,6.2756,6.2499,6.1741,6.0639,0.0,0.0,0.0,2.2262,2.2473,0.0,0.0,0.0,0.0,0.0,0.0,0.0,0.0,0.0,0.0,0.0,0.0,3.5249,3.6709,3.9931,4.2436,4.3961,4.5246,4.6139,4.6587,4.8046,4.9039,4.9501,5.0762,5.1702,5.2318,5.2318,5.2176,5.1891,5.1481,5.0877,5.0152,4.9286,4.8973,4.8893,4.7012,4.6205,4.5957,4.4113,4.1727,0.0,3.7294,3.642,3.5937,3.4454,3.4886,3.6266,3.7744,3.9461,4.1424,4.4083,4.7489,5.1069,5.3863,5.6036,5.7901,5.966,6.0666,6.1248,6.1248,6.1018,6.0704,6.0396,5.9421,5.8947,6.0043,5.9095,5.9143,6.1978,6.2556,6.3135,6.4606,6.4096,6.3388,6.2841,6.301,6.3048,6.2812,6.2959,6.3854,6.5712,6.5753,6.6397,6.7908,6.7797,6.77,6.77,6.77,6.77,6.77,6.77,6.77,6.77,6.77,6.77,6.77,6.77,6.7407,6.6916,6.6623,6.5925,6.491,6.436,6.3759,6.3246,6.2903,6.2793,6.2793,6.2793,6.2462,6.1851,0.0,0.0,0.0,0.0,0.0,0.0,0.0,0.0,0.0,0.0,0.0,0.0,0.0,0.0,0.0,0.0,0.0,0.0,3.4177,3.6591,3.9093,4.1609,4.1693,4.229,4.3537,4.4015,4.4834,4.6123,4.7299,4.874,5.0361,5.0389,5.0423,5.037,4.9921,4.9111,4.8049,4.7674,4.6826,4.57,4.4847,4.3599,4.2139,4.1287,3.9011,3.62,3.5298,3.4504,3.3583,3.212,3.3309,3.5634,3.6895,4.2139,4.7865,4.7958,5.0577,5.4159,5.7467,5.8467,5.9313,6.2506,6.2704,6.2095,6.2095,6.1364,6.0435,5.955,5.866,5.805,5.805,5.7028,5.727,6.066,6.1616,6.2822,6.5332,6.5057,6.4584,6.4547,6.3913,6.3761,6.4471,6.536,6.6173,6.6947,6.6709,6.7131,6.8465,6.8055,6.7774,6.7811,6.7811,6.7811,6.7811,6.7774,6.7774,6.7774,6.7737,6.77,6.77,6.77,6.77,6.7664,6.688,6.6549,6.6366,6.4787,6.4139,6.4029,6.3135,6.2793,6.2793,6.2793,6.2793,6.2683,0.0,0.0,0.0,0.0,0.0,0.0,0.0,0.0,0.0,0.0,0.0,0.0,0.0,0.0,0.0,0.0,0.0,0.0,3.3366,3.5139,3.7048,3.9068,4.0057,4.0979,4.198,4.2714,4.3297,4.3604,4.4714,4.5509,4.5932,4.6339,4.6526,4.6505,4.5866,4.5459,4.5155,4.4733,4.4381,4.3983,4.2571,4.1764,4.125,3.9856,3.8065,3.62,3.5298,3.4649,3.4203,3.4468,3.7542,4.1638,4.3447,4.6559,4.9859,5.1376,5.4276,5.7313,5.8781,6.0583,6.2237,6.3083,6.2704,6.2095,6.2095,6.0479,5.8704,5.7824,5.5972,5.4505,5.4505,5.5242,5.6721,5.949,6.2182,6.4548,6.6433,6.7091,6.7137,6.6485,6.6792,6.6907,6.6447,6.7389,6.8515,6.9751,6.8132,6.7605,6.8739,6.8663,6.8862,6.9463,6.9499,6.9499,6.9499,6.8898,6.8605,6.8605,6.7994,6.77,6.77,6.77,6.77,6.77,6.748,6.704,6.6402,6.5411,6.464,6.4029,6.3135,6.2793,6.2793,6.2793,6.2793,6.2756,0.0,0.0,0.0,0.0,0.0,0.0,0.0,0.0,0.0,0.0,0.0,0.0,0.0,0.0,0.0,0.0,0.0,0.0,0.0,3.3067,3.4324,3.5739,3.6326,3.7053,3.7904,3.8765,3.9183,3.9213,4.0549,4.1375,4.1772,4.2049,4.239,4.2705,4.2329,4.2098,4.1924,4.1712,4.1517,0.0,0.0,3.9305,3.8865,3.758,3.6296,3.5149,3.4783,3.5843,3.7705,3.9715,4.2365,4.5205,4.7416,4.9942,5.2543,5.4781,5.7044,5.9242,6.1204,6.2775,6.3852,6.3852,6.3243,6.2243,6.0781,5.9017,5.7055,5.4708,5.3092,5.1856,5.1082,5.2626,5.4857,5.7434,6.1012,6.432,6.675,6.7859,6.8353,6.8244,6.8975,6.9321,6.8821,6.9804,7.0806,7.159,6.9604,6.8885,7.0115,6.969,6.9633,7.0073,7.011,7.011,7.011,6.9302,6.8885,6.8885,6.8091,6.77,6.77,6.77,6.77,6.77,6.77,6.7444,6.6966,6.6145,6.5338,6.453,6.3686,6.3135,6.2793,6.2793,6.2793,6.2793,0.0,0.0,0.0,0.0,0.0,0.0,0.0,0.0,0.0,2.3549,2.3635,2.3929,2.4578,2.6222,0.0,0.0,0.0,0.0,0.0,0.0,3.1559,3.2438,3.2176,3.2383,3.3275,3.3976,3.4358,3.438,3.5945,3.711,3.7833,3.791,3.8294,3.8984,3.8944,3.8757,3.8484,3.8484,3.831,3.7984,3.7301,3.6604,3.5899,0.0,3.4424,3.386,3.4401,3.7392,4.1633,4.5434,4.7023,4.7826,5.0449,5.3081,5.5689,5.8115,5.9419,6.0723,6.3809,6.4697,6.4743,6.4628,6.3852,6.2275,5.9044,5.728,5.517,5.1169,5.0091,4.9399,4.7855,4.9697,5.2351,5.5241,5.9209,6.3172,6.6789,6.8013,6.893,6.9937,7.0667,7.1129,7.1245,7.2148,7.2775,7.2868,7.1264,7.0755,7.1906,7.1033,7.0518,7.0533,7.0519,7.0515,7.0403,6.9633,6.9142,6.9045,6.8238,6.7811,6.77,6.77,6.77,6.77,6.77,6.77,6.7627,6.6843,6.6035,6.5215,6.442,6.3576,6.2793,6.2793,6.2793,6.2793,0.0,0.0,0.0,0.0,0.0,0.0,0.0,0.0,0.0,0.0,2.4493,2.4148,2.5374,2.6388,0.0,0.0,0.0,0.0,0.0,0.0,0.0,3.1273,3.1025,3.1272,3.2088,3.2227,3.2302,3.2318,3.3551,3.4202,3.4396,3.4824,3.5115,3.5204,3.4946,3.4803,3.4736,3.4736,3.4689,3.4651,3.4504,3.4357,3.4211,3.4064,0.0,0.0,3.6008,3.7824,4.02,4.5908,4.9692,5.2613,5.5879,5.7808,5.9245,6.1073,6.222,6.3168,6.4416,6.5214,6.5513,6.4782,6.3435,6.1595,5.8896,5.5428,5.1967,4.9125,4.6894,4.5321,4.5009,4.7048,5.0274,5.4934,5.8709,6.2704,6.7513,6.8936,7.0052,7.1598,7.1905,7.2245,7.2969,7.3219,7.3636,7.4297,7.3598,7.3059,7.2816,7.2611,7.2597,7.2805,7.2817,7.2579,7.2092,7.127,7.0536,6.9889,6.9082,6.8348,6.77,6.77,6.77,6.77,6.77,6.77,6.7627,6.6843,6.6035,6.5215,6.442,6.3576,6.2793,6.2793,6.2793,6.2793,0.0,0.0,0.0,0.0,0.0,0.0,0.0,2.4767,2.5574,2.7151,2.6682,2.6361,2.6747,2.7231,2.7704,0.0,0.0,0.0,0.0,0.0,0.0,3.0298,3.0093,3.0171,3.0522,3.1379,3.1308,3.0343,0.0,3.2195,3.1784,3.2032,3.2401,3.276,3.2612,3.2565,3.2565,3.2565,3.2779,3.3176,3.3176,3.3289,3.3508,3.3739,0.0,0.0,3.6481,3.8594,4.1042,4.5367,4.9356,5.3197,5.7082,5.9292,6.0773,6.2482,6.3334,6.3969,6.5134,6.5745,6.5683,6.4286,6.2666,6.0287,5.5967,5.2697,4.9505,4.562,4.4201,4.3393,4.2474,4.547,4.8889,5.1356,5.4972,5.9435,6.4968,6.6506,6.8321,7.179,7.2976,7.3668,7.4084,7.4244,7.4635,7.5308,7.4864,7.4389,7.4114,7.3821,7.3758,7.3876,7.3865,7.359,7.297,7.2156,7.1192,7.0073,6.9302,6.8495,6.77,6.77,6.77,6.77,6.77,6.77,6.7664,6.7297,6.6659,6.5852,6.5044,6.42,6.3429,6.2976,6.2793,6.2793,0.0,0.0,0.0,0.0,0.0,0.0,0.0,2.6014,2.685,2.888,2.9117,2.8986,2.8614,2.8403,2.8272,0.0,0.0,0.0,0.0,0.0,0.0,0.0,2.9493,2.9414,2.9469,0.0,0.0,2.9411,3.0869,0.0,0.0,0.0,0.0,0.0,3.0876,3.0876,3.0876,3.0876,3.1458,0.0,0.0,3.2641,3.3372,0.0,0.0,0.0,0.0,3.9119,4.17,4.4397,4.7778,5.1505,5.5434,5.8409,6.0782,6.2348,6.3254,6.4086,6.548,6.5954,6.5626,6.3765,6.1897,5.9011,5.3236,5.0313,4.7509,4.2773,4.22,4.2162,4.1012,4.4047,4.712,4.8202,5.151,5.6088,6.2166,6.4243,6.6898,7.1636,7.3668,7.4776,7.4969,7.5184,7.5471,7.5954,7.5567,7.5289,7.5289,7.4886,7.4599,7.4485,7.4485,7.4206,7.359,7.2845,7.1835,7.0541,6.9605,6.8752,6.7958,6.7774,6.77,6.77,6.77,6.77,6.77,6.77,6.7223,6.6402,6.5632,6.4824,6.3992,6.3123,6.2793,6.2793,0.0,0.0,0.0,0.0,0.0,0.0,0.0,2.729,2.8656,3.0834,3.1133,3.1109,3.106,2.9793,2.8917,0.0,0.0,0.0,0.0,0.0,0.0,0.0,0.0,0.0,0.0,0.0,0.0,3.0823,3.1709,0.0,0.0,0.0,0.0,0.0,0.0,2.9207,2.9207,2.9207,0.0,0.0,0.0,0.0,0.0,0.0,0.0,0.0,0.0,3.8828,4.0012,4.332,4.574,4.7812,5.0553,5.475,5.8924,6.0005,6.1871,6.3848,6.4913,6.5567,6.5518,6.3749,6.1429,5.8275,5.3082,4.9428,4.612,4.2543,4.1239,4.0935,4.1542,4.2043,4.3889,4.8548,5.089,5.4505,6.1248,6.4903,6.8212,7.179,7.3668,7.5007,7.5784,7.5908,7.5939,7.6015,7.5947,7.5924,7.5924,7.5887,7.5575,7.5045,7.5036,7.4789,7.4217,7.3588,7.2857,7.2,7.0622,6.9559,6.8752,6.8017,6.77,6.77,6.77,6.77,6.77,6.77,6.7223,6.6402,6.5632,6.4824,6.3992,6.3123,6.2793,6.2793,0.0,0.0,0.0,0.0,0.0,0.0,2.7368,2.7614,2.8755,3.2158,3.2001,3.1768,3.2308,3.1212,3.0057,2.9091,0.0,0.0,0.0,0.0,0.0,0.0,0.0,0.0,0.0,0.0,3.1139,3.1004,3.1816,0.0,0.0,0.0,0.0,0.0,0.0,2.9464,2.9023,2.9506,0.0,0.0,0.0,0.0,0.0,0.0,0.0,0.0,0.0,0.0,3.8665,4.1168,4.2816,4.4081,4.5624,4.8938,5.3125,5.7733,5.9823,6.1154,6.355,6.4332,6.421,6.2912,6.0287,5.6786,5.2202,4.8548,4.5167,4.1704,4.0743,4.0593,4.0935,4.147,4.2773,4.5855,4.6894,4.9702,5.6555,5.9556,6.3249,6.9206,7.186,7.3937,7.5822,7.6015,7.6015,7.6015,7.6015,7.6015,7.6015,7.6015,7.5902,7.5662,7.5624,7.537,7.4808,7.4551,7.3862,7.2669,7.1281,7.0224,6.9408,6.8231,6.77,6.77,6.77,6.77,6.77,6.77,6.7517,6.71,6.5802,6.5105,6.4677,6.3306,6.2793,6.2793,0.0,0.0,0.0,0.0,0.0,2.5281,2.759,2.7729,2.878,3.2208,3.1923,3.1712,3.2549,3.1474,3.032,2.9427,2.9133,0.0,0.0,0.0,0.0,0.0,0.0,0.0,0.0,0.0,3.1684,3.1547,3.2661,3.3016,0.0,0.0,3.1677,3.058,0.0,0.0,0.0,0.0,0.0,0.0,0.0,0.0,0.0,0.0,0.0,0.0,0.0,0.0,0.0,0.0,0.0,4.1162,4.1777,4.3932,4.7567,5.4277,5.738,5.9163,6.1772,6.2965,6.3209,6.2038,5.9132,5.5516,5.1284,4.7668,4.4321,4.117,4.0516,4.0516,4.0516,4.12,4.2273,4.3701,4.4778,4.7548,5.3626,5.6593,6.0517,6.6898,6.9667,7.2091,7.463,7.5553,7.6015,7.6015,7.6015,7.6015,7.6015,7.6015,7.6015,7.6015,7.6015,7.5803,7.5387,7.5172,7.4581,7.3611,7.2015,7.0943,7.0345,6.8864,6.8085,6.7943,6.811,6.8007,6.7714,6.7889,6.785,6.7554,6.6182,6.5508,6.5141,6.371,6.3013,6.2793,0.0,0.0,0.0,0.0,0.0,0.0,2.6684,2.7751,2.9015,3.0711,3.0747,3.0905,3.1719,3.0127,2.9354,3.0136,2.9464,0.0,0.0,0.0,0.0,0.0,0.0,0.0,0.0,0.0,3.2888,3.2888,3.4612,3.4877,3.3783,3.351,3.239,3.058,0.0,0.0,0.0,0.0,0.0,0.0,0.0,0.0,3.3341,0.0,0.0,0.0,0.0,0.0,0.0,0.0,0.0,0.0,0.0,4.0508,4.3065,4.9178,5.4469,5.8544,5.955,6.1546,6.2897,6.1243,5.8248,5.4593,5.0394,4.6778,4.359,4.1016,4.0516,4.0516,4.0516,4.12,4.2081,4.297,4.5893,4.9586,5.3895,5.8094,6.2056,6.5519,6.7398,6.9436,7.1982,7.4514,7.6015,7.6015,7.6015,7.6015,7.6015,7.6015,7.6015,7.6015,7.6015,7.6015,7.5969,7.5404,7.51,7.5053,7.2826,7.1803,7.1727,7.0057,6.8989,6.8535,6.9053,6.8682,6.7754,6.8284,6.8161,6.7627,6.6806,6.5999,6.5178,6.4383,6.3539,6.2793,0.0,0.0,0.0,0.0,0.0,0.0,0.0,2.6105,2.6759,2.9049,2.8586,2.8602,2.9994,2.8984,2.8484,2.9317,2.9133,0.0,0.0,0.0,0.0,0.0,0.0,0.0,0.0,3.1946,3.3199,3.3779,3.5503,3.644,3.6657,3.5595,3.4481,3.334,3.1735,3.0577,0.0,0.0,0.0,0.0,3.3587,3.3703,3.365,0.0,0.0,0.0,0.0,0.0,0.0,0.0,0.0,0.0,0.0,0.0,0.0,4.3617,4.785,5.1799,5.3851,5.5386,5.6121,5.5005,5.3472,5.1476,4.8394,4.5932,4.359,4.1016,4.0516,4.0516,4.0516,4.0743,4.197,4.5197,4.6581,4.8966,5.3818,5.7627,6.1396,6.5436,7.0437,7.3899,7.4707,7.5515,7.6015,7.6015,7.6015,7.6015,7.6015,7.6015,7.6015,7.6015,7.6015,7.6015,7.6015,7.5818,7.571,7.571,7.343,7.2366,7.2272,7.0238,6.921,6.9053,6.9231,6.8891,6.8296,6.884,6.8739,6.8222,6.7774,6.7069,6.618,6.5056,6.4105,6.3271,0.0,0.0,0.0,0.0,0.0,0.0,0.0,2.5261,2.5755,2.7403,2.6931,2.7061,2.8735,2.7985,2.7787,2.8913,2.8981,0.0,0.0,0.0,0.0,0.0,0.0,0.0,3.046,3.2011,3.3408,3.4699,3.6042,3.7157,3.7962,3.7013,3.5922,3.477,3.3196,3.1855,0.0,0.0,0.0,0.0,3.3807,3.3807,3.3807,0.0,0.0,0.0,0.0,0.0,0.0,0.0,0.0,0.0,0.0,0.0,0.0,0.0,4.247,4.5624,4.9428,5.1543,5.2505,5.1659,5.0587,4.913,4.6932,4.4816,4.2816,4.0896,4.0516,4.0516,4.0516,4.105,4.2358,4.5043,4.6543,4.8889,5.3395,5.6934,6.0858,6.5782,7.1206,7.4553,7.4553,7.5438,7.6015,7.6015,7.6015,7.6015,7.6015,7.6015,7.6015,7.6015,7.6015,7.6015,7.6015,7.6015,7.6015,7.5976,7.3921,7.295,7.2866,7.0823,6.9784,6.9617,6.9802,6.9492,0.0,6.9393,6.9292,6.8776,6.8625,6.805,6.7142,6.6018,6.5095,6.4283,0.0,0.0,0.0,0.0,0.0,0.0,0.0,2.5118,2.5656,2.5834,2.5706,2.6175,2.7675,2.6999,2.7073,2.8665,2.8823,0.0,0.0,0.0,0.0,0.0,0.0,0.0,3.1173,3.2123,3.3566,3.55,3.6427,3.735,3.8273,3.8002,3.699,3.5336,3.4695,3.3491,0.0,0.0,0.0,0.0,3.3807,3.3807,0.0,0.0,0.0,0.0,0.0,0.0,0.0,0.0,0.0,0.0,0.0,0.0,0.0,0.0,0.0,0.0,0.0,4.9197,5.0928,5.0168,4.8817,4.724,4.5667,4.3508,0.0,4.0666,4.0516,4.0554,4.0746,4.2012,4.3162,4.3662,4.6355,4.9582,5.3082,5.6698,6.1127,6.6865,7.0443,7.2482,7.2482,7.4591,7.6015,7.6015,7.6015,7.6015,7.6015,7.6015,7.6015,7.6015,7.6015,7.6015,7.6015,7.6015,7.6015,7.5976,7.4315,7.3507,7.343,7.1706,7.063,7.017,7.0674,7.0306,6.9403,6.9957,6.9829,6.9363,6.9403,6.8903,6.8091,6.724,6.6399,6.553,0.0,0.0,0.0,0.0,0.0,0.0,0.0,0.0,0.0,0.0,2.4589,2.4704,2.5068,2.4895,2.5304,0.0,0.0,0.0,0.0,0.0,0.0,0.0,0.0,0.0,3.007,3.1743,3.3566,3.55,3.7623,3.9431,4.0885,4.0613,3.9595,3.7939,3.6318,3.4518,0.0,0.0,0.0,0.0,3.3807,3.3807,0.0,0.0,0.0,0.0,3.3418,3.3614,0.0,0.0,0.0,0.0,0.0,0.0,0.0,0.0,3.7157,3.7773,3.9815,0.0,4.3128,4.294,4.3085,4.3196,0.0,4.2235,4.1542,4.0666,4.0516,4.1093,4.3051,4.2701,4.3812,4.9005,5.0505,5.2428,5.6544,6.2237,6.7507,7.1507,7.3822,7.5091,7.5091,7.5668,7.6015,7.6015,7.6015,7.6015,7.6015,7.6015,7.6015,7.6015,7.6015,7.6015,7.6015,7.6015,7.6015,7.5976,7.4315,7.3507,7.343,7.1706,7.0812,7.0734,7.0864,7.0517,6.9936,7.0494,7.0416,6.9936,7.0354,7.0018,6.926,6.8637,6.7483,6.6121,0.0,0.0,0.0,0.0,0.0,0.0,0.0,0.0,0.0,0.0,2.4194,2.4194,2.4194,2.4525,0.0,0.0,0.0,0.0,0.0,0.0,0.0,0.0,0.0,2.9575,3.0298,3.1703,3.36,3.6038,3.7815,3.9777,4.1808,4.1251,4.023,3.8779,3.6275,3.4502,0.0,0.0,0.0,3.3987,3.4135,0.0,0.0,0.0,0.0,0.0,3.3339,3.3452,0.0,3.5541,3.5742,3.5552,0.0,0.0,0.0,0.0,3.6154,3.6231,3.6734,3.9238,4.1704,4.1704,4.2316,4.297,4.297,4.2047,4.1085,4.0593,4.0819,4.1508,4.2893,4.3697,4.5466,4.9505,5.1467,5.439,5.9813,6.5429,7.0122,7.3122,7.4976,7.6015,7.6015,7.6015,7.6015,7.6015,7.6015,7.6015,7.6015,7.6015,7.6015,7.6015,7.6015,7.6015,7.6015,7.6015,7.6015,7.5976,7.4315,7.3507,7.343,7.1706,7.0898,7.0898,7.0898,7.0748,7.0494,7.0777,7.0741,7.0494,7.0784,7.0629,7.0186,6.9526,6.8448,6.7224,0.0,0.0,0.0,0.0,0.0,0.0,0.0,0.0,0.0,0.0,0.0,0.0,0.0,0.0,0.0,0.0,0.0,0.0,0.0,0.0,0.0,0.0,2.8981,2.9694,3.1147,3.1854,3.3684,3.6696,3.7815,3.9546,4.1773,4.132,4.0223,3.8584,3.5705,3.4117,3.3685,3.4043,3.4194,3.4223,3.4561,0.0,0.0,0.0,0.0,0.0,0.0,0.0,0.0,3.6219,3.6629,3.6273,3.726,0.0,0.0,0.0,0.0,0.0,3.6009,3.964,4.3177,4.2636,4.3316,4.4124,4.4124,4.2435,4.09,4.09,4.147,4.2158,4.2658,4.512,4.7543,4.9005,5.2241,5.6742,6.3006,6.7359,7.0783,7.3199,7.4976,7.6015,7.6015,7.6015,7.6015,7.6015,7.6015,7.6015,7.6015,7.6015,7.6015,7.6015,7.6015,7.6015,7.6015,7.6015,7.6015,7.5976,7.4315,7.3507,7.343,7.1706,7.0898,7.0898,7.0898,7.0898,7.0898,7.0898,7.0898,7.0898,7.0898,7.0898,7.0821,7.0129,6.9353,6.843,0.0,0.0,0.0,0.0,0.0,0.0,0.0,0.0,0.0,0.0,0.0,0.0,0.0,0.0,0.0,0.0,0.0,0.0,0.0,0.0,0.0,2.8981,2.8981,2.9969,3.1962,3.2127,3.3684,3.6696,3.8973,4.0704,4.1812,4.3124,4.1613,3.7805,3.6081,3.4505,3.3162,3.3878,3.4194,3.4223,3.4561,0.0,0.0,0.0,0.0,0.0,0.0,0.0,0.0,3.4238,3.478,3.5319,3.5509,0.0,0.0,0.0,0.0,0.0,3.8283,4.1534,4.3583,4.0607,4.1589,4.3278,4.3278,4.297,4.2701,4.2701,4.2816,4.3778,4.662,4.7543,4.9356,5.3818,5.8017,6.2095,6.5981,6.8936,7.1398,7.3276,7.4976,7.6015,7.6015,7.6015,7.6015,7.6015,7.6015,7.6015,7.6015,7.6015,7.6015,7.6015,7.6015,7.6015,7.6015,7.6015,7.6015,7.5976,7.4315,7.3507,7.343,7.1706,7.0898,7.0898,7.0898,7.0898,7.0898,7.0898,7.0898,7.0898,7.0898,7.0898,7.0898,7.0744,7.0206,6.9283,0.0,0.0,0.0,0.0,0.0,0.0,0.0,0.0,0.0,0.0,0.0,0.0,0.0,0.0,0.0,0.0,0.0,0.0,0.0,0.0,2.9452,3.0509,3.0557,3.1096,3.2198,3.3707,3.5679,3.8084,4.02,4.1854,4.312,4.2211,4.0024,3.6734,3.5234,3.4,3.3056,3.404,3.4566,3.4725,0.0,0.0,0.0,0.0,0.0,0.0,0.0,0.0,0.0,0.0,3.4986,3.5408,3.5833,0.0,0.0,0.0,0.0,0.0,3.7068,4.0242,4.2915,4.1809,4.4479,4.7291,4.6734,4.6252,4.5878,4.5809,4.6163,4.6971,4.8509,5.0317,5.3241,5.8325,6.1979,6.5019,6.7475,7.0014,7.2052,7.3353,7.4976,7.6015,7.6015,7.6015,7.6015,7.6015,7.6015,7.6015,7.6015,7.6015,7.6015,7.6015,7.6015,7.6015,7.6015,7.5515,7.5284,7.5284,7.4084,7.3238,7.2745,7.1475,7.0898,7.0898,7.0898,7.0898,7.0898,7.0898,7.0898,7.0898,7.0898,7.0898,7.086,7.0398,7.0014,6.9436,0.0,0.0,0.0,0.0,0.0,0.0,0.0,0.0,0.0,0.0,0.0,0.0,0.0,0.0,0.0,0.0,0.0,0.0,0.0,2.914,3.0052,3.1518,3.2262,3.2991,3.3742,3.5674,3.7725,3.9896,4.1393,4.2773,4.3966,4.1124,3.8362,3.5722,3.4673,3.3667,3.2795,3.4036,3.4695,3.4897,0.0,0.0,0.0,0.0,0.0,0.0,0.0,0.0,0.0,0.0,0.0,0.0,0.0,0.0,0.0,3.5706,3.5549,3.5754,3.6377,3.9425,4.2693,4.3814,4.7143,5.0201,5.0231,4.9436,4.8787,4.9324,4.989,5.0386,5.0617,5.3561,5.744,6.1941,6.4826,6.7013,6.8507,7.0898,7.2745,7.343,7.4976,7.6015,7.6015,7.6015,7.6015,7.6015,7.6015,7.6015,7.6015,7.6015,7.6015,7.6015,7.6015,7.5899,7.5707,7.5014,7.47,7.47,7.3661,7.286,7.2175,7.1283,7.0898,7.0898,7.0898,7.0898,7.0898,7.0898,7.0898,7.0898,7.0898,7.0898,7.0821,7.0206,6.986,6.9513,0.0,0.0,0.0,0.0,0.0,0.0,0.0,0.0,0.0,0.0,0.0,0.0,0.0,0.0,0.0,0.0,0.0,0.0,0.0,2.9514,3.0532,3.0708,3.3378,3.598,3.8353,3.7822,3.8878,4.1619,4.2547,4.3085,4.3158,4.1031,3.8318,3.5158,3.5306,3.4096,3.1985,3.3584,3.4241,3.4287,3.4624,0.0,0.0,0.0,0.0,0.0,0.0,0.0,0.0,0.0,0.0,0.0,0.0,0.0,3.5662,3.555,3.5549,3.613,3.8632,4.1369,4.3919,4.5661,4.6782,4.8297,5.147,5.0884,5.0373,5.2794,5.3213,5.3348,5.4157,5.7622,6.1248,6.3974,6.6545,6.8545,6.9475,7.1815,7.343,7.3507,7.4976,7.6015,7.6015,7.6015,7.6015,7.6015,7.6015,7.6015,7.6015,7.6015,7.6015,7.6015,7.6015,7.563,7.4815,7.4738,7.47,7.4661,7.3053,7.2252,7.2175,7.1283,7.0898,7.0898,7.0898,7.0898,7.0898,7.0898,7.0898,7.0898,7.0898,7.0898,7.0898,7.0821,7.036,6.9667,0.0,0.0,0.0,0.0,0.0,0.0,0.0,0.0,0.0,0.0,0.0,0.0,0.0,0.0,0.0,0.0,0.0,0.0,2.7756,2.9106,3.0625,3.2339,3.4135,3.6374,3.9072,3.9839,4.1251,4.3355,4.3662,4.3585,4.3043,4.0532,3.8135,3.5883,3.5272,3.4186,3.2886,3.4035,3.4513,3.4524,3.4634,3.4363,0.0,0.0,0.0,0.0,0.0,0.0,0.0,0.0,3.2703,3.3569,3.4452,3.5121,3.5596,3.5628,3.572,3.5994,3.7039,4.0796,4.4645,4.5312,4.8079,5.11,5.2854,5.4014,5.5289,5.7218,5.7979,5.8402,5.8742,6.0416,6.2586,6.513,6.7132,6.8891,7.0244,7.1745,7.2706,7.2706,7.3745,7.463,7.513,7.52,7.5438,7.5976,7.6015,7.6015,7.6015,7.6015,7.6015,7.6015,7.5476,7.5014,7.47,7.3668,7.3129,7.3129,7.2521,7.1905,7.136,7.1052,7.0898,7.0912,7.1047,7.1091,7.1091,7.1091,7.1091,7.1074,7.0947,7.0898,7.0898,7.0898,7.0706,7.036,0.0,0.0,0.0,0.0,0.0,0.0,0.0,0.0,0.0,0.0,0.0,0.0,0.0,0.0,0.0,0.0,0.0,0.0,2.7383,2.8748,3.0462,3.2628,3.4315,3.6232,3.843,4.0392,4.2239,4.3932,4.3932,4.3355,4.2239,4.0032,3.8129,3.6475,3.5575,3.4737,3.3946,3.4182,3.4393,3.4502,3.4272,3.3907,0.0,0.0,0.0,0.0,0.0,0.0,0.0,0.0,3.2081,3.2761,3.394,3.4732,3.532,3.5627,3.6171,3.6684,3.6684,4.0578,4.4805,4.5625,4.9062,5.2851,5.502,5.6693,5.8369,6.0461,6.135,6.1836,6.2057,6.268,6.3929,6.6213,6.7894,6.9366,7.0792,7.1704,7.2213,7.2213,7.2976,7.3738,7.4276,7.4315,7.4584,7.5168,7.5207,7.5207,7.5207,7.5207,7.5207,7.5207,7.463,7.4199,7.3899,7.279,7.2059,7.1783,7.1783,7.1475,7.0905,7.0973,7.0985,7.1004,7.1226,7.1299,7.1299,7.1299,7.1257,7.119,7.0998,7.0898,7.0898,7.0898,7.0898,7.0821,0.0,0.0,0.0,0.0,0.0,0.0,0.0,0.0,0.0,0.0,0.0,0.0,0.0,0.0,0.0,0.0,0.0,0.0,2.6539,2.8586,3.0166,3.0971,3.3899,3.5846,3.6657,3.9165,4.132,4.3085,4.3085,4.2205,4.0477,3.9665,3.8354,3.6685,3.6416,3.5857,3.503,3.3895,3.3698,3.4125,3.334,3.3346,3.3659,0.0,0.0,0.0,0.0,0.0,0.0,0.0,3.1736,3.2087,3.3778,3.4406,3.4682,3.5455,3.6995,3.8404,3.8404,4.1008,4.4375,4.6953,4.957,5.2812,5.8047,5.8555,5.8865,6.2145,6.2812,6.3042,6.3709,6.4534,6.5699,6.7411,6.8946,7.0219,7.1061,7.1774,7.2175,7.2175,7.2937,7.3469,7.3507,7.3507,7.3507,7.3507,7.3507,7.3507,7.3507,7.3507,7.3507,7.3507,7.3507,7.3091,7.2213,7.2175,7.1752,7.0898,7.0898,7.0898,7.0912,7.1125,7.1216,7.1193,7.1397,7.1485,7.1485,7.1481,7.136,7.1185,7.0992,7.0898,7.0898,7.0898,7.0898,7.0898,0.0,0.0,0.0,0.0,0.0,0.0,0.0,0.0,0.0,0.0,0.0,0.0,0.0,0.0,0.0,0.0,0.0,0.0,2.6752,2.81,2.9577,3.1148,3.3391,3.4702,3.4933,3.7434,3.9854,4.2196,4.2196,4.1316,3.9631,3.878,3.7777,3.6692,3.6638,3.6032,3.5039,3.409,3.4032,3.4475,3.3617,3.3725,3.4255,0.0,0.0,0.0,0.0,0.0,0.0,0.0,0.0,0.0,3.3161,3.4786,3.6194,3.5991,3.7571,3.9333,3.8708,4.2421,4.6797,4.8164,5.2734,5.7421,5.9431,6.0266,6.1562,6.4996,6.5195,6.4837,6.5022,6.5645,6.6535,6.7662,6.9107,7.0381,7.1092,7.138,7.1436,7.1317,7.1514,7.1898,7.2514,7.2591,7.2822,7.343,7.3507,7.3507,7.3507,7.3507,7.3507,7.3507,7.2899,7.2476,7.2213,7.1591,7.1168,7.0898,7.0898,7.0898,7.0912,7.1125,7.1216,7.1203,7.1501,7.1642,7.1635,7.1533,7.1304,7.0966,7.09,7.0898,7.0898,7.0898,7.0898,7.0898,0.0,0.0,0.0,0.0,0.0,0.0,0.0,0.0,0.0,0.0,2.4194,2.4194,0.0,0.0,0.0,2.4635,2.5117,0.0,2.7195,2.8036,2.9296,3.112,3.2809,3.4164,3.5161,3.7395,3.8931,3.9773,4.0465,3.9931,3.8277,3.878,3.8354,3.7234,3.7892,3.7291,3.5671,3.4829,3.4448,3.4356,3.3815,3.4086,3.4598,0.0,0.0,0.0,0.0,0.0,0.0,0.0,0.0,0.0,3.2372,3.3755,3.5189,3.6207,3.8125,4.0156,4.1328,4.5078,4.918,5.1406,5.5625,5.9765,6.1859,6.2759,6.3861,6.6367,6.6484,6.6211,6.6562,6.722,6.7984,6.8881,7.0027,7.0934,7.1325,7.1269,7.1153,7.1047,7.0947,7.1091,7.1636,7.1668,7.1898,7.2437,7.2469,7.2469,7.2469,7.2469,7.2469,7.2469,7.1975,7.1668,7.1668,7.1168,7.0898,7.0898,7.0898,7.0898,7.0919,7.1206,7.1331,7.1357,7.1661,7.1758,7.1684,7.1554,7.1317,7.101,7.0914,7.0898,7.0898,7.0898,7.0898,7.0898,0.0,0.0,2.4194,2.4194,0.0,0.0,0.0,0.0,0.0,2.4194,2.4194,2.4194,0.0,0.0,0.0,2.5232,2.5368,2.6092,2.7653,2.8221,2.9275,3.099,3.238,3.4273,3.6773,3.82,3.82,3.6696,3.8354,3.8315,3.6734,3.9165,3.9473,3.8084,3.9588,3.8896,3.6542,3.5654,3.4702,3.3792,3.3757,3.4109,3.4597,3.3226,0.0,0.0,0.0,0.0,0.0,0.0,0.0,0.0,3.1704,3.2072,3.2807,3.609,3.8476,4.0898,4.4961,4.8086,5.1211,5.5547,5.8125,6.0742,6.4805,6.5612,6.5791,6.6718,6.6914,6.7187,6.8047,6.8867,6.9687,7.0547,7.1271,7.1738,7.1691,7.1418,7.1208,7.1182,7.1029,7.0898,7.0898,7.0898,7.0898,7.0898,7.0898,7.0898,7.0898,7.0898,7.0898,7.0898,7.0898,7.0898,7.0898,7.0898,7.0898,7.0898,7.0898,7.0898,7.0919,7.1304,7.1464,7.1537,7.1801,7.1853,7.1655,7.1524,7.1331,7.1153,7.0985,7.0898,7.0898,7.0898,7.0898,7.0898,0.0,0.0,2.4194,2.4194,0.0,0.0,0.0,0.0,2.4194,2.4194,2.4194,2.4194,2.4194,2.4194,0.0,2.4451,2.5181,2.6131,2.732,2.826,2.9591,3.1471,3.3736,3.5811,3.77,3.6811,3.6427,3.6696,3.7777,3.7738,3.6734,3.7969,3.8354,3.8007,3.8392,3.7507,3.5654,3.4119,3.3341,3.313,3.2519,3.2771,3.3466,3.2483,3.2091,0.0,0.0,0.0,0.0,0.0,0.0,0.0,3.2594,3.3399,3.4099,3.4996,3.7969,4.1406,4.3633,4.7187,5.1211,5.5547,5.9922,6.3789,6.6094,6.6601,6.6639,6.6875,6.6914,6.7187,6.8047,6.8906,6.9765,7.0586,7.1405,7.1864,7.174,7.156,7.1395,7.1203,7.1029,7.0898,7.0898,7.0898,7.0898,7.0898,7.0898,7.0898,7.0898,7.0898,7.0898,7.0898,7.0898,7.0898,7.0898,7.0898,7.0898,7.0898,7.0898,7.0898,7.0912,7.1153,7.1366,7.1485,7.1596,7.1495,7.1301,7.1285,7.1142,7.0966,7.0925,7.0898,7.0898,7.0898,7.0898,7.0898,0.0,0.0,0.0,0.0,0.0,0.0,0.0,0.0,2.464,2.4268,2.4194,2.4194,2.4194,2.4194,0.0,0.0,2.5258,2.6163,2.759,2.827,2.973,3.2189,3.4349,3.5696,3.6164,3.5734,3.5503,3.5507,3.5968,3.6584,3.735,3.9042,3.9812,3.9812,3.9812,3.8427,3.6,3.4696,3.348,3.2418,3.2422,3.2724,3.3077,3.1794,3.1537,3.1685,3.035,0.0,0.0,0.0,0.0,0.0,0.0,0.0,3.3587,3.492,3.7539,4.0781,4.4531,4.8711,5.3359,5.8906,6.2305,6.4765,6.6484,6.6914,6.6914,6.6914,6.7226,6.7656,6.8125,6.8906,6.9609,7.0039,7.082,7.1327,7.1235,7.1392,7.1446,7.1374,7.1085,7.0898,7.0898,7.0898,7.0898,7.0898,7.0898,7.0898,7.0898,7.0898,7.0898,7.0898,7.0898,7.0898,7.0898,7.0898,7.0898,7.0898,7.0898,7.0898,7.0912,7.1125,7.1317,7.1481,7.1481,7.1407,7.1216,7.1216,7.1085,7.0898,7.0898,7.0898,7.0898,7.0898,7.0898,7.0898,0.0,0.0,0.0,0.0,0.0,0.0,0.0,0.0,0.0,2.4325,2.4256,2.4275,2.428,2.4284,2.4584,0.0,0.0,0.0,2.7689,2.8424,3.0037,3.2766,3.4426,3.5003,3.4433,3.485,3.4866,3.444,3.4286,3.5846,3.8967,4.0581,4.1504,4.1773,4.1504,3.9542,3.6427,3.5462,3.3717,3.1622,3.2201,3.2464,3.2391,3.0835,3.0638,3.0993,2.9705,2.9776,3.0666,3.1687,0.0,0.0,0.0,0.0,3.2432,3.4645,3.664,3.9335,4.4805,5.0039,5.5586,6.2187,6.3945,6.4531,6.6289,6.668,6.6719,6.6875,6.7461,6.8008,6.8164,6.875,6.9258,6.9453,7.0039,7.0469,7.0469,7.0922,7.1283,7.1283,7.1059,7.0898,7.0898,7.0898,7.0898,7.0898,7.0898,7.0925,7.0947,7.0953,7.0953,7.0953,7.0953,7.092,7.0898,7.0898,7.0898,7.0898,7.0898,7.0898,7.0912,7.1074,7.1233,7.1416,7.1416,7.1308,7.1148,7.1148,7.1038,7.0898,7.0898,7.0898,7.0898,7.0898,7.0898,7.0898,0.0,0.0,0.0,0.0,0.0,0.0,0.0,0.0,0.0,0.0,2.4475,2.4514,2.47,2.4719,2.4757,2.487,2.5669,2.6263,2.6512,0.0,0.0,3.2811,3.3856,3.4661,3.5308,3.3965,3.3963,3.5408,3.4675,3.7155,4.262,4.0607,4.0392,4.1735,4.0277,3.8161,3.5538,3.3926,3.2249,3.0638,2.9982,2.9816,2.9816,2.8813,2.8499,2.8645,2.918,2.9911,3.0842,3.2479,3.3031,0.0,0.0,0.0,3.1986,3.2392,3.4317,3.694,4.0078,4.7344,5.5312,6.0703,6.2617,6.3633,6.539,6.5781,6.5976,6.6758,6.6992,6.7305,6.8047,6.8281,6.8594,6.9375,6.9531,6.957,6.957,7.0023,7.0381,7.0381,7.0706,7.0898,7.0898,7.0898,7.0898,7.0898,7.0898,7.0992,7.1148,7.1164,7.1164,7.1164,7.1164,7.108,7.0905,7.0898,7.0898,7.0898,7.0898,7.0898,7.0898,7.0946,7.096,7.096,7.096,7.0973,7.0934,7.0934,7.09,7.0898,7.0898,7.0898,7.0898,7.0898,7.0898,7.0898,0.0,0.0,0.0,0.0,0.0,0.0,0.0,0.0,0.0,0.0,0.0,2.47,2.4793,2.48,2.48,2.48,2.5181,2.5687,2.6276,2.8428,3.0237,3.1465,3.2314,3.2968,3.3349,3.2667,3.2901,3.4207,3.3369,3.6307,4.266,4.1424,4.2809,4.6156,4.2934,4.0336,3.82,3.5063,3.2452,3.0369,2.9486,3.0332,3.1729,2.8496,2.9341,3.1927,2.9487,2.9464,3.0787,3.2076,3.2886,3.3214,3.2682,0.0,0.0,0.0,3.3472,3.6584,4.3163,4.8672,5.4023,6.0156,6.1992,6.2734,6.4453,6.4883,6.5117,6.5976,6.6172,6.6445,6.7305,6.7461,6.7617,6.7969,6.8437,6.8711,6.8711,6.9248,6.9593,6.9507,6.9988,7.0328,7.0226,7.0629,7.0898,7.0898,7.1004,7.1125,7.1211,7.1317,7.1326,7.1182,7.1216,7.112,7.0905,7.0898,7.0898,7.0898,7.0898,7.0898,7.0898,7.0898,7.0898,7.0898,7.0898,7.0898,7.0898,7.0898,7.0898,7.0898,7.0898,7.0898,7.0898,7.0898,7.0898,7.0898,0.0,0.0,0.0,0.0,0.0,0.0,0.0,0.0,0.0,0.0,0.0,2.4888,2.4932,0.0,0.0,0.0,2.4935,2.5336,2.6297,2.7873,2.9162,3.0041,3.0888,3.1367,3.1408,3.1437,3.1909,3.2825,3.2653,3.6003,4.2493,4.2701,4.5554,5.0337,4.6141,4.2815,4.012,3.6569,3.3728,3.1621,3.0769,3.1953,3.3872,3.1033,3.2537,3.5658,3.1744,3.09,3.1684,3.2202,3.2649,3.2926,3.2197,3.2411,0.0,0.0,0.0,3.5842,4.457,4.8164,5.1094,5.8008,6.0234,6.125,6.3203,6.3828,6.4219,6.5078,6.5273,6.5547,6.6406,6.6758,6.6914,6.6914,6.7461,6.7851,6.7851,6.8453,6.881,6.8678,6.9232,6.9595,6.9506,6.9989,7.0323,7.0403,7.0672,7.0927,7.1012,7.1361,7.1467,7.1285,7.128,7.1153,7.0905,7.0898,7.0898,7.0898,7.0898,7.0898,7.0898,7.0898,7.0898,7.0898,7.0898,7.0898,7.0898,7.0898,7.0898,7.0898,7.0898,7.0898,7.0898,7.0898,7.0898,7.0898,0.0,0.0,0.0,0.0,0.0,0.0,0.0,0.0,0.0,0.0,0.0,2.5068,2.5234,2.5285,2.5285,2.5285,2.5285,2.5636,2.6531,2.7464,0.0,0.0,3.0003,0.0,3.0545,3.0554,3.105,3.2076,3.3682,3.7605,4.3632,4.4345,4.7475,5.2382,4.8716,4.4241,3.9369,3.7541,3.6179,3.5174,3.4432,3.4167,3.4568,3.7789,3.8612,3.7921,3.7053,3.5722,3.428,3.3553,3.2768,3.204,3.1946,3.1872,3.1717,0.0,0.0,0.0,3.9882,4.2812,4.5742,5.2695,5.625,5.875,6.125,6.2461,6.332,6.418,6.4375,6.4648,6.5508,6.6328,6.6914,6.6914,6.6953,6.6953,6.6953,6.7554,6.7974,6.7931,6.8555,6.8953,6.8942,6.8798,6.88,6.9006,6.9592,7.0144,7.0532,7.1251,7.1631,7.1471,7.1467,7.1304,7.0905,7.0898,7.0898,7.0898,7.0898,7.0898,7.0898,7.0898,7.0898,7.0898,7.0898,7.0898,7.0898,7.0898,7.0898,7.0898,7.0898,7.0898,7.0898,7.0898,7.0898,7.0898,0.0,0.0,0.0,0.0,0.0,0.0,0.0,0.0,0.0,0.0,0.0,0.0,0.0,2.6482,2.6118,2.6118,2.6118,2.6038,2.5769,2.7582,0.0,0.0,2.9657,3.0419,3.0518,3.0548,3.1029,3.2005,3.214,3.5311,4.1289,4.2106,4.4099,4.6914,4.6642,4.5499,4.3496,3.9608,3.7694,3.7215,3.6457,3.773,4.0023,3.9164,4.1029,4.3674,4.0742,3.928,3.8578,3.7811,3.6601,3.5071,3.3285,3.2336,3.1563,3.0084,3.1137,3.3769,3.8266,4.074,4.3633,4.9961,5.3086,5.5234,5.7851,5.9922,6.1562,6.2461,6.3086,6.3711,6.4609,6.5469,6.625,6.6797,6.6914,6.6914,6.6914,6.7106,6.7208,6.7089,6.7787,6.8195,6.8096,6.8524,6.882,6.8886,6.9119,6.9575,7.0275,7.0564,7.0921,7.1287,7.1317,7.1185,7.0905,7.0898,7.0898,7.0898,7.0898,7.0898,7.0898,7.0898,7.0898,7.0898,7.0898,7.0898,7.0898,7.0898,7.0898,7.0898,7.0898,7.0898,7.0898,7.0898,7.0898,7.0898,0.0,0.0,0.0,2.7092,0.0,2.6461,2.6528,2.6197,2.6135,2.6857,0.0,0.0,0.0,0.0,2.7058,2.7049,2.7044,2.6774,2.6195,2.8014,0.0,0.0,2.9699,3.0513,3.0584,3.0912,3.1239,3.1629,3.1991,3.4375,3.8633,4.0078,4.1797,4.3711,4.3933,4.4659,4.5473,4.1772,4.0148,4.0008,4.0127,4.1637,4.3902,4.4332,4.6395,4.8701,4.5958,4.4407,4.3391,4.1757,3.9999,3.8001,3.5008,3.2827,3.1167,2.9995,3.1127,3.3388,3.6369,3.8504,4.1365,4.7734,4.9922,5.1601,5.5664,5.789,5.9453,6.0625,6.1758,6.2812,6.3711,6.4336,6.5117,6.6289,6.6445,6.6562,6.6875,6.6914,6.6834,6.6734,6.7196,6.7529,6.7389,6.7845,6.8146,6.8227,6.8391,6.8903,6.9802,7.008,7.0507,7.1188,7.1126,7.1053,7.0898,7.0898,7.0898,7.0898,7.0898,7.0898,7.0898,7.0898,7.0898,7.0898,7.0898,7.0898,7.0898,7.0898,7.0898,7.0898,7.0898,7.0898,7.0898,7.0898,7.0898,7.0898,2.8512,2.8604,2.8385,2.7603,2.7422,2.749,2.7697,2.7746,2.7849,2.8076,0.0,0.0,0.0,0.0,0.0,2.8032,2.8019,2.7978,2.7939,2.8757,2.9246,2.9211,3.0116,3.0659,3.0753,3.1575,3.1667,3.0937,3.3398,3.5039,3.5976,3.8555,4.1094,4.3398,4.0976,4.1672,4.4599,4.3763,4.3463,4.3698,4.5431,4.5652,4.5824,5.3547,5.4875,5.2698,5.281,5.125,4.8594,4.5156,4.2731,4.056,3.6953,3.3365,3.0508,3.0525,3.1183,3.2328,0.0,0.0,0.0,4.5624,4.6758,4.793,5.4765,5.6328,5.6875,5.8711,6.039,6.1836,6.2734,6.293,6.3515,6.5234,6.5586,6.5898,6.6758,6.6875,6.6914,6.6914,6.6914,6.6914,6.6914,6.6736,6.6687,6.6875,6.7364,6.8096,6.9102,6.9813,7.0491,7.1177,7.1004,7.0912,7.0898,7.0912,7.0912,7.0898,7.0898,7.0898,7.0898,7.0898,7.0898,7.0898,7.0898,7.0898,7.0898,7.0898,7.0898,7.0898,7.0898,7.0898,7.0898,7.0898,7.0898,7.0898,3.0243,3.0924,3.1412,3.1154,3.0765,3.0481,3.0557,3.0062,2.991,0.0,0.0,0.0,3.1752,3.1741,3.1483,3.0791,3.0705,3.019,2.893,2.9653,2.9899,2.9389,3.0736,3.156,3.1652,3.1887,3.1941,3.1836,3.1914,3.2695,3.4141,3.5508,3.7187,3.9101,3.9648,4.039,4.1167,3.9685,4.1909,4.6318,4.4958,4.7222,5.1593,5.3163,5.4882,5.6403,5.6445,5.5586,5.4141,5.1914,4.875,4.4605,3.7904,3.4671,3.3095,3.1833,3.3018,3.4748,3.4618,0.0,0.0,0.0,0.0,0.0,4.8164,5.0117,5.2031,5.5625,5.7265,5.8633,6.0742,6.164,6.2422,6.3555,6.4765,6.5664,6.5937,6.6484,6.6914,6.6914,6.6914,6.6914,6.6914,6.6834,6.6833,6.6914,6.6816,6.7148,6.8004,6.9193,7.0177,7.0966,7.1068,7.1032,7.0898,7.1026,7.1026,7.0898,7.0898,7.0898,7.0898,7.0898,7.0898,7.0898,7.0898,7.0898,7.0898,7.0898,7.0898,7.0898,7.0898,7.0898,7.0898,7.0898,7.0898,7.0898,3.1735,3.26,3.3289,3.3289,3.3559,3.3772,3.3772,3.3364,3.3283,0.0,0.0,0.0,3.4665,3.4997,3.4836,3.3909,3.321,3.222,3.086,3.0942,3.0684,2.9923,3.1205,3.1977,3.2004,3.2721,3.2809,3.2187,3.2031,3.2109,3.2383,3.3242,3.4375,3.5703,3.6367,3.7461,3.8672,3.6562,3.9648,4.6055,4.7031,4.9648,5.3125,5.5156,5.6758,5.8008,5.8672,5.8398,5.7461,5.6094,5.2031,4.6557,4.0859,3.7698,3.575,3.398,3.5362,3.7258,3.6457,3.7526,3.9215,4.0859,0.0,0.0,4.6445,4.7891,4.9453,5.3398,5.5195,5.6719,5.8945,5.9765,6.0508,6.1719,6.3086,6.4219,6.4961,6.5508,6.582,6.582,6.6133,6.6367,6.6367,6.668,6.6914,6.6914,6.6658,6.6805,6.7551,6.8707,6.9739,7.0595,7.0714,7.0864,7.1035,7.1137,7.1114,7.0898,7.0898,7.0898,7.0898,7.0898,7.094,7.1035,7.1035,7.1074,7.1137,7.105,7.0992,7.0898,7.0898,7.0898,7.0898,7.0898,7.0898,7.0898,0.0,3.3894,3.4548,3.4741,3.6007,3.7004,3.7119,3.7157,3.7201,0.0,3.6724,3.6752,3.7699,3.8292,3.8292,3.7501,3.5733,3.4287,3.347,3.2406,3.1534,3.0929,3.1706,3.22,3.2277,3.3864,3.3984,3.2461,3.3008,3.25,3.1055,3.1758,3.2422,3.3086,3.2461,3.3945,3.6758,3.4883,3.789,4.4296,4.9687,5.1914,5.2578,5.8047,5.9375,5.8515,6.0,6.0078,5.9336,5.8242,5.3669,4.7876,4.4942,4.1913,3.9104,3.7101,3.8351,0.0,3.931,4.0292,0.0,4.4179,4.3242,0.0,4.7187,4.7656,4.8125,5.1445,5.3359,5.5039,5.6953,5.7461,5.8086,5.9453,6.0664,6.207,6.3906,6.4258,6.4297,6.4297,6.4961,6.5469,6.5469,6.625,6.6758,6.6758,6.6655,6.6884,6.7558,6.8316,6.9168,7.0031,7.0168,7.0518,7.1068,7.1184,7.1137,7.0979,7.094,7.094,7.0979,7.0979,7.1056,7.1223,7.1223,7.1335,7.1435,7.1276,7.1103,7.0914,7.0912,7.0898,7.0898,7.0898,7.0898,7.0898,3.4815,3.5657,3.6661,3.8049,3.8588,3.9011,3.9665,3.9769,3.9791,3.9791,4.0308,4.1546,4.3808,4.3042,4.2241,4.1973,3.9155,3.7036,3.6102,3.3372,3.2074,3.267,3.2913,3.337,3.4067,3.4488,3.4531,3.4219,3.3008,3.2266,3.1914,3.1406,3.125,3.1406,3.1953,3.293,3.4375,3.7344,4.0929,4.4719,4.5973,5.0156,5.5781,5.7656,5.9453,6.1015,6.1328,6.1367,6.0859,5.8633,5.6054,5.2928,4.8147,4.6745,4.6088,4.2158,4.2912,4.4645,4.3124,4.3944,4.4882,4.3281,4.4101,0.0,4.3906,4.4062,4.5234,4.8008,4.8867,5.0039,5.3125,5.4844,5.5664,5.5312,5.7734,6.0508,6.293,6.3867,6.4297,6.4297,6.4453,6.4531,6.4531,6.5351,6.5859,6.5859,6.6303,6.6884,6.7558,6.7778,6.8242,6.913,7.0003,7.0427,7.0405,7.107,7.1404,7.136,7.1203,7.1213,7.1365,7.1365,7.1385,7.1424,7.1424,7.1352,7.1252,7.1203,7.1185,7.1115,7.0973,7.0898,7.0898,7.0898,7.0898,7.0898,3.6566,3.779,3.8978,3.9866,4.1057,4.2019,4.2444,4.2429,4.2859,4.4124,4.5817,4.6753,4.6379,4.5996,4.5395,4.4472,4.1745,3.9378,3.7664,3.5568,3.4035,3.3284,3.3711,3.4348,3.5244,3.5309,3.5351,3.5351,3.3633,3.2578,3.2187,3.1328,3.1562,3.2812,3.2812,3.4219,3.6758,3.8516,4.1161,4.4515,4.8043,5.2536,5.7291,5.91,6.0586,6.1719,6.1719,6.1719,6.125,5.8242,5.668,5.5195,5.0777,5.0037,5.0117,4.6636,4.7147,4.8398,4.6211,4.6601,4.7266,4.5976,4.5976,0.0,0.0,4.4648,4.5078,4.7695,4.7578,4.8008,5.1406,5.207,5.2539,5.3789,5.582,5.7695,5.8984,6.1367,6.3008,6.3008,6.3398,6.3633,6.3633,6.4453,6.5117,6.5586,6.5892,6.6456,6.7201,6.7237,6.7665,6.8522,6.946,7.007,7.0352,7.1173,7.1566,7.152,7.142,7.1385,7.1481,7.1481,7.153,7.1604,7.1604,7.1604,7.1591,7.1416,7.1366,7.1331,7.1022,7.0898,7.0898,7.0898,7.0898,7.0898,3.8157,3.9637,4.0775,4.0925,4.2934,4.4554,4.4551,4.4587,4.5603,4.8308,5.0619,5.1163,4.8942,4.9135,4.8912,4.7727,4.4963,4.2436,4.0405,3.8537,3.6671,3.4843,3.4815,3.5327,3.6342,3.613,3.6016,3.6016,3.4258,3.3086,3.2422,3.1562,3.2422,3.4687,3.4336,3.6484,4.0351,3.9805,4.1862,4.5986,5.1714,5.4873,5.6473,5.9723,6.0976,6.1015,6.1523,6.1719,6.125,5.832,5.7344,5.6719,5.3242,5.2969,5.3398,5.0469,5.0937,5.1875,4.9492,4.9609,5.0195,4.9375,4.8594,4.7851,0.0,0.0,0.0,4.7773,4.7031,4.6953,4.9883,4.9453,4.9492,5.2109,5.3672,5.4492,5.4336,5.7734,6.0273,6.0469,6.1523,6.2265,6.2265,6.289,6.3867,6.5234,6.5039,6.539,6.6601,6.6797,6.7226,6.793,6.875,6.9527,7.0307,7.1073,7.1501,7.1616,7.1549,7.1549,7.1616,7.1616,7.1677,7.1753,7.1753,7.1814,7.1908,7.1601,7.1499,7.1428,7.1026,7.0898,7.0898,7.0898,7.0898,7.0898,3.9392,4.0223,4.1087,4.181,4.345,4.4699,4.4688,4.5262,4.6934,5.033,5.1696,5.3063,5.4936,5.4557,5.437,5.4962,5.0614,4.7743,4.7439,4.2342,3.9504,4.0013,3.7297,3.6497,3.8093,3.6715,3.6016,3.6016,3.4258,3.3359,3.3242,3.2422,3.3008,3.4766,3.6211,3.8828,4.2148,4.2812,4.6718,5.2485,5.3577,5.2728,5.1409,5.6443,5.832,5.8633,6.0898,6.1719,6.1523,6.0351,5.9961,5.9375,5.5937,5.6523,5.7656,5.3476,5.4023,5.5625,5.3789,5.4453,5.4805,5.1016,5.2187,5.2695,4.668,0.0,4.6953,4.5703,0.0,4.5508,4.668,0.0,0.0,4.7226,4.9805,5.1601,5.0898,5.3125,5.5156,5.5937,5.8164,5.9648,5.9648,5.9726,6.1094,6.4219,6.3008,6.3203,6.5625,6.6484,6.6953,6.7031,6.789,6.875,6.9608,7.0278,7.1096,7.1949,7.175,7.1753,7.1949,7.1949,7.1951,7.1952,7.1952,7.1864,7.1737,7.156,7.1377,7.1193,7.0972,7.0898,7.0898,7.0898,7.0898,7.0898,4.0211,4.1458,4.2426,4.2262,4.4058,4.5345,4.4832,4.8372,5.13,5.1782,5.5208,5.7585,5.7715,5.6938,5.6553,5.6916,5.4121,5.1298,4.8833,4.5904,4.3732,4.2558,4.0226,3.9293,3.9994,3.8359,3.7266,3.6758,3.5,3.4141,3.4141,3.3281,3.4568,3.7678,3.8983,4.2263,4.6823,4.6757,4.8576,5.1534,5.2146,5.1728,5.1451,5.7732,6.0117,6.0234,6.1328,6.1719,6.1406,5.957,5.9297,5.9375,5.7422,5.7578,5.8086,5.625,5.6133,5.6211,5.4453,5.4883,5.5156,5.2344,5.2344,5.2031,4.8164,4.7031,4.6797,4.6562,0.0,0.0,0.0,0.0,0.0,0.0,4.8242,4.8906,4.8047,5.0156,5.2461,5.4336,5.5508,5.6562,5.7578,5.7695,5.8906,6.1836,6.0937,6.1601,6.4687,6.5664,6.6367,6.6875,6.7734,6.8633,6.9492,7.0229,7.1088,7.1992,7.1908,7.1909,7.1992,7.1992,7.1992,7.1992,7.1992,7.1951,7.186,7.1708,7.1586,7.1472,7.1301,7.112,7.0898,7.0898,7.0898,7.0898,4.1139,4.2535,4.334,4.248,4.4432,4.6188,4.6266,5.0834,5.4167,5.3852,5.7789,6.0608,6.0522,5.9742,5.9589,6.0533,5.8475,5.5742,5.2419,5.0155,4.8239,4.6601,4.3789,4.2461,4.293,4.0547,3.8906,3.8008,3.6016,3.5312,3.5742,3.4648,3.6243,4.0111,4.1783,4.5454,5.0355,5.0263,5.1343,5.308,5.3246,5.3923,5.5273,5.9684,6.1797,6.2422,6.2422,6.2422,6.2109,6.0,5.957,5.9726,5.8867,5.8594,5.8555,5.832,5.7969,5.7265,5.5547,5.5703,5.5703,5.3008,5.2031,5.1133,4.8711,4.7773,4.7422,4.7578,4.7148,0.0,0.0,0.0,4.5664,4.7344,0.0,4.7305,4.6406,4.7734,4.9531,5.1641,5.2734,5.3867,5.539,5.5117,5.6094,5.914,5.8359,5.9492,6.3398,6.4648,6.5625,6.6523,6.7383,6.8359,6.9453,7.0039,7.0898,7.1992,7.1992,7.1992,7.1992,7.1992,7.1992,7.1992,7.1992,7.1992,7.1992,7.1762,7.1691,7.1681,7.1549,7.1335,7.105,7.0998,7.0947,7.0898,4.2343,4.3086,4.3437,4.2539,4.457,4.7148,4.9648,5.1601,5.3904,5.7026,5.8347,6.0497,6.4459,6.4136,6.495,6.8242,6.4692,6.1912,6.1134,5.5591,5.2737,5.3633,4.8008,4.5664,4.7344,4.3281,4.0703,3.9805,3.7226,3.6836,3.8437,3.6719,3.7729,4.1093,4.4436,4.7918,5.1374,5.296,5.6447,6.0703,5.9227,6.0674,6.3459,6.1285,6.1992,6.4219,6.4219,6.4219,6.4062,6.3164,6.2305,6.1484,6.0586,6.0312,6.0156,5.9375,5.9687,5.9922,5.8242,5.8398,5.7851,5.2734,5.2031,5.1562,4.7344,4.8281,4.9609,4.793,4.9531,5.0703,4.9141,4.8789,0.0,0.0,4.7617,0.0,0.0,4.5664,4.5508,4.6445,4.9453,5.1836,5.2734,5.1367,5.2148,5.6406,5.5117,5.6406,6.1523,6.3398,6.4726,6.5625,6.6484,6.7734,6.9375,6.9414,7.0312,7.1992,7.1992,7.1992,7.1992,7.1992,7.1992,7.1992,7.1992,7.1992,7.1992,7.1762,7.1691,7.1681,7.1549,7.1474,7.1481,7.1262,7.1062,7.0898,4.3242,4.3945,4.4297,4.3398,4.4961,4.7342,5.0404,5.4185,5.7682,6.0477,6.2621,6.5255,6.8886,6.849,6.8681,7.0392,6.8831,6.6603,6.3998,6.053,5.8368,5.7916,5.3457,5.066,5.0004,4.6987,4.4141,4.1562,3.957,3.918,4.0273,3.8555,3.9525,4.2808,4.5103,4.8589,5.2922,5.4737,5.7117,5.974,6.0444,6.2438,6.4831,6.3473,6.3515,6.4297,6.4297,6.4297,6.4258,6.3945,6.3281,6.25,6.2226,6.1328,6.0351,6.0078,5.9805,5.9492,5.8906,5.9375,5.914,5.5703,5.4219,5.2734,4.9609,4.957,4.9726,4.7969,4.9648,5.0898,4.9219,4.8437,0.0,0.0,0.0,4.6211,0.0,4.3828,4.3594,4.4492,4.7148,4.9219,5.0117,4.9687,5.0898,5.4609,5.4336,5.6015,6.0586,6.3047,6.4687,6.5586,6.6445,6.7695,6.9375,6.9414,7.0273,7.1992,7.1992,7.1992,7.1992,7.1992,7.1992,7.1992,7.1992,7.1992,7.1992,7.1949,7.1906,7.1905,7.1851,7.1735,7.1609,7.1296,7.1158,7.108,4.4687,4.5312,4.5547,4.4375,4.6559,4.9511,5.2595,5.7522,6.1612,6.353,6.6326,6.9252,7.227,7.1824,7.1785,7.2914,7.2094,6.9888,6.6108,6.4551,6.3037,6.1366,5.8359,5.6007,5.4413,5.1692,4.843,4.4643,4.292,4.2217,4.2455,4.0468,4.1166,4.4135,4.5777,4.8964,5.3322,5.6061,5.8577,6.0793,6.2671,6.4391,6.5769,6.5387,6.5234,6.5234,6.5234,6.5234,6.5234,6.5234,6.4648,6.3906,6.3906,6.293,6.1719,6.1406,6.0976,6.043,5.9805,6.0,5.9805,5.7226,5.5742,5.418,5.1289,5.1367,5.1523,4.9766,5.0976,5.2187,5.1719,4.9922,4.8633,0.0,0.0,0.0,0.0,4.3476,4.3437,4.3672,4.5469,4.7031,4.7891,4.7695,4.8945,5.2383,5.2656,5.4648,5.9172,6.1913,6.3905,6.5032,6.6249,6.7734,6.9414,6.9453,7.0312,7.1992,7.1992,7.1992,7.1992,7.1992,7.1992,7.1992,7.1992,7.1992,7.1992,7.1992,7.1992,7.1992,7.1992,7.1909,7.1753,7.1442,7.1203,7.1074,4.6601,4.7226,4.7422,4.5898,4.9501,5.3511,5.6178,6.1354,6.5297,6.6206,6.9301,7.2283,7.462,7.4199,7.4392,7.5976,7.4683,7.2071,6.8081,6.7871,6.6814,6.4315,6.2809,6.1512,6.0453,5.7037,5.3186,4.8936,4.7046,4.572,4.4878,4.2456,4.2612,4.5038,4.653,4.9121,5.2648,5.6916,6.0731,6.404,6.5884,6.6621,6.6625,6.6791,6.6875,6.6875,6.6914,6.6914,6.6914,6.6914,6.6367,6.5664,6.5625,6.5039,6.418,6.332,6.3047,6.2695,6.1055,6.0547,5.9961,5.7539,5.6797,5.5781,5.2461,5.3633,5.4922,5.3203,5.3594,5.4687,5.6133,5.3086,5.0508,0.0,0.0,0.0,4.4101,4.4453,4.4648,4.3906,4.4531,4.5312,4.6172,4.5508,4.6445,4.9883,5.0156,5.2376,5.7324,6.0107,6.2335,6.404,6.5849,6.7655,6.9374,6.9453,7.0312,7.1914,7.1992,7.1992,7.1992,7.1992,7.1992,7.1992,7.1992,7.1992,7.1992,7.1992,7.1992,7.1992,7.1992,7.1992,7.1949,7.1635,7.1237,7.0898,4.8398,5.0377,5.2651,5.4098,5.4303,5.5356,5.859,6.228,6.5891,6.9213,7.209,7.4753,7.726,7.7323,7.7407,7.783,7.7614,7.6411,7.3953,7.2904,7.1663,7.0112,6.763,6.5459,6.3653,5.9373,5.5593,5.2324,4.8245,4.6391,4.6671,4.4213,4.4057,4.5856,4.6882,4.9505,5.3307,5.6425,6.055,6.5113,6.6311,6.6738,6.6616,6.6616,6.663,6.669,6.6834,6.6914,6.6914,6.6914,6.6758,6.6445,6.5781,6.5469,6.5117,6.4219,6.3984,6.3867,6.3437,6.2812,6.2187,6.1523,5.9453,5.7344,5.6445,5.6758,5.6758,5.5,5.624,5.6804,5.4118,5.2704,5.1137,4.8804,0.0,0.0,0.0,4.4297,4.4414,4.5508,4.5273,4.5078,4.5312,4.5117,4.6172,4.9023,4.9757,5.2272,5.7321,5.8858,6.0889,6.3803,6.4968,6.639,6.8144,6.8884,6.981,7.0905,7.1637,7.1992,7.1992,7.1992,7.1992,7.1992,7.1992,7.1992,7.1992,7.1992,7.1992,7.1992,7.1855,7.1721,7.1635,7.1514,7.1237,7.0898,5.1665,5.4842,5.8196,6.0005,6.031,6.0845,6.2444,6.5048,6.7936,7.1052,7.4014,7.6361,7.783,7.8984,7.9485,7.9092,7.9166,7.8159,7.5606,7.5869,7.4916,7.2311,7.1598,6.9763,6.6515,6.3352,5.9403,5.4733,5.127,4.8844,4.7336,4.5268,4.4764,4.5689,4.6877,4.9231,5.2662,5.7508,6.1996,6.6002,6.6972,6.7277,0.0,6.7144,6.6915,6.6622,6.6737,6.6832,6.6914,6.6914,6.6914,6.6797,6.6328,6.6172,6.6015,6.5117,6.4883,6.4805,6.4414,6.3945,6.3476,6.3086,6.1562,5.9844,5.8711,5.8395,5.8074,5.7097,5.7283,5.7414,5.657,5.3908,5.0706,4.7291,4.631,0.0,0.0,0.0,4.4952,4.5578,4.5272,4.5,4.5,4.5,4.5585,4.7025,4.8568,5.0979,5.4473,5.7271,5.9919,6.2511,6.4218,6.5929,6.7681,6.8719,6.9627,7.0527,7.1517,7.1992,7.1992,7.1992,7.1992,7.1992,7.1992,7.1992,7.1992,7.1992,7.1951,7.1859,7.1747,7.1655,7.1591,7.1591,7.1416,7.1164,5.5768,5.9741,6.3327,6.3977,6.6242,6.7812,6.7464,6.9083,7.0975,7.2636,7.5753,7.7792,7.7792,7.9785,8.0785,8.0046,7.9969,7.8661,7.5584,7.7615,7.7151,7.3189,7.4743,7.3688,6.9352,6.7375,6.3177,5.6505,5.4468,5.1357,4.7184,4.5816,4.5117,4.5038,4.6814,4.9198,5.2313,5.9359,6.3933,6.6629,6.7548,6.7938,6.8046,6.8058,6.7593,6.693,6.6811,6.6816,6.6914,6.6914,6.6914,6.6914,6.6914,6.6914,6.6758,6.5976,6.5781,6.5586,6.4844,6.457,6.4297,6.3515,6.3164,6.2422,6.0194,5.9433,5.9232,5.922,5.7912,5.7567,6.0281,5.5605,5.0275,4.7077,4.7118,4.7115,4.5866,0.0,0.0,0.0,4.5301,0.0,4.5039,4.4961,4.4995,4.5044,4.7089,4.9182,5.1136,5.5502,5.8881,6.0906,6.3484,6.5666,6.7263,6.8532,6.9533,7.0315,7.1437,7.1992,7.1992,7.1992,7.1992,7.1992,7.1992,7.1992,7.1992,7.1992,7.1865,7.1691,7.1691,7.1691,7.1691,7.1847,7.1796,7.1698,5.9872,6.3538,6.6298,6.5789,6.8816,7.2012,7.3969,7.4004,7.4437,7.6176,7.8746,8.0439,8.0439,8.0823,8.1054,8.09,8.0862,8.0323,7.8969,7.9345,7.8967,7.7445,7.6597,7.5061,7.2673,6.7981,6.3066,5.8007,5.3831,4.995,4.6318,4.6167,4.5621,4.4932,4.7494,5.1472,5.6565,6.0693,6.3913,6.6271,6.7447,6.8247,6.8744,6.8894,6.8884,6.865,6.7946,6.7323,6.6914,6.6914,6.6914,6.6914,6.6914,6.6914,6.6875,6.6719,6.668,6.664,6.6484,6.5937,6.5351,6.5195,6.4062,6.285,6.2315,6.159,6.1013,6.0918,6.049,5.9696,5.82,5.5223,5.2338,5.0417,4.9624,4.9663,5.082,4.8679,0.0,0.0,4.7416,4.6465,4.5117,4.4911,4.5122,4.5857,4.615,4.8244,5.2705,5.3739,5.6222,6.068,6.2651,6.41,6.5147,6.7685,6.9017,6.9215,7.1112,7.1992,7.1992,7.1992,7.1992,7.1992,7.1992,7.1992,7.1992,7.1992,7.1865,7.1691,7.1691,7.1691,7.1808,7.2512,7.2855,7.2834,6.6079,6.7882,6.9441,7.0417,7.2924,7.556,7.7669,7.8746,7.8977,7.8061,7.8638,7.9131,7.9131,8.0323,8.1093,8.1093,8.1093,8.0939,8.0516,8.0477,8.0092,7.9208,7.858,7.6983,7.4168,7.0857,6.6309,6.0542,5.6017,5.1911,4.8192,4.6824,4.5731,4.5067,4.854,5.3019,5.8191,6.1632,6.4502,6.6931,6.8478,6.9304,6.9604,6.9785,6.9588,6.9158,6.8728,6.8418,6.8125,6.7187,6.6914,6.6914,6.6914,6.6914,6.6914,6.6914,6.6914,6.6914,6.6914,6.6601,6.6172,6.5703,6.4648,6.3554,6.3037,6.2127,6.1369,6.1301,6.1061,6.0112,5.7569,5.5731,5.4046,5.241,5.1424,5.1115,5.1962,5.0428,4.9036,0.0,0.0,0.0,4.5781,4.5531,4.5257,4.4751,4.5367,4.7259,5.0597,5.239,5.5281,5.9568,6.1772,6.3514,6.4836,6.7651,6.9046,6.9087,7.1042,7.1992,7.1992,7.1992,7.1992,7.1992,7.1992,7.1992,7.1992,7.1904,7.1858,7.1857,7.1747,7.2029,7.2562,7.2993,7.3511,7.3906,7.1667,7.2257,7.3091,7.4938,7.6976,7.8823,8.0131,8.2362,8.2832,7.9946,7.9023,7.8638,7.8638,8.0246,8.1362,8.1362,8.1208,8.1093,8.1093,8.1093,8.0785,8.0123,8.0059,7.8619,7.556,7.3809,6.9733,6.3247,5.9045,5.4704,5.0387,4.8214,4.7077,4.6978,5.0836,5.5044,5.952,6.2558,6.5441,6.8045,6.9596,7.0311,7.0553,7.0753,7.0393,6.9767,6.9572,6.9636,6.9531,6.7969,6.7305,6.7187,6.7187,6.7031,6.6914,6.6914,6.6914,6.6914,6.6914,6.6914,6.6758,6.6055,6.5234,6.4336,6.3436,6.2398,6.1559,6.1331,6.1049,6.0113,5.7767,5.7021,5.6109,5.412,5.3364,5.296,5.2818,5.1939,5.0741,0.0,0.0,0.0,4.6367,4.5687,4.4938,4.4053,4.51,4.6812,4.9048,5.1706,5.4867,5.8565,6.1167,6.3145,6.4549,6.7625,6.9197,6.9237,7.1087,7.1992,7.1992,7.1992,7.1992,7.1992,7.1992,7.1992,7.1992,7.1814,7.1977,7.2265,7.2087,7.2681,7.3594,7.3789,7.4297,7.4883,7.4375,7.6229,7.7638,7.7138,7.9708,8.1862,8.2054,8.3593,8.4401,8.3255,8.3062,8.3024,8.3024,8.2516,8.217,8.217,8.1516,8.1093,8.1093,8.1093,8.1054,8.0977,8.0238,7.9284,7.8176,7.5174,7.1014,6.5672,6.1759,5.6826,5.1105,5.0837,5.1461,5.2923,5.5625,5.8736,6.2056,6.3927,6.6622,6.9697,7.0055,7.0765,7.1571,7.1789,7.1796,7.164,7.0859,7.0586,7.043,6.9492,6.8672,6.8086,6.8086,6.7539,6.6914,6.6914,6.6914,6.6914,6.6914,6.6914,6.6875,6.6797,6.6133,6.5233,6.4224,6.3302,6.2407,6.147,6.1132,6.0428,5.8691,5.9426,5.9282,5.6141,5.6239,5.6471,5.5805,5.3735,5.1927,5.1055,0.0,0.0,4.6367,4.4088,4.3551,4.5692,4.5887,4.7655,5.1706,5.2241,5.4344,5.8568,6.1167,6.2561,6.2756,6.704,6.9197,6.9237,7.1087,7.1992,7.1992,7.1992,7.1992,7.1992,7.1992,7.1992,7.1992,7.1992,7.2461,7.3164,7.3164,7.3672,7.457,7.5351,7.5703,7.5898,7.8576,7.8515,7.9061,8.0793,8.1362,8.2247,8.4286,8.517,8.5517,8.5132,8.4217,8.3601,8.3601,8.3293,8.3101,8.3101,8.2324,8.1823,8.1823,8.1362,8.1093,8.1093,8.0785,8.0169,7.9285,7.7523,7.4102,6.906,6.4885,6.0383,5.5665,5.4002,5.4695,5.7335,5.9505,6.2219,6.5307,6.7229,6.9373,7.1543,7.2321,7.2596,7.2481,7.2691,7.2461,7.1953,7.1601,7.1484,7.1445,7.1094,7.0078,6.8984,6.8945,6.8672,6.832,6.7812,6.7695,6.7578,6.7031,6.6914,6.6914,6.6914,6.625,6.5351,6.4446,6.3487,6.255,6.1612,6.1304,6.0992,6.0296,5.9812,5.9433,5.9188,5.8555,5.8,5.7698,5.6024,5.4091,5.2203,0.0,4.7964,4.7148,4.5623,4.5345,4.6868,4.5388,4.6068,4.9947,5.1629,5.3757,5.6564,6.0664,6.3046,6.3593,6.7405,6.956,7.0108,7.1405,7.1992,7.1992,7.1992,7.1992,7.1992,7.1992,7.1992,7.2031,7.2578,7.3008,7.3359,7.3867,7.4609,7.543,7.5781,7.6211,7.6719,8.217,8.1246,8.1293,8.4217,8.3747,8.3824,8.6478,8.6863,8.6786,8.6517,8.544,8.464,8.4371,8.4132,8.3978,8.3978,8.317,8.2554,8.2324,8.1785,8.1362,8.1093,8.1093,8.0823,8.0208,7.9323,7.6917,7.2904,6.8877,6.5069,6.1559,5.9099,5.9379,6.1942,6.3815,6.5956,6.8321,7.0103,7.1693,7.3013,7.3922,7.3972,7.3487,7.363,7.3281,7.2734,7.2461,7.2383,7.2344,7.2109,7.1211,7.0195,6.9883,6.9609,6.9336,6.875,6.8398,6.8086,6.7461,6.7109,6.6914,6.6914,6.6445,6.5742,6.4883,6.3938,6.29,6.1806,6.1432,6.1352,6.1352,6.0313,5.9716,6.0485,5.9996,5.9194,5.8205,5.7166,5.5476,5.286,5.0151,4.8281,4.7656,4.6562,4.6601,4.8242,4.6532,4.6935,5.0448,5.1895,5.4015,5.7109,6.0976,6.3555,6.4687,6.7812,6.9844,7.0703,7.1562,7.1992,7.1992,7.1992,7.1992,7.1992,7.1992,7.2148,7.2422,7.3047,7.3594,7.414,7.4726,7.5508,7.6289,7.6289,7.668,7.7187,8.467,8.4854,8.5363,8.7055,8.7325,8.7632,8.8526,8.8679,8.8372,8.7478,8.7363,8.7017,8.617,8.5354,8.4893,8.4893,8.4093,8.3216,8.2362,8.2285,8.1939,8.1131,8.1093,8.1093,8.1093,8.0239,7.8938,7.7215,7.3934,7.0999,6.8452,6.675,6.6323,6.7103,6.8828,7.0097,7.0925,7.201,7.3047,7.3986,7.4227,7.439,7.457,7.457,7.457,7.4453,7.3594,7.3281,7.3164,7.2305,7.1992,7.1836,7.0976,7.0156,6.9492,6.9492,6.8867,6.8203,6.8203,6.7578,6.6914,6.6914,6.6875,6.664,6.5781,6.4922,6.3789,6.2031,6.1584,6.1502,6.1502,6.138,6.0747,5.918,6.0368,6.0315,5.7069,5.6601,5.5625,5.3008,4.9687,4.7617,4.7617,4.6016,4.6445,4.9922,5.0156,5.1601,5.5039,5.3633,5.543,6.1445,6.2539,6.3828,6.5586,6.8125,6.9844,7.0703,7.1562,7.1992,7.1992,7.1992,7.1992,7.1992,7.1992,7.25,7.3281,7.3281,7.4297,7.5859,7.5898,7.6406,7.7187,7.7187,7.7187,7.7187,8.744,8.7478,8.7671,8.8179,8.8295,8.8372,8.8679,8.8718,8.8603,8.8333,8.7786,8.7286,8.7017,8.6247,8.5701,8.5701,8.4978,8.4362,8.4093,8.2978,8.217,8.1939,8.14,8.1093,8.1093,8.0823,7.9823,7.8138,7.5915,7.3567,7.1024,7.0523,7.0709,7.1482,7.2197,7.2954,7.3723,7.435,7.5156,7.5978,7.6187,7.5974,7.5508,7.5508,7.5117,7.457,7.4297,7.418,7.4062,7.3164,7.289,7.2734,7.1875,7.1406,7.1094,7.0508,7.0117,6.9765,6.9258,6.8437,6.7773,6.7773,6.7344,6.668,6.5781,6.4453,6.3086,6.1953,6.1678,6.1634,6.1634,6.1587,6.1426,6.0891,6.1283,6.0856,5.8672,5.7851,5.6758,5.4726,5.2461,5.0859,5.0234,5.0234,5.0,4.9375,5.0351,5.1992,5.4297,5.5586,5.7148,5.9062,6.2773,6.5312,6.6484,6.9023,7.0703,7.1601,7.1875,7.1992,7.1992,7.1992,7.2305,7.289,7.289,7.3398,7.4219,7.4844,7.539,7.5976,7.6562,7.6953,7.7187,7.7187,7.7187,7.7187,8.8718,8.8718,8.8795,8.9094,8.9133,8.9248,8.9594,8.9633,8.9517,8.9171,8.8671,8.8209,8.7902,8.7094,8.6478,8.6132,8.5632,8.5209,8.4931,8.3862,8.2978,8.2324,8.1823,8.14,8.1093,8.1093,8.0554,7.9485,7.8092,7.6438,7.456,7.456,7.4861,7.5375,7.5589,7.5957,7.642,7.6549,7.6883,7.7394,7.726,7.6875,7.6406,7.6406,7.6055,7.5547,7.5195,7.5078,7.4961,7.4062,7.3789,7.3633,7.2773,7.25,7.2305,7.1445,7.0976,7.0586,7.0078,6.9297,6.8594,6.8281,6.7773,6.707,6.5859,6.4492,6.3242,6.2383,6.1914,6.1719,6.1719,6.1719,6.1719,6.1719,6.1445,6.0742,5.9375,5.8164,5.6875,5.5469,5.4062,5.2969,5.2422,5.3164,5.3281,5.2344,5.3828,5.539,5.6836,5.7226,5.8281,6.0234,6.4062,6.664,6.7812,6.9726,7.1133,7.1992,7.1992,7.2187,7.25,7.25,7.2969,7.3789,7.3789,7.4297,7.5117,7.5664,7.6094,7.6445,7.6992,7.7187,7.7187,7.7187,7.7187,7.7187,8.8872,8.8872,8.9094,8.9855,8.997,9.0278,9.1095,9.121,9.0893,9.0086,8.9932,8.9624,8.8872,8.8017,8.7171,8.6363,8.617,8.5778,8.5008,8.4931,8.417,8.2554,8.2362,8.1939,8.1208,8.1131,8.1093,8.1093,8.0277,7.9477,7.8677,7.8638,7.8615,7.8621,7.8751,7.8823,7.8804,7.8475,7.8297,7.8263,7.7612,7.7344,7.7305,7.7305,7.7265,7.7109,7.6289,7.5976,7.5859,7.4961,7.4687,7.4531,7.3672,7.3398,7.3203,7.2265,7.1445,7.0781,7.0781,7.0156,6.9297,6.8555,6.8281,6.7734,6.6015,6.4961,6.414,6.3203,6.2344,6.1758,6.1719,6.1719,6.1719,6.1719,6.0976,6.0117,5.9297,5.7812,5.6445,5.5586,5.4805,5.4336,5.4297,5.5117,5.6211,5.7617,5.9336,6.0664,6.1484,5.8633,5.9258,6.4219,6.6094,6.7812,6.9453,7.0351,7.1171,7.1992,7.2031,7.25,7.3281,7.3359,7.3867,7.4687,7.4687,7.5195,7.5976,7.5976,7.6484,7.7187,7.7187,7.7187,7.7187,7.7187,7.7187,7.7187,9.0594,9.0594,9.0671,9.0864,9.0902,9.0979,9.1171,9.121,9.1133,9.0932,9.0316,8.9816,8.9633,8.8863,8.8295,8.8094,8.6863,8.6017,8.5824,8.5239,8.4709,8.4277,8.3016,8.2208,8.2016,8.14,8.1093,8.1093,8.09,8.0708,8.0477,7.9785,7.9562,7.9685,7.9243,7.9091,7.9266,7.9311,7.9332,7.9332,7.9179,7.875,7.8203,7.8203,7.7773,7.7187,7.6953,7.6875,7.6758,7.5898,7.5586,7.543,7.457,7.4297,7.3984,7.2461,7.1836,7.168,7.168,7.1055,7.0351,7.0156,6.914,6.7734,6.6015,6.543,6.4844,6.332,6.2851,6.25,6.1836,6.1719,6.1719,6.1719,6.0976,6.0117,5.9297,5.8828,5.8242,5.7383,5.7695,5.7695,5.7031,5.832,5.8281,5.6094,5.8125,5.957,5.9765,6.0234,6.1953,6.5195,6.6992,6.8711,7.039,7.1115,7.1562,7.1797,7.2461,7.2952,7.332,7.3984,7.4765,7.5586,7.5586,7.6094,7.6875,7.6875,7.6992,7.7187,7.7187,7.7187,7.7187,7.7187,7.7187,7.7187,9.121,9.121,9.121,9.121,9.121,9.121,9.121,9.121,9.121,9.121,9.0778,9.047,9.047,8.9748,8.9248,8.9248,8.7671,8.6709,8.6709,8.5901,8.5286,8.4931,8.3978,8.3131,8.2324,8.1862,8.1477,8.1093,8.1093,8.1093,8.1093,8.0631,8.0499,8.0682,8.0291,8.0305,8.0552,8.0282,8.0228,8.0273,7.9844,7.9453,7.9062,7.9062,7.875,7.8281,7.793,7.7773,7.7656,7.6797,7.6484,7.6328,7.5469,7.5195,7.4922,7.3594,7.289,7.25,7.2109,7.164,7.1211,7.0781,6.9726,6.8398,6.7109,6.6484,6.582,6.4453,6.3867,6.332,6.2461,6.2305,6.2031,6.125,6.0703,6.0117,5.9297,5.9219,5.914,5.9062,5.9453,5.9883,6.0195,6.1055,6.082,5.8945,6.0859,6.1797,6.0976,6.332,6.5156,6.6172,6.7851,6.9334,7.061,7.1322,7.1886,7.2317,7.2859,7.3625,7.4492,7.4961,7.5664,7.6484,7.6484,7.6758,7.7187,7.7187,7.7187,7.7187,7.7187,7.7187,7.7187,7.7187,7.7187,7.7187,9.121,9.121,9.121,9.121,9.121,9.121,9.121,9.121,9.121,9.121,9.121,9.121,9.121,9.0547,9.0086,9.0086,8.8671,8.7671,8.7401,8.6594,8.5786,8.5124,8.497,8.4209,8.2708,8.2439,8.1977,8.1285,8.117,8.1093,8.1093,8.1093,8.1193,8.1407,8.1407,8.1614,8.1928,8.1202,8.0979,8.1092,8.039,8.0,7.9883,7.9883,7.9805,7.9609,7.8945,7.8672,7.8555,7.7695,7.7383,7.7226,7.6367,7.6094,7.5937,7.5039,7.4258,7.3476,7.2461,7.2109,7.1797,7.0937,7.0156,6.9375,6.8555,6.7695,6.6836,6.5976,6.5117,6.4219,6.3359,6.3086,6.2461,6.0859,6.0508,6.0117,5.9297,5.9297,5.9687,6.0508,6.0703,6.1445,6.3047,6.3203,6.3203,6.3203,6.457,6.4883,6.3633,6.6406,6.7851,6.7461,6.8867,6.9951,7.0653,7.1472,7.2254,7.3,7.3422,7.4452,7.5898,7.6055,7.6484,7.7187,7.7187,7.7187,7.7187,7.7187,7.7187,7.7187,7.7187,7.7187,7.7187,7.7187,7.7187,7.7187,9.121,9.121,9.121,9.121,9.121,9.121,9.121,9.121,9.121,9.121,9.121,9.121,9.121,9.1095,9.1018,9.1018,9.0086,8.8902,8.7478,8.6594,8.6055,8.594,8.5239,8.4777,8.4516,8.3054,8.2247,8.2093,8.1439,8.1093,8.1093,8.1093,8.1193,8.1407,8.1407,8.1519,8.1739,8.1794,8.1804,8.1864,8.1871,8.1445,8.0781,8.0781,8.0351,7.9687,7.957,7.9492,7.9375,7.8555,7.8281,7.8164,7.7265,7.6992,7.6836,7.5937,7.5586,7.5156,7.3555,7.2578,7.1797,7.0937,7.0586,7.0273,6.9414,6.8594,6.7734,6.6875,6.6015,6.5117,6.4258,6.3515,6.2656,6.164,6.0898,6.0117,5.9297,5.9805,6.0547,6.1406,6.2148,6.3008,6.3984,6.4101,6.4101,6.4101,6.4336,6.5039,6.6211,6.6797,6.8047,7.0039,7.0351,7.0757,7.1329,7.2189,7.2698,7.2857,7.448,7.5489,7.5937,7.664,7.707,7.7187,7.7187,7.7187,7.7187,7.7187,7.7187,7.7187,7.7187,7.7187,7.7187,7.7187,7.7187,7.7187,9.1287,9.171,9.1941,9.1325,9.121,9.121,9.121,9.121,9.121,9.121,9.121,9.121,9.121,9.121,9.121,9.121,9.0393,8.9393,8.8179,8.7286,8.6594,8.6132,8.5747,8.5363,8.4893,8.3632,8.2755,8.2285,8.1939,8.1516,8.1093,8.1093,8.1193,8.1401,8.1298,8.1424,8.1684,8.1664,8.1815,8.1996,8.2114,8.1945,8.1719,8.1719,8.1445,8.1054,8.0586,8.039,8.0273,7.9414,7.914,7.8984,7.8164,7.789,7.7734,7.6875,7.5937,7.5039,7.4219,7.3359,7.2617,7.2187,7.1758,7.1172,7.0312,6.9805,6.9297,6.8476,6.7969,6.7265,6.5937,6.5,6.3945,6.2617,6.168,6.0976,6.0586,6.1289,6.1953,6.2344,6.3164,6.4023,6.4922,6.5,6.5195,6.5664,6.6133,6.6758,6.7578,6.8476,6.9492,7.0664,7.1515,7.2062,7.2318,7.3176,7.3844,7.4314,7.5312,7.6049,7.6601,7.7031,7.7187,7.7187,7.7187,7.7187,7.7187,7.7187,7.7187,7.7187,7.7187,7.7187,7.7187,7.7187,7.7187,7.7187,9.1364,9.1902,9.2249,9.1364,9.121,9.121,9.121,9.121,9.121,9.121,9.121,9.121,9.121,9.121,9.121,9.121,9.0586,8.9855,8.9017,8.8171,8.7209,8.617,8.6094,8.5824,8.5201,8.4324,8.3555,8.2901,8.2516,8.1977,8.1362,8.1208,8.1181,8.1324,8.1152,8.1271,8.1553,8.1442,8.1582,8.187,8.1971,8.2071,8.2223,8.2265,8.2304,8.2226,8.1523,8.1289,8.1172,8.0312,8.0,7.9844,7.9023,7.8789,7.8594,7.7734,7.6406,7.5156,7.4961,7.4258,7.3594,7.3594,7.2969,7.2148,7.1445,7.0976,7.0508,6.9922,6.957,6.9023,6.7734,6.664,6.539,6.3867,6.2851,6.2226,6.2031,6.2734,6.3437,6.3867,6.4492,6.5312,6.6367,6.6484,6.6758,6.7461,6.8125,6.8594,6.8789,7.0,7.0898,7.1289,7.2394,7.2981,7.2981,7.4075,7.4925,7.5525,7.5955,7.6477,7.7054,7.7054,7.7054,7.7054,7.7054,7.7099,7.7145,7.7144,7.7147,7.7187,7.7187,7.7187,7.7187,7.7187,7.7187,7.7187,9.1364,9.1287,9.1287,9.121,9.121,9.121,9.121,9.121,9.121,9.121,9.121,9.121,9.121,9.121,9.121,9.121,9.1133,9.074,8.9855,8.9056,8.7863,8.617,8.6094,8.6055,8.6017,8.5209,8.4786,8.4709,8.3093,8.2285,8.2208,8.1439,8.1108,8.1139,8.1108,8.1124,8.1168,8.133,8.1436,8.1485,8.1855,8.1996,8.2051,8.2222,8.2304,8.2304,8.2226,8.2187,8.207,8.1211,8.0898,8.0742,7.9883,7.9609,7.9453,7.8633,7.7734,7.6836,7.6015,7.5156,7.4492,7.4492,7.3867,7.3203,7.3125,7.1875,7.0664,7.0625,6.9961,6.9375,6.9336,6.793,6.6484,6.5547,6.4687,6.3828,6.3008,6.3633,6.4805,6.6406,6.668,6.7344,6.8945,6.9101,6.918,6.9297,6.9375,6.9726,7.0469,7.0625,7.1445,7.3047,7.3057,7.2981,7.2981,7.4662,7.5432,7.533,7.6334,7.6758,7.6624,7.6624,7.6624,7.6624,7.6624,7.6752,7.6931,7.6929,7.7047,7.7187,7.7187,7.7187,7.7187,7.7187,7.7187,7.7187,9.2903,9.3056,9.3018,9.2172,9.2133,9.2018,9.1325,9.121,9.121,9.121,9.121,9.121,9.121,9.121,9.121,9.121,9.121,9.0825,8.997,8.9624,8.844,8.6209,8.6094,8.6094,8.6094,8.5786,8.5401,8.4893,8.4247,8.3632,8.3101,8.2247,8.1823,8.1823,8.1323,8.1093,8.11,8.1181,8.1298,8.1408,8.1684,8.1883,8.2001,8.2221,8.2304,8.2304,8.2304,8.2304,8.2265,8.1914,8.1797,8.164,8.0781,8.0508,8.0351,7.9492,7.8672,7.793,7.7617,7.6484,7.539,7.539,7.4765,7.4101,7.4101,7.3164,7.2305,7.2305,7.1601,7.0859,7.0351,6.9258,6.8359,6.8008,6.6797,6.5976,6.6211,6.6523,6.6953,6.7617,6.8164,6.875,6.9336,6.9453,6.9687,7.0195,7.0234,7.0625,7.1445,7.2031,7.2617,7.3281,7.4254,7.4795,7.4795,7.6007,7.6489,7.6313,7.6706,7.678,7.6582,7.6582,7.6582,7.6582,7.6582,7.6624,7.6732,7.6854,7.6941,7.7047,7.7146,7.7187,7.7265,7.7812,7.8008,7.8008,9.3864,9.4018,9.4018,9.3056,9.2826,9.2518,9.1748,9.1364,9.121,9.121,9.121,9.121,9.121,9.121,9.121,9.121,9.121,9.0941,9.0355,9.0047,8.8893,8.6594,8.6517,8.6363,8.6094,8.6094,8.5824,8.5286,8.5008,8.4593,8.3978,8.3131,8.2554,8.2285,8.1708,8.1323,8.1093,8.1093,8.1174,8.133,8.16,8.1763,8.1916,8.2217,8.2304,8.2304,8.2304,8.2304,8.2304,8.2304,8.2304,8.2187,8.1601,8.1211,8.0898,8.0273,7.9531,7.8867,7.8867,7.8008,7.6953,7.6445,7.5664,7.5,7.5,7.4336,7.3711,7.3711,7.3008,7.2226,7.164,7.0586,6.9805,6.9805,6.8594,6.789,6.8515,6.8594,6.8672,6.8945,6.9492,6.9961,7.0195,7.0273,7.0508,7.1055,7.1094,7.1484,7.2344,7.3242,7.3828,7.4101,7.5273,7.6015,7.6328,7.6914,7.7056,7.6829,7.6829,7.6687,7.641,7.641,7.641,7.641,7.641,7.6607,7.6924,7.7122,7.7398,7.7708,7.7924,7.8008,7.8047,7.8672,7.8867,7.8867,9.3903,9.371,9.371,9.371,9.3056,9.2518,9.2479,9.1787,9.121,9.121,9.121,9.121,9.121,9.121,9.121,9.121,9.121,9.121,9.121,9.0393,8.9162,8.7478,8.7401,8.7017,8.6132,8.6094,8.6094,8.6094,8.5277,8.4893,8.4893,8.4016,8.3139,8.2331,8.2331,8.1862,8.11,8.1093,8.1093,8.1123,8.1529,8.1684,8.1729,8.2168,8.2304,8.2304,8.2304,8.2304,8.2304,8.2304,8.2304,8.2304,8.2304,8.1719,8.1015,8.1015,8.039,7.9726,7.9726,7.9726,7.9297,7.7617,7.6562,7.5937,7.5898,7.5234,7.4609,7.4609,7.3906,7.332,7.332,7.1914,7.0742,7.0742,7.0,6.9453,6.9531,6.9492,6.9765,7.0625,7.0703,7.1055,7.1914,7.1992,7.1992,7.2031,7.2031,7.2383,7.3242,7.414,7.5,7.5859,7.5898,7.6328,7.7187,7.7187,7.6999,7.6586,7.6625,7.6381,7.6022,7.6022,7.6015,7.6015,7.6015,7.661,7.7628,7.7822,7.848,7.9422,7.9603,7.9687,7.9687,7.9726,7.9726,7.9726,9.5595,9.5518,9.5326,9.472,9.4412,9.3873,9.2672,9.2287,9.1902,9.1287,9.121,9.121,9.121,9.121,9.121,9.121,9.121,9.121,9.121,9.0979,9.0325,8.9201,8.8017,8.7286,8.7017,8.6401,8.6094,8.6094,8.5863,8.5747,8.5701,8.4901,8.4443,8.4307,8.3541,8.2839,8.2194,8.2031,8.1631,8.1123,8.1529,8.1684,8.1729,8.2168,8.2304,8.2304,8.2304,8.2304,8.2304,8.2304,8.2304,8.2304,8.2304,8.2109,8.1914,8.1914,8.1289,8.0625,8.0625,8.0156,7.9453,7.8398,7.793,7.7578,7.6953,7.6133,7.5508,7.5508,7.4805,7.4219,7.4219,7.3789,7.3437,7.3437,7.3203,7.3047,7.3086,7.3047,7.293,7.2578,7.2539,7.2617,7.289,7.289,7.3164,7.3789,7.3828,7.3945,7.4219,7.5039,7.5625,7.5898,7.6484,7.6953,7.7187,7.7187,7.7056,7.6832,7.7417,7.7516,7.7156,7.7709,7.7891,7.7753,7.7753,7.8005,7.8453,7.8677,7.899,7.9429,7.9604,7.9687,7.9765,8.039,8.0625,8.0625,9.6288,9.6288,9.6134,9.5595,9.4951,9.4143,9.3133,9.2402,9.1787,9.1287,9.121,9.121,9.121,9.121,9.121,9.121,9.121,9.121,9.121,9.121,9.0979,9.0432,8.9094,8.8094,8.7401,8.6863,8.644,8.6094,8.6094,8.6094,8.6094,8.5585,8.5313,8.5157,8.4523,8.3902,8.3294,8.2696,8.2237,8.1856,8.173,8.1732,8.1861,8.2174,8.2304,8.2304,8.2304,8.2304,8.2304,8.2304,8.2304,8.2304,8.2304,8.2304,8.2304,8.2304,8.1914,8.1523,8.1523,8.1133,8.0547,7.9687,7.8984,7.8359,7.7812,7.7031,7.6406,7.6406,7.5703,7.5117,7.5117,7.4844,7.4609,7.4609,7.4609,7.4609,7.4609,7.4609,7.4414,7.3867,7.3828,7.3828,7.3828,7.3828,7.4023,7.457,7.4922,7.5117,7.5117,7.5937,7.6406,7.6406,7.6914,7.7383,7.7695,7.7695,7.7609,7.743,7.8288,7.8534,7.8248,7.8758,7.8905,7.8769,7.8769,7.9028,7.9437,7.9658,8.002,8.0444,8.0659,8.0742,8.0781,8.1328,8.1523,8.1523,9.6288,9.6288,9.6288,9.6211,9.4864,9.3749,9.3633,9.2287,9.1287,9.121,9.121,9.121,9.121,9.121,9.121,9.121,9.121,9.121,9.121,9.121,9.121,9.121,9.0432,8.9278,8.7671,8.7478,8.7017,8.6209,8.6132,8.6094,8.6094,8.6094,8.5814,8.5318,8.5318,8.4997,8.4334,8.3372,8.3014,8.3058,8.2252,8.208,8.2237,8.2378,8.2422,8.2422,8.2344,8.2304,8.2304,8.2304,8.2304,8.2304,8.2304,8.2304,8.2304,8.2304,8.2304,8.2304,8.2304,8.2304,8.2109,8.1328,7.9922,7.8711,7.8633,7.8008,7.7383,7.7344,7.668,7.6094,7.6015,7.5351,7.4844,7.4844,7.4844,7.4844,7.4844,7.4844,7.4805,7.4726,7.4726,7.4726,7.4726,7.4805,7.4844,7.4844,7.5586,7.6015,7.6015,7.6836,7.7305,7.7305,7.7383,7.7812,7.8594,7.8672,7.8587,7.8341,7.9161,7.9459,7.935,7.9428,7.9456,7.9403,7.9403,7.9838,8.0564,8.0744,8.1297,8.2053,8.2222,8.2304,8.2304,8.2304,8.2304,8.2304,9.6288,9.6288,9.6095,9.5412,9.4989,9.4296,9.2941,9.2441,9.1979,9.1287,9.121,9.121,9.121,9.121,9.121,9.121,9.121,9.121,9.121,9.121,9.121,9.121,9.1018,9.0441,8.9393,8.8055,8.7325,8.7132,8.644,8.6094,8.6094,8.6094,8.6122,8.6209,8.6209,8.584,8.5229,8.4985,8.4531,8.4011,8.3986,8.4005,8.3996,8.351,8.332,8.3242,8.2539,8.2304,8.2304,8.2304,8.2304,8.2304,8.2304,8.2304,8.2304,8.2304,8.2304,8.2304,8.2304,8.2304,8.2265,8.207,8.1211,8.0273,7.9609,7.9297,7.8984,7.8359,7.8086,7.7734,7.7031,7.6758,7.664,7.664,7.664,7.664,7.664,7.664,7.6367,7.5703,7.5625,7.5625,7.5625,7.625,7.664,7.664,7.6797,7.6914,7.6914,7.7734,7.8203,7.8203,7.8828,7.9258,7.9453,8.0117,8.0078,7.9371,8.0231,8.0561,8.0395,8.1097,8.1313,8.1143,8.1143,8.1341,8.1646,8.1711,8.1916,8.2223,8.2265,8.2304,8.2304,8.2304,8.2304,8.2304,9.6288,9.6288,9.6172,9.5711,9.5297,9.4566,9.3249,9.2749,9.2172,9.1325,9.121,9.121,9.121,9.121,9.121,9.121,9.121,9.121,9.121,9.121,9.121,9.121,9.121,9.097,9.0509,8.9248,8.8209,8.7401,8.694,8.6517,8.6094,8.6094,8.6238,8.6486,8.66,8.6493,8.6257,8.5831,8.5487,8.5153,8.4767,8.4676,8.4708,8.4334,8.4219,8.4101,8.3242,8.2656,8.2304,8.2304,8.2304,8.2304,8.2304,8.2304,8.2304,8.2304,8.2304,8.2304,8.2304,8.2304,8.2304,8.2304,8.1953,8.1406,8.0508,8.0,7.957,7.914,7.9062,7.8945,7.8476,7.8398,7.8398,7.8398,7.8398,7.8398,7.8398,7.8047,7.7656,7.7187,7.6758,7.6523,7.6523,7.7305,7.7812,7.7812,7.8164,7.8398,7.8398,7.8828,7.9062,7.9062,7.9492,7.9883,8.0312,8.0781,8.0976,8.0937,8.1406,8.156,8.1463,8.1931,8.2109,8.1986,8.1986,8.2054,8.2127,8.2127,8.2219,8.2304,8.2304,8.2304,8.2304,8.2304,8.2304,8.2304,9.6288,9.6288,9.6249,9.6095,9.5365,9.4527,9.3787,9.2903,9.2056,9.1518,9.1287,9.121,9.121,9.121,9.121,9.121,9.121,9.121,9.121,9.121,9.121,9.121,9.121,9.121,9.121,9.047,8.9355,8.7825,8.7671,8.7248,8.6555,8.6401,8.6431,8.6675,8.6718,8.6822,8.6961,8.6327,8.6163,8.6285,8.5382,8.5167,8.5312,8.5195,8.5117,8.5,8.414,8.3359,8.2734,8.2734,8.2656,8.2539,8.2539,8.2422,8.2304,8.2304,8.2304,8.2304,8.2304,8.2304,8.2304,8.2304,8.2304,8.2109,8.1406,8.0664,8.0117,7.9961,7.9922,7.9883,7.9726,7.9687,7.9687,7.9687,7.9687,7.9687,7.9687,7.914,7.8711,7.8711,7.8086,7.7617,7.7617,7.8281,7.8711,7.8711,7.9336,7.9687,7.9687,7.9844,7.9922,7.9922,8.0078,8.0508,8.1211,8.1211,8.1562,8.2304,8.2304,8.2304,8.2304,8.2304,8.2265,8.2263,8.2304,8.2265,8.2263,8.2304,8.2304,8.2304,8.2304,8.2304,8.2304,8.2304,8.2304,8.2304,9.6288,9.6288,9.6057,9.5297,9.445,9.3835,9.371,9.2364,9.1595,9.2249,9.1672,9.121,9.121,9.121,9.121,9.121,9.121,9.121,9.121,9.121,9.121,9.121,9.121,9.121,9.121,9.1095,9.0556,8.9547,8.8863,8.8449,8.8333,8.7594,8.7242,8.7277,8.6745,8.657,8.6583,8.6662,8.6773,8.6968,8.6837,8.6923,8.707,8.6328,8.6015,8.5898,8.5039,8.4648,8.4531,8.4531,8.4062,8.3437,8.3437,8.289,8.2304,8.2304,8.2304,8.2304,8.2304,8.2304,8.2304,8.2304,8.2304,8.2265,8.2148,8.2031,8.1719,8.0976,8.082,8.0586,7.9844,7.9687,7.9687,7.9687,7.9687,7.9687,7.9687,7.9609,7.9531,7.9531,7.9414,7.9375,7.9375,7.9453,7.9531,7.9531,7.9648,7.9687,7.9687,8.039,8.082,8.082,8.1562,8.1992,8.2109,8.2109,8.2187,8.2304,8.2304,8.2304,8.2304,8.2304,8.2219,8.2054,8.2221,8.2218,8.2056,8.2222,8.2304,8.2304,8.2304,8.2304,8.2304,8.2304,8.2304,8.2304,9.6288,9.6288,9.6172,9.5788,9.5403,9.4826,9.3864,9.3056,9.2402,9.1864,9.1441,9.121,9.121,9.121,9.121,9.121,9.121,9.121,9.121,9.121,9.121,9.121,9.121,9.121,9.121,9.121,9.1018,9.0624,8.9787,8.9133,8.8679,8.8295,8.7863,8.738,8.7245,8.69,8.6499,8.6715,8.6933,8.7104,8.7104,8.7275,8.7461,8.707,8.6914,8.6797,8.5937,8.5312,8.4883,8.4883,8.4648,8.4336,8.4336,8.4062,8.3672,8.3164,8.3047,8.2929,8.2422,8.2304,8.2304,8.2304,8.2304,8.2304,8.2304,8.2304,8.2187,8.1797,8.1719,8.1601,8.1211,8.1133,8.1133,8.1133,8.1133,8.1133,8.1133,8.0742,8.0234,7.9765,7.9687,7.9687,7.9687,8.0156,8.0429,8.0429,8.0898,8.1133,8.1133,8.1523,8.1719,8.1719,8.2109,8.2304,8.2304,8.2304,8.2304,8.2304,8.2304,8.2304,8.2304,8.2304,8.2263,8.2173,8.2264,8.2263,8.2173,8.2264,8.2304,8.2304,8.2304,8.2222,8.2124,8.2124,8.2061,8.1973]}]]